[[{"header":{"parameterUnit":"m.s-1","parameterCategory":1,"la1":30.6,"la2":28.766,"lo1":-90.7593,"lo2":-88.6598,"dx":0.0162,"dy":0.0183,"nx":116,"ny":114,"refTime":"2023-01-20T06:00:00:Z","depth":0,"parameterNumber":2,"parameterNumberName":"U-component_of_WINDS"},"data":[0.0,0.0,0.0,0.0,0.0,0.0,0.0,0.0,0.0,0.0,0.0,0.0,0.0,0.0,0.0,0.0,0.0,0.0,0.0,0.0,0.0,0.0,0.0,0.0,0.0,0.0,0.0,0.0,0.0,0.0,0.0,0.0,0.0,0.0,0.0,0.0,0.0,0.0,0.0,0.0,0.0,0.0,0.0,0.0,0.0,0.0,0.0,0.0,0.0,0.0,0.0,0.0,0.0,0.0,0.0,0.0,0.0,0.0,0.0,0.0,0.0,0.0,0.0,0.0,0.0,0.0,0.0,0.0,0.0,0.0,0.0,0.0,0.0,0.0,0.0,0.0,0.0,0.0,0.0,0.0,0.0,0.0,0.0,0.0,0.0,0.0,0.0,0.0,0.0,0.0,0.0,0.0,0.0,0.0,0.0,0.0,0.0,0.0,0.0,0.0,0.0,0.0,0.0,0.0,0.0,0.0,0.0,0.0,0.0,0.0,0.0,0.0,0.0,0.0,0.0,0.0,0.0,0.0,0.0,0.0,0.0,0.0,0.0,0.0,0.0,0.0,0.0,0.0,0.0,0.0,0.0,0.0,0.0,0.0,0.0,0.0,0.0,0.0,0.0,0.0,0.0,0.0,0.0,0.0,0.0,0.0,0.0,0.0,0.0,0.0,0.0,0.0,0.0,0.0,0.0,0.0,0.0,0.0,0.0,0.0,0.0,0.0,0.0,0.0,0.0,0.0,0.0,0.0,0.0,0.0,0.0,0.0,0.0,0.0,0.0,0.0,0.0,0.0,0.0,0.0,0.0,0.0,0.0,0.0,0.0,0.0,0.0,0.0,0.0,0.0,0.0,0.0,0.0,0.0,0.0,0.0,0.0,0.0,0.0,0.0,0.0,0.0,0.0,0.0,0.0,0.0,0.0,0.0,0.0,0.0,0.0,0.0,0.0,0.0,0.0,0.0,0.0,0.0,0.0,0.0,0.0,0.0,0.0,0.0,0.0,0.0,0.0,0.0,0.0,0.0,0.0,0.0,0.0,0.0,0.0,0.0,0.0,0.0,0.0,0.0,0.0,0.0,0.0,0.0,0.0,0.0,0.0,0.0,0.0,0.0,0.0,0.0,0.0,0.0,0.0,0.0,0.0,0.0,0.0,0.0,0.0,0.0,0.0,0.0,0.0,0.0,0.0,0.0,0.0,0.0,0.0,0.0,0.0,0.0,0.0,0.0,0.0,0.0,0.0,0.0,0.0,0.0,0.0,0.0,0.0,0.0,0.0,0.0,0.0,0.0,0.0,0.0,0.0,0.0,0.0,0.0,0.0,0.0,0.0,0.0,0.0,0.0,0.0,0.0,0.0,0.0,0.0,0.0,0.0,0.0,0.0,0.0,0.0,0.0,0.0,0.0,0.0,0.0,0.0,0.0,0.0,0.0,0.0,0.0,0.0,0.0,0.0,0.0,0.0,0.0,0.0,0.0,0.0,0.0,0.0,0.0,0.0,0.0,0.0,0.0,0.0,0.0,0.0,0.0,0.0,0.0,0.0,0.0,0.0,0.0,0.0,0.0,0.0,0.0,0.0,0.0,0.0,0.0,0.0,0.0,0.0,0.0,0.0,0.0,0.0,0.0,0.0,0.0,0.0,0.0,0.0,0.0,0.0,0.0,0.0,0.0,0.0,0.0,0.0,0.0,0.0,0.0,0.0,0.0,0.0,0.0,0.0,0.0,0.0,0.0,0.0,0.0,0.0,0.0,0.0,0.0,0.0,0.0,0.0,0.0,0.0,0.0,0.0,0.0,0.0,0.0,0.0,0.0,0.0,0.0,0.0,0.0,0.0,0.0,0.0,0.0,0.0,0.0,0.0,0.0,0.0,0.0,0.0,0.0,0.0,0.0,0.0,0.0,0.0,0.0,0.0,0.0,0.0,0.0,0.0,0.0,0.0,0.0,0.0,0.0,0.0,0.0,0.0,0.0,0.0,0.0,0.0,0.0,0.0,0.0,0.0,0.0,0.0,0.0,0.0,0.0,0.0,0.0,0.0,0.0,0.0,0.0,0.0,0.0,0.0,0.0,0.0,0.0,0.0,0.0,0.0,0.0,0.0,0.0,0.0,0.0,0.0,0.0,0.0,0.0,0.0,0.0,0.0,0.0,0.0,0.0,0.0,0.0,0.0,0.0,0.0,0.0,0.0,0.0,0.0,0.0,0.0,0.0,0.0,0.0,0.0,0.0,0.0,0.0,0.0,0.0,0.0,0.0,0.0,0.0,0.0,0.0,0.0,0.0,0.0,0.0,0.0,0.0,0.0,0.0,0.0,0.0,0.0,0.0,0.0,0.0,0.0,0.0,0.0,0.0,0.0,0.0,0.0,0.0,0.0,0.0,0.0,0.0,0.0,0.0,0.0,0.0,0.0,0.0,0.0,0.0,0.0,0.0,0.0,0.0,0.0,0.0,0.0,0.0,0.0,0.0,0.0,0.0,0.0,0.0,0.0,0.0,0.0,0.0,0.0,0.0,0.0,0.0,0.0,0.0,0.0,0.0,0.0,0.0,0.0,0.0,0.0,0.0,0.0,0.0,0.0,0.0,0.0,0.0,0.0,0.0,0.0,0.0,0.0,0.0,0.0,0.0,0.0,0.0,0.0,0.0,0.0,0.0,0.0,0.0,0.0,0.0,0.0,0.0,0.0,0.0,0.0,0.0,0.0,0.0,0.0,0.0,0.0,0.0,0.0,0.0,0.0,0.0,0.0,0.0,0.0,0.0,0.0,0.0,0.0,0.0,0.0,0.0,0.0,0.0,0.0,0.0,0.0,0.0,0.0,0.0,0.0,0.0,0.0,0.0,0.0,0.0,0.0,0.0,0.0,0.0,0.0,0.0,0.0,0.0,0.0,0.0,0.0,0.0,0.0,0.0,0.0,0.0,0.0,0.0,0.0,0.0,0.0,0.0,0.0,0.0,0.0,0.0,0.0,0.0,0.0,0.0,0.0,0.0,0.0,0.0,0.0,0.0,0.0,0.0,0.0,0.0,0.0,0.0,0.0,0.0,0.0,0.0,0.0,0.0,0.0,0.0,0.0,0.0,0.0,0.0,0.0,0.0,0.0,0.0,0.0,0.0,0.0,0.0,0.0,0.0,0.0,0.0,0.0,0.0,0.0,0.0,0.0,0.0,0.0,0.0,0.0,0.0,0.0,0.0,0.0,0.0,0.0,0.0,0.0,0.0,0.0,0.0,0.0,0.0,0.0,0.0,0.0,0.0,0.0,0.0,0.0,0.0,0.0,0.0,0.0,0.0,0.0,0.0,0.0,0.0,0.0,0.0,0.0,0.0,0.0,0.0,0.0,0.0,0.0,0.0,0.0,0.0,0.0,0.0,0.0,0.0,0.0,0.0,0.0,0.0,0.0,0.0,0.0,0.0,0.0,0.0,0.0,0.0,0.0,0.0,0.0,0.0,0.0,0.0,0.0,0.0,0.0,0.0,0.0,0.0,0.0,0.0,0.0,0.0,0.0,0.0,0.0,0.0,0.0,0.0,0.0,0.0,0.0,0.0,0.0,0.0,0.0,0.0,0.0,0.0,0.0,0.0,0.0,0.0,0.0,0.0,0.0,0.0,0.0,0.0,0.0,0.0,0.0,0.0,0.0,0.0,0.0,0.0,0.0,0.0,0.0,0.0,0.0,0.0,0.0,0.0,0.0,0.0,0.0,0.0,0.0,0.0,0.0,0.0,0.0,0.0,0.0,0.0,0.0,0.0,0.0,0.0,0.0,0.0,0.0,0.0,0.0,0.0,0.0,0.0,0.0,0.0,0.0,0.0,0.0,0.0,0.0,0.0,0.0,0.0,0.0,0.0,0.0,0.0,0.0,0.0,0.0,0.0,0.0,0.0,0.0,0.0,0.0,0.0,0.0,0.0,0.0,0.0,0.0,0.0,0.0,0.0,0.0,0.0,0.0,0.0,0.0,0.0,0.0,0.0,0.0,0.0,0.0,0.0,0.0,0.0,0.0,0.0,0.0,0.0,0.0,0.0,0.0,0.0,0.0,0.0,0.0,0.0,0.0,0.0,0.0,0.0,0.0,0.0,0.0,0.0,0.0,0.0,0.0,0.0,0.0,0.0,0.0,0.0,0.0,0.0,0.0,0.0,0.0,0.0,0.0,0.0,0.0,0.0,0.0,0.0,0.0,0.0,0.0,0.0,0.0,0.0,0.0,0.0,0.0,0.0,0.0,0.0,0.0,0.0,0.0,0.0,0.0,0.0,0.0,0.0,0.0,0.0,0.0,0.0,0.0,0.0,0.0,0.0,0.0,0.0,0.0,0.0,0.0,0.0,0.0,0.0,0.0,0.0,0.0,0.0,0.0,0.0,0.0,0.0,0.0,0.0,0.0,0.0,0.0,0.0,0.0,0.0,0.0,0.0,0.0,0.0,0.0,0.0,0.0,0.0,0.0,0.0,0.0,0.0,0.0,0.0,0.0,0.0,0.0,0.0,0.0,0.0,0.0,0.0,0.0,0.0,0.0,0.0,0.0,0.0,0.0,0.0,0.0,0.0,0.0,0.0,0.0,0.0,0.0,0.0,0.0,0.0,0.0,0.0,0.0,0.0,0.0,0.0,0.0,0.0,0.0,0.0,0.0,0.0,0.0,0.0,0.0,0.0,0.0,0.0,0.0,0.0,0.0,0.0,0.0,0.0,0.0,0.0,0.0,0.0,0.0,0.0,0.0,0.0,0.0,0.0,0.0,0.0,0.0,0.0,0.0,0.0,0.0,0.0,0.0,0.0,0.0,0.0,0.0,0.0,0.0,0.0,0.0,0.0,0.0,0.0,0.0,0.0,0.0,0.0,0.0,0.0,0.0,0.0,0.0,0.0,0.0,0.0,0.0,0.0,0.0,0.0,0.0,0.0,0.0,0.0,0.0,0.0,0.0,0.0,0.0,0.0,0.0,0.0,0.0,0.0,0.0,0.0,0.0,0.0,0.0,0.0,0.0,0.0,0.0,0.0,0.0,0.0,0.0,0.0,0.0,0.0,0.0,0.0,0.0,0.0,0.0,0.0,0.0,0.0,0.0,0.0,0.0,0.0,0.0,0.0,0.0,0.0,0.0,0.0,0.0,0.0,0.0,0.0,0.0,0.0,0.0,0.0,0.0,0.0,0.0,0.0,0.0,0.0,0.0,0.0,0.0,0.0,0.0,0.0,0.0,0.0,0.0,0.0,0.0,0.0,0.0,0.0,0.0,0.0,0.0,0.0,0.0,0.0,0.0,0.0,0.0,0.0,0.0,0.0,0.0,0.0,0.0,0.0,0.0,0.0,0.0,0.0,0.0,0.0,0.0,0.0,0.0,0.0,0.0,0.0,0.0,0.0,0.0,0.0,0.0,0.0,0.0,0.0,0.0,0.0,0.0,0.0,0.0,0.0,0.0,0.0,0.0,0.0,0.0,0.0,0.0,0.0,0.0,0.0,0.0,0.0,0.0,0.0,0.0,0.0,0.0,0.0,0.0,0.0,0.0,0.0,0.0,0.0,0.0,0.0,0.0,0.0,0.0,0.0,0.0,0.0,0.0,0.0,0.0,0.0,0.0,0.0,0.0,0.0,0.0,0.0,0.0,0.0,0.0,0.0,0.0,0.0,0.0,0.0,0.0,0.0,0.0,0.0,0.0,0.0,0.0,0.0,0.0,0.0,0.0,0.0,0.0,0.0,0.0,0.0,0.0,0.0,0.0,0.0,0.0,0.0,0.0,0.0,0.0,0.0,0.0,0.0,0.0,0.0,0.0,0.0,0.0,0.0,0.0,0.0,0.0,0.0,0.0,0.0,0.0,0.0,0.0,0.0,0.0,0.0,0.0,0.0,0.0,0.0,0.0,0.0,0.0,0.0,0.0,0.0,0.0,0.0,0.0,0.0,0.0,0.0,0.0,0.0,0.0,0.0,0.0,0.0,0.0,0.0,0.0,0.0,0.0,0.0,0.0,0.0,0.0,0.0,0.0,0.0,0.0,0.0,0.0,0.0,0.0,0.0,0.0,0.0,0.0,0.0,0.0,0.0,0.0,0.0,0.0,0.0,0.0,0.0,0.0,0.0,0.0,0.0,0.0,0.0,0.0,0.0,0.0,0.0,3.3495,0.0,0.0,0.0,0.0,0.0,0.0,0.0,0.0,0.0,0.0,0.0,0.0,0.0,0.0,0.0,0.0,0.0,0.0,0.0,0.0,0.0,0.0,0.0,0.0,0.0,0.0,0.0,0.0,0.0,0.0,0.0,0.0,0.0,0.0,0.0,0.0,0.0,0.0,0.0,0.0,0.0,0.0,0.0,0.0,0.0,0.0,0.0,0.0,0.0,0.0,0.0,0.0,0.0,0.0,0.0,0.0,0.0,0.0,0.0,0.0,0.0,0.0,0.0,0.0,0.0,0.0,0.0,0.0,0.0,0.0,0.0,0.0,0.0,0.0,0.0,0.0,0.0,0.0,0.0,0.0,0.0,0.0,0.0,0.0,0.0,0.0,0.0,0.0,0.0,0.0,0.0,0.0,0.0,0.0,0.0,0.0,0.0,0.0,0.0,0.0,0.0,0.0,0.0,0.0,0.0,0.0,0.0,0.0,0.0,0.0,0.0,0.0,0.0,0.0,0.0,0.0,3.4073,0.0,0.0,0.0,0.0,0.0,0.0,0.0,0.0,0.0,0.0,0.0,0.0,0.0,0.0,0.0,0.0,0.0,0.0,0.0,0.0,0.0,0.0,0.0,0.0,0.0,0.0,0.0,0.0,0.0,0.0,0.0,0.0,0.0,0.0,0.0,0.0,0.0,0.0,0.0,0.0,0.0,0.0,0.0,0.0,0.0,0.0,0.0,0.0,0.0,0.0,0.0,0.0,0.0,0.0,0.0,0.0,0.0,0.0,0.0,0.0,0.0,0.0,0.0,0.0,0.0,0.0,0.0,0.0,0.0,0.0,0.0,0.0,0.0,0.0,0.0,0.0,0.0,0.0,0.0,0.0,0.0,0.0,0.0,0.0,0.0,0.0,0.0,0.0,0.0,0.0,0.0,0.0,0.0,0.0,0.0,0.0,0.0,0.0,0.0,0.0,0.0,0.0,0.0,0.0,0.0,0.0,0.0,0.0,0.0,0.0,3.9848,3.9948,3.9471,3.8467,3.7011,3.5353,3.3768,0.0,0.0,0.0,0.0,0.0,0.0,0.0,0.0,0.0,0.0,0.0,0.0,0.0,0.0,0.0,0.0,0.0,0.0,0.0,0.0,0.0,0.0,0.0,0.0,0.0,0.0,0.0,0.0,0.0,0.0,0.0,0.0,0.0,0.0,0.0,0.0,0.0,0.0,3.4995,3.7097,3.7621,3.7966,3.7985,3.46,0.0,0.0,0.0,0.0,0.0,0.0,0.0,0.0,0.0,0.0,0.0,0.0,0.0,0.0,0.0,0.0,0.0,0.0,0.0,0.0,0.0,0.0,0.0,0.0,0.0,0.0,0.0,0.0,0.0,0.0,0.0,0.0,0.0,0.0,0.0,0.0,0.0,0.0,0.0,0.0,0.0,0.0,0.0,3.7112,3.749,0.0,0.0,0.0,0.0,0.0,0.0,0.0,0.0,0.0,0.0,0.0,0.0,0.0,0.0,3.8919,3.8994,3.912,3.927,3.9898,4.0248,4.0399,4.0876,4.1026,4.0851,4.0148,0.0,3.5929,3.5631,0.0,0.0,0.0,0.0,0.0,0.0,0.0,0.0,0.0,0.0,0.0,0.0,0.0,0.0,0.0,0.0,0.0,0.0,0.0,0.0,0.0,0.0,0.0,0.0,0.0,0.0,0.0,0.0,0.0,0.0,0.0,0.0,0.0,0.0,0.0,0.0,3.423,3.6055,3.6996,3.7254,3.7518,3.773,3.541,3.4964,3.5841,3.3946,0.0,0.0,0.0,0.0,0.0,0.0,0.0,0.0,0.0,0.0,0.0,0.0,0.0,0.0,0.0,0.0,0.0,0.0,0.0,0.0,0.0,0.0,0.0,0.0,0.0,0.0,0.0,0.0,0.0,0.0,0.0,0.0,0.0,0.0,0.0,0.0,0.0,0.0,0.0,3.8156,3.9936,3.917,4.0277,4.1122,0.0,0.0,0.0,0.0,0.0,0.0,0.0,0.0,0.0,3.9878,4.0211,4.0753,4.1557,4.1856,4.2333,4.2961,4.3514,4.4091,4.4669,4.4589,4.4564,4.4514,4.3689,4.2258,4.0376,3.7939,3.651,3.5855,0.0,0.0,0.0,0.0,0.0,0.0,0.0,0.0,0.0,0.0,0.0,0.0,0.0,0.0,0.0,0.0,0.0,0.0,0.0,0.0,0.0,3.0799,0.0,0.0,0.0,0.0,0.0,0.0,0.0,0.0,0.0,0.0,0.0,3.3878,3.5993,3.7185,3.7462,3.7738,3.8114,3.8441,3.7613,3.7033,3.6608,3.4705,3.4148,0.0,0.0,0.0,0.0,0.0,0.0,0.0,0.0,0.0,0.0,0.0,0.0,0.0,0.0,0.0,0.0,0.0,0.0,0.0,0.0,0.0,0.0,0.0,0.0,0.0,0.0,0.0,0.0,0.0,0.0,0.0,0.0,0.0,0.0,0.0,0.0,0.0,0.0,3.9682,4.1643,4.0307,4.1364,4.2001,0.0,0.0,0.0,0.0,0.0,0.0,4.015,4.0864,4.1724,4.2707,4.3079,4.3567,4.4271,4.4794,4.5573,4.6552,4.6588,4.7089,4.7954,4.7081,4.6795,4.694,4.6001,4.5127,4.4141,4.0249,3.789,3.6786,3.6784,3.6709,0.0,3.7362,3.7637,3.7612,0.0,0.0,0.0,0.0,0.0,0.0,0.0,0.0,0.0,0.0,0.0,0.0,0.0,0.0,3.2478,3.3596,3.2817,3.2215,0.0,0.0,0.0,0.0,0.0,3.0563,3.0588,0.0,0.0,3.846,3.8682,3.9296,4.0299,4.1406,4.1936,4.1961,4.1884,4.0402,3.7737,3.505,3.4826,3.6132,0.0,0.0,0.0,0.0,0.0,0.0,0.0,0.0,0.0,0.0,0.0,0.0,0.0,0.0,0.0,0.0,0.0,0.0,0.0,0.0,0.0,0.0,0.0,0.0,0.0,0.0,0.0,0.0,0.0,0.0,0.0,0.0,0.0,0.0,0.0,0.0,0.0,0.0,0.0,3.9601,4.0744,0.0,0.0,0.0,0.0,4.0314,4.1338,4.1945,4.1973,4.3019,4.39,4.445,4.5552,4.6602,4.7657,4.8265,4.8843,4.9389,4.8061,4.7726,4.8225,4.6343,4.5943,4.6694,4.6034,4.5922,4.5874,4.198,4.0324,4.0073,3.8542,3.8567,3.9421,3.8994,3.8818,3.8743,0.0,0.0,0.0,0.0,0.0,0.0,0.0,0.0,0.0,0.0,0.0,0.0,0.0,3.3554,3.4502,3.4881,3.5228,3.465,3.2893,0.0,0.0,0.0,0.0,3.1265,3.2692,0.0,3.7455,3.9394,4.119,4.2233,4.2635,4.3388,4.374,4.374,4.3363,4.266,4.1505,3.8015,3.6684,3.6759,3.5102,3.4851,0.0,0.0,0.0,0.0,0.0,0.0,0.0,0.0,0.0,0.0,0.0,0.0,0.0,0.0,0.0,0.0,0.0,0.0,0.0,0.0,0.0,0.0,0.0,0.0,0.0,0.0,0.0,0.0,0.0,0.0,0.0,0.0,0.0,0.0,0.0,0.0,0.0,4.3588,4.5232,0.0,0.0,4.289,4.2711,4.3669,4.3716,4.4028,4.4766,4.583,4.7029,4.8278,4.9113,5.0042,5.1088,5.0072,4.9664,4.9824,4.8052,4.7291,4.7428,4.6393,4.6055,4.6306,4.5108,4.5336,4.6384,4.3983,4.2442,4.1507,4.0499,4.0148,4.0275,4.0828,4.1004,4.0979,0.0,0.0,0.0,0.0,0.0,0.0,0.0,0.0,0.0,0.0,0.0,3.2792,3.4276,3.5757,3.6861,3.7414,3.7312,3.6257,3.4048,0.0,0.0,0.0,3.1491,3.3022,3.5253,3.799,3.9737,4.0439,4.3255,4.4328,4.3718,4.4259,4.4858,4.5388,4.4427,4.4338,4.4719,4.158,3.9396,3.7864,3.6006,3.5931,3.6808,0.0,0.0,0.0,0.0,0.0,0.0,0.0,0.0,0.0,0.0,0.0,0.0,0.0,0.0,0.0,0.0,0.0,0.0,0.0,0.0,0.0,0.0,0.0,0.0,0.0,0.0,0.0,0.0,0.0,0.0,0.0,0.0,0.0,0.0,0.0,4.595,4.6332,4.7821,4.8172,4.6624,4.541,4.5107,4.606,4.6222,4.6803,4.7933,4.8837,4.9916,5.1189,5.0992,5.1206,5.1921,4.9985,4.8974,4.8938,4.6955,4.5998,4.5998,4.4953,4.4752,4.5158,4.4124,4.5056,4.7139,4.593,4.5154,4.4597,4.341,4.2657,4.2283,4.3039,4.319,4.2964,0.0,0.0,0.0,0.0,0.0,0.0,0.0,0.0,0.0,0.0,3.224,3.4352,3.5483,3.7638,3.9647,4.1227,3.8843,3.6759,3.5608,3.2968,0.0,0.0,3.3298,3.5807,3.8115,4.0879,4.2224,4.2106,4.5014,4.5471,4.3678,4.4286,4.5518,4.7112,4.5336,4.5549,4.7074,4.5417,4.2858,3.9722,3.7436,3.7135,3.7889,0.0,0.0,0.0,0.0,0.0,0.0,0.0,0.0,0.0,0.0,0.0,0.0,0.0,0.0,0.0,0.0,0.0,0.0,0.0,0.0,0.0,0.0,0.0,0.0,0.0,0.0,0.0,0.0,0.0,0.0,0.0,0.0,0.0,4.0483,4.4738,4.7589,4.7457,4.8088,4.8037,4.6732,4.656,4.6753,4.7274,4.8837,5.0218,5.1356,5.1807,5.23,5.2826,5.0952,4.9914,4.9914,4.7927,4.6941,4.6904,4.494,4.4021,4.3945,4.2062,4.1917,4.3239,4.3218,4.512,4.8196,4.7664,4.8297,4.9414,4.723,4.605,4.5573,4.5573,4.5171,4.4489,0.0,0.0,0.0,0.0,0.0,0.0,0.0,0.0,0.0,0.0,3.3348,3.5807,3.7739,4.0301,4.206,4.2484,4.0024,3.7764,3.6234,0.0,0.0,3.3524,3.5079,3.7713,4.153,4.3592,4.534,4.6897,4.8114,4.8407,4.7937,4.8085,4.8441,4.888,4.8377,4.8441,4.8862,4.8008,4.6652,4.4715,4.0927,3.932,3.9094,0.0,0.0,0.0,0.0,0.0,0.0,0.0,0.0,0.0,0.0,0.0,0.0,0.0,0.0,0.0,0.0,0.0,0.0,0.0,0.0,0.0,0.0,0.0,0.0,0.0,0.0,0.0,0.0,0.0,0.0,0.0,0.0,4.2975,4.3625,4.6404,4.8859,5.0204,5.1426,5.1888,5.1191,5.1086,5.1289,5.185,5.2703,5.3366,5.3692,5.237,5.1512,5.1367,4.9388,4.8327,4.8327,4.6046,4.5036,4.5318,4.3086,4.2023,4.1985,4.1424,4.1404,4.1747,4.1428,4.3378,4.6745,4.628,4.7993,5.0645,4.8812,4.7757,4.723,4.723,4.6652,4.562,0.0,0.0,0.0,0.0,0.0,0.0,0.0,0.0,0.0,0.0,3.4402,3.7237,3.9044,4.1708,4.3237,4.3014,4.0502,3.8065,3.6158,0.0,0.0,3.568,3.7939,4.0431,4.3115,4.5025,4.6062,4.6206,4.7312,4.742,4.6685,4.7522,4.8342,4.9042,4.9099,4.9587,5.0268,4.969,4.8615,4.6983,4.3937,4.203,4.0817,3.9786,3.9157,3.8783,3.8291,3.8592,3.9019,3.7562,0.0,0.0,0.0,0.0,0.0,0.0,0.0,0.0,0.0,0.0,0.0,0.0,0.0,0.0,0.0,0.0,0.0,0.0,0.0,0.0,0.0,0.0,0.0,0.0,4.4543,4.6747,4.6837,4.8942,5.0703,5.1331,5.2555,5.2824,5.1621,5.2368,5.3018,5.3348,5.4348,5.463,5.3936,5.2319,5.0982,5.0077,4.7893,4.6746,4.6746,4.4503,4.35,4.3744,4.219,4.1426,4.1426,4.1289,4.1211,0.0,4.1782,4.3735,4.6581,4.7173,4.9101,0.0,0.0,0.0,0.0,0.0,4.6367,4.5555,0.0,0.0,0.0,0.0,0.0,0.0,0.0,0.0,0.0,0.0,0.0,3.8417,3.9496,4.2057,4.3514,4.3039,4.0502,3.799,0.0,0.0,3.5931,3.7864,4.1266,4.337,4.386,4.5715,4.5471,4.3114,4.4763,4.4727,4.3151,4.5158,4.6978,4.8619,4.8929,4.9996,5.1523,5.0764,4.9383,4.7556,4.6341,4.4563,4.2525,4.1623,4.125,4.1122,4.0684,4.0416,4.0074,3.8868,0.0,0.0,0.0,0.0,0.0,0.0,0.0,0.0,0.0,0.0,0.0,0.0,0.0,0.0,0.0,0.0,0.0,0.0,0.0,0.0,0.0,0.0,0.0,0.0,4.7739,4.9798,5.0092,5.1724,5.247,5.1329,5.2015,5.1969,5.0316,5.1924,5.3191,5.3456,5.4623,5.4684,5.3167,0.0,0.0,0.0,0.0,4.5179,4.5117,4.338,4.25,4.246,4.2129,4.1914,4.1855,4.1484,4.1328,4.1347,4.3098,4.4907,4.6809,4.8614,5.0169,5.134,5.0498,4.9717,4.8738,4.609,4.5078,0.0,0.0,0.0,0.0,0.0,0.0,0.0,0.0,0.0,0.0,3.2638,3.5805,3.8266,3.8994,4.1507,4.3115,4.3014,4.0502,3.8517,0.0,3.7437,3.8919,4.2359,4.3454,4.4825,4.6679,4.6438,4.6227,4.6175,4.6482,4.6505,4.619,4.8205,4.957,5.0401,5.1972,5.2894,5.3127,5.1428,4.9969,4.8635,4.6848,4.4559,4.2155,4.1482,4.1383,4.1512,4.1004,4.2033,4.3438,4.1909,4.1668,4.1805,4.0336,0.0,0.0,0.0,0.0,0.0,0.0,0.0,0.0,0.0,0.0,0.0,0.0,0.0,0.0,0.0,0.0,0.0,0.0,0.0,0.0,4.8366,4.9825,5.0997,5.3157,5.3028,5.2195,5.0742,5.0748,5.163,5.3436,5.4012,5.5001,5.6811,5.5578,5.4612,5.4283,5.0734,0.0,4.7361,4.5149,4.3893,4.3536,4.3152,4.2949,4.2949,0.0,0.0,4.2265,4.2187,4.1992,4.1719,4.2092,4.3133,4.4677,4.5089,4.608,4.7426,4.8349,4.7449,4.5588,4.5027,4.4324,4.3388,0.0,0.0,0.0,0.0,0.0,0.0,0.0,0.0,0.0,0.0,3.5479,3.7412,3.7989,4.0024,4.1029,4.0175,3.8592,0.0,3.8441,3.9722,4.1671,4.4299,4.531,4.5786,4.5694,4.5515,4.5191,4.4712,4.4712,4.4712,4.4751,4.678,4.785,4.8209,5.0396,5.136,5.1287,5.0304,4.9002,4.7448,4.6255,4.4246,4.2017,4.2678,4.2437,4.1772,4.1878,4.2364,4.2782,4.1447,4.0669,4.0056,3.8934,3.6952,3.4883,0.0,0.0,0.0,0.0,0.0,0.0,0.0,0.0,0.0,0.0,0.0,0.0,0.0,0.0,3.5541,0.0,0.0,4.4289,4.8754,5.061,5.1649,5.2176,5.1982,5.1396,5.0384,5.047,5.1249,5.2693,5.2798,5.3702,5.5999,5.4793,5.3541,5.2458,4.9879,4.7776,4.6345,4.504,4.4258,4.4062,4.4043,4.3945,4.373,4.3496,4.3281,4.3047,4.2577,4.2422,4.2482,4.3038,4.3664,4.4449,4.5213,4.5385,4.522,4.5908,4.5734,4.4922,4.3761,4.3073,4.236,0.0,0.0,0.0,0.0,0.0,0.0,0.0,0.0,0.0,0.0,3.5002,3.6408,3.681,3.8165,3.8492,0.0,0.0,3.7788,3.9572,4.2286,4.4393,4.5699,4.6899,4.6531,4.4381,4.4372,4.383,4.2635,4.2635,4.2635,4.2716,4.4693,4.57,4.5922,4.8238,4.9245,4.9268,4.888,4.7704,4.6081,4.537,4.3896,4.2309,4.3653,4.332,4.2165,4.264,4.2213,4.1272,4.0588,3.9254,3.7868,3.758,3.6414,3.4905,3.3531,3.2582,0.0,0.0,0.0,0.0,0.0,0.0,0.0,0.0,0.0,3.6619,3.606,3.6036,3.7173,4.0551,4.3083,4.5681,4.884,5.084,5.1628,5.052,5.0372,5.0254,4.9898,5.011,5.0476,5.1001,5.0958,5.185,5.4188,5.3471,5.2149,5.0435,4.9104,4.7648,4.5887,4.5371,4.5117,4.4977,4.5117,4.4941,4.4512,4.4141,4.3965,4.3926,4.3123,4.2949,4.3267,4.3847,4.4135,4.4209,4.5395,4.494,4.3549,4.3549,4.397,4.4344,4.2407,4.1653,4.1348,0.0,0.0,0.0,0.0,0.0,0.0,0.0,0.0,0.0,0.0,0.0,0.0,0.0,0.0,0.0,0.0,3.7939,4.0224,4.2411,4.5121,4.7227,4.8491,4.8007,4.7085,4.5804,4.414,4.3369,4.3555,4.3555,4.3555,4.3596,4.5615,4.683,4.7328,4.9337,5.0248,5.013,4.838,4.7241,4.6483,4.4641,4.3741,4.342,4.2842,4.2839,4.3099,4.2758,4.2063,4.1412,4.2089,4.1018,3.9556,4.017,3.8718,3.6582,3.513,3.3008,3.1233,3.2114,0.0,0.0,3.9682,3.9558,3.8845,0.0,0.0,3.7417,3.7168,3.7978,3.9906,4.3555,4.5445,4.7722,5.1448,5.1097,5.0605,5.1247,4.9696,4.8652,4.9006,4.8396,4.8726,5.0739,5.0914,5.185,5.4038,5.2348,5.1071,5.083,4.8449,4.6821,4.625,4.582,4.541,4.4996,4.541,4.5391,4.4918,4.486,4.484,4.4863,4.4394,4.3984,4.3574,4.2564,4.2132,4.2112,4.1951,4.1734,4.1502,4.1502,4.1597,4.1613,4.091,4.042,4.0105,0.0,0.0,0.0,0.0,0.0,0.0,0.0,0.0,0.0,0.0,0.0,0.0,0.0,0.0,0.0,3.5054,3.7914,4.0777,4.3288,4.5533,4.7308,4.8543,4.7393,4.6185,4.5086,4.4283,4.4043,4.4473,4.4473,4.4609,4.4886,4.571,4.6351,4.6859,4.791,4.7547,4.6098,4.5295,4.3921,4.224,4.0953,4.0223,3.977,3.8867,3.8084,3.7745,3.9603,3.9718,0.0,0.0,3.8217,3.7665,3.8241,3.7016,3.526,3.4633,3.2961,3.1661,3.3499,3.7056,0.0,0.0,4.035,4.0641,3.9465,3.9315,3.9546,3.9867,4.0937,4.2623,4.5161,4.6532,4.786,0.0,4.9643,4.9527,4.9934,4.9195,4.8476,4.819,4.8008,4.8957,5.1512,5.0547,5.0706,5.2969,5.1019,4.9637,4.9331,4.8294,4.748,4.7051,4.6621,4.6445,4.6504,4.6445,4.6191,4.5762,4.5762,4.5644,4.5391,4.4961,4.4512,4.4062,4.3262,4.2617,4.2129,4.1719,4.1387,4.1211,4.1211,4.1211,4.1152,4.0684,4.041,4.0234,0.0,0.0,0.0,0.0,0.0,0.0,0.0,0.0,0.0,0.0,0.0,0.0,0.0,0.0,0.0,3.4703,3.7638,4.0701,4.3614,4.5225,4.682,4.8401,4.6905,4.5595,4.4769,4.4863,4.5137,4.5504,4.5664,4.5898,4.6191,4.6191,4.6367,4.6616,4.6222,4.5018,4.3197,4.2513,4.1103,3.9342,3.8719,3.8092,3.7332,3.6047,3.4903,3.4349,3.6589,3.654,0.0,0.0,3.5332,3.5254,3.5918,3.5385,3.4407,3.4036,3.2964,3.2542,3.5294,3.8564,4.1131,4.0982,4.1592,4.1979,4.1151,4.1284,4.1877,4.2858,4.3867,4.5058,4.6543,4.7324,4.7891,4.832,4.8698,4.8913,4.8913,4.8698,4.8268,4.75,4.7461,4.8375,5.0501,4.9511,4.9471,5.1306,4.9865,4.8776,4.8398,4.8281,4.8066,4.7754,4.7344,4.7266,4.7623,4.7266,4.6953,4.666,4.6406,4.6211,4.5996,4.5449,4.5039,4.4707,4.4004,4.3359,4.2734,4.207,4.1621,4.1328,4.125,4.1211,4.1172,4.082,4.0703,4.0664,0.0,0.0,0.0,0.0,0.0,0.0,0.0,0.0,0.0,0.0,0.0,0.0,0.0,0.0,3.4703,3.4703,3.7287,4.0326,4.3589,4.4587,4.6216,4.887,4.7058,4.5902,4.5691,4.6035,4.6445,4.6831,4.7305,4.7519,4.7519,4.7519,4.7519,4.7449,4.491,4.3748,4.35,4.1031,3.9956,3.9829,3.9498,3.9013,3.8224,3.5975,3.5433,3.5795,3.472,0.0,0.0,0.0,3.3606,3.3105,3.4375,3.5039,3.5098,3.3809,3.3246,3.3848,3.7479,3.8552,3.9691,4.4193,4.3353,4.199,4.4135,4.412,4.4084,4.5801,4.6523,4.7065,4.7988,4.8164,4.832,4.8815,4.8894,4.8913,4.8913,4.819,4.7441,4.6992,4.623,4.5961,0.0,4.7545,4.8444,4.8966,4.894,4.8894,4.8894,4.8437,4.8203,4.8183,4.7773,4.7578,4.7578,4.7578,4.7558,4.7539,4.6699,4.6504,4.6855,4.6035,4.5688,4.5609,4.4258,4.3691,4.3574,4.2305,4.1797,4.1738,4.1328,4.1211,4.1211,4.1191,4.1191,4.1191,0.0,0.0,0.0,0.0,0.0,0.0,0.0,0.0,0.0,0.0,0.0,0.0,0.0,0.0,0.0,0.0,3.685,3.8392,4.0554,4.1279,4.2583,4.4783,4.4917,4.5046,4.5234,4.5937,4.6504,4.6889,4.707,4.7441,4.7943,4.629,4.5621,4.5742,4.321,4.1062,3.9388,3.8552,3.6955,3.4972,3.4237,3.3475,3.2568,3.0408,2.981,3.0084,0.0,0.0,0.0,0.0,0.0,3.2531,3.3203,3.3359,3.3078,3.2031,3.3175,3.5113,3.663,3.9822,4.2914,4.386,4.4647,4.5281,4.5722,4.5579,4.584,4.7266,4.7012,4.668,4.7201,4.7129,4.709,4.75,4.8301,4.8913,4.8913,4.8867,4.8183,4.6308,4.6348,0.0,0.0,0.0,0.0,4.8359,4.8418,4.8555,4.8894,4.8757,4.8633,4.8633,4.8223,4.8125,4.8464,4.8144,4.7851,4.7578,4.6719,4.6367,4.6504,4.623,4.6094,4.6055,4.5332,4.4687,4.4082,4.3066,4.2305,4.1758,4.1387,4.1211,4.1211,4.1211,4.1211,4.1211,0.0,0.0,0.0,0.0,0.0,0.0,0.0,0.0,0.0,0.0,0.0,0.0,0.0,0.0,0.0,0.0,0.0,3.678,3.8095,3.802,3.9038,4.1545,4.1492,4.1816,4.2695,4.3262,4.3906,4.4587,4.4198,4.4486,4.5414,4.3163,4.2323,4.2555,4.0116,3.8102,3.6463,3.5531,3.3729,3.143,3.0608,2.992,2.9158,2.7268,2.7246,0.0,0.0,0.0,0.0,0.0,0.0,3.1788,3.2031,3.1934,3.1749,3.1777,3.3932,3.6686,3.8423,4.187,4.5057,4.5399,4.627,4.7004,4.6983,4.6992,4.7129,4.7637,4.6855,4.6074,4.6035,4.541,4.5215,4.607,4.6816,4.7584,4.8346,4.8262,4.7598,4.6074,4.6113,4.5996,0.0,0.0,0.0,4.8105,4.8203,4.8398,4.8874,4.8913,4.8913,4.8913,4.864,4.8574,4.8913,4.8574,4.8144,4.7578,4.6855,4.6445,4.6308,4.6308,4.6308,4.6289,4.5859,4.5273,4.4551,4.3496,4.2656,4.1973,4.1387,4.1211,4.1211,4.1211,4.1211,4.1211,0.0,0.0,0.0,0.0,0.0,0.0,0.0,0.0,0.0,0.0,0.0,0.0,0.0,0.0,0.0,0.0,0.0,0.0,3.6153,3.4977,3.5724,3.907,3.7166,3.6777,3.8435,3.8532,3.9084,4.0238,3.9175,3.915,4.0144,3.8486,3.7849,3.8025,3.5723,3.4712,3.453,3.2061,3.0368,2.9316,2.877,2.8453,2.8186,2.6822,0.0,0.0,0.0,0.0,0.0,3.0898,3.0898,3.0918,3.0957,3.0996,3.1387,3.3086,3.555,3.8574,4.2418,4.4396,4.5982,4.8501,4.8067,4.7182,4.8027,4.8164,4.7891,4.6948,4.6074,4.5176,0.0,0.0,4.2909,4.4648,4.4766,4.5351,4.7422,4.666,4.6016,0.0,0.0,0.0,0.0,0.0,0.0,4.8086,0.0,4.8379,4.8874,4.8913,4.8913,4.8913,4.8913,4.8913,4.8913,4.8874,4.8444,4.7578,4.7129,4.6699,4.6308,4.6308,4.6308,4.6289,4.5879,4.5449,4.4879,4.3672,4.2871,4.2304,4.1523,4.123,4.1211,4.1211,4.1211,4.1211,0.0,0.0,0.0,0.0,0.0,0.0,0.0,0.0,0.0,0.0,0.0,0.0,0.0,0.0,0.0,0.0,0.0,0.0,3.2432,3.2285,3.2794,3.4035,3.5336,3.623,3.666,3.7305,3.7391,3.6922,3.6645,3.624,3.5681,3.356,3.2622,3.2595,3.0301,2.9299,2.9257,2.8566,2.7856,2.7243,0.0,2.7864,2.7422,0.0,0.0,0.0,0.0,0.0,3.0898,3.0898,3.1094,3.1426,3.1768,3.2531,3.3625,3.5332,3.7704,4.0187,4.2147,4.4528,4.6741,4.7745,4.8199,4.834,4.8223,4.7715,4.6792,4.5351,4.3594,4.1895,4.037,4.1113,0.0,4.3398,4.5942,0.0,4.9355,4.9238,0.0,4.7402,0.0,4.6719,4.6191,4.6426,0.0,0.0,4.791,4.8112,4.8855,4.8913,4.8913,4.8913,4.8913,4.8913,4.8913,4.8535,4.8105,4.7578,4.7129,4.6699,4.6308,4.6308,4.6308,4.6289,4.6191,4.5723,4.4938,4.4336,4.3418,4.2343,4.1836,4.1445,4.1211,4.1211,4.1211,4.1211,0.0,0.0,0.0,0.0,0.0,0.0,0.0,0.0,0.0,0.0,0.0,0.0,0.0,0.0,0.0,0.0,0.0,0.0,0.0,2.9996,3.0293,3.0723,3.1953,3.2483,3.2201,3.2485,3.2376,3.1797,3.096,3.0608,3.0605,2.8451,2.7528,2.765,2.6564,2.6106,2.6119,2.6253,0.0,0.0,0.0,0.0,0.0,0.0,0.0,0.0,0.0,3.0602,3.1777,3.2198,3.2441,3.2812,3.386,3.4916,3.6172,3.8301,4.0351,4.2324,4.418,4.6348,4.8164,4.8613,4.8926,4.8789,4.7402,4.6582,4.5293,4.2441,4.0586,3.9004,3.7461,3.8789,4.0566,4.2051,0.0,0.0,4.9441,4.9637,4.9316,0.0,4.8437,0.0,4.7773,4.793,4.834,0.0,4.8496,4.8483,4.9121,4.916,4.916,4.916,4.9011,4.8913,4.8913,4.8418,4.7988,4.7578,4.7129,4.6699,4.6308,4.6308,4.6308,4.6308,0.0,4.582,4.4957,4.457,4.373,4.2676,4.2246,4.1933,4.1719,4.1719,4.1719,4.1719,0.0,0.0,0.0,0.0,0.0,0.0,0.0,0.0,0.0,0.0,0.0,0.0,0.0,0.0,0.0,0.0,0.0,0.0,0.0,0.0,2.8376,2.8536,2.8207,2.7643,2.6828,2.6496,2.6232,2.6121,2.4487,2.4242,2.526,2.3631,2.3046,2.3362,0.0,0.0,0.0,0.0,0.0,0.0,0.0,0.0,0.0,0.0,0.0,0.0,3.0898,3.1601,3.2734,3.4036,3.4525,3.4916,3.6641,3.7832,3.9101,4.166,4.3262,4.4746,4.7187,4.8711,4.9687,5.0019,4.9687,4.8594,4.5996,4.4902,4.3242,3.9023,3.7461,3.6504,3.5273,3.6582,3.8594,4.0879,4.383,4.6587,4.8835,4.9167,4.9258,4.9648,4.964,4.9668,4.9629,4.9562,4.9766,5.0156,4.9558,4.9258,4.959,4.9504,4.9492,4.9433,4.9062,4.8913,4.8913,4.8476,4.8086,4.7656,4.7285,4.6875,4.6465,4.6406,4.6387,4.6387,0.0,0.0,4.5078,4.4648,4.3965,4.3125,4.2676,4.244,4.2382,4.2382,4.2382,4.2382,0.0,0.0,0.0,0.0,0.0,0.0,0.0,0.0,0.0,0.0,0.0,0.0,0.0,0.0,0.0,0.0,0.0,0.0,0.0,0.0,0.0,2.6646,2.6518,2.5826,2.4424,2.4345,2.3698,2.2496,2.2178,2.151,2.058,2.0688,2.0771,2.0837,0.0,0.0,0.0,0.0,0.0,0.0,0.0,0.0,0.0,0.0,0.0,0.0,3.0898,3.1035,3.1738,3.5111,3.668,3.7559,3.9297,4.0937,4.2617,4.4863,4.6172,4.7246,4.8769,4.9609,5.0,4.9707,4.8769,4.7246,4.4629,4.2617,4.0273,3.668,3.5254,3.4388,3.3418,3.5527,3.834,4.123,4.4219,4.7187,5.0058,5.0469,5.0488,5.0566,5.0586,5.0449,5.0098,5.0058,0.0,0.0,0.0,0.0,5.0078,4.9726,4.9355,4.9031,4.8952,4.8913,4.8913,4.8835,4.8535,4.8105,4.8027,4.7754,4.7344,4.6992,4.6816,4.6753,0.0,0.0,4.5527,4.5098,4.4394,4.3555,4.3125,4.2754,4.2382,4.2382,4.2382,4.2382,0.0,0.0,0.0,0.0,0.0,0.0,0.0,0.0,0.0,0.0,0.0,0.0,0.0,0.0,0.0,0.0,0.0,0.0,0.0,0.0,0.0,0.0,0.0,0.0,2.2674,2.279,0.0,0.0,0.0,0.0,0.0,0.0,0.0,0.0,0.0,0.0,0.0,0.0,0.0,0.0,0.0,0.0,0.0,0.0,0.0,0.0,0.0,3.1328,3.2266,3.4805,3.7266,3.965,4.2069,4.3887,4.5371,4.6855,4.7754,4.8522,4.957,5.0176,5.0449,5.0234,4.8867,4.666,4.3183,4.0723,3.803,3.418,3.3047,3.2559,3.1914,3.4453,3.7324,3.9434,4.2324,4.5488,4.8965,4.9258,4.9629,5.0976,5.1133,5.1055,5.0859,5.082,0.0,0.0,0.0,0.0,5.0527,5.0098,4.9668,4.9219,4.9031,4.8913,4.8913,4.8913,4.8633,4.8203,4.8203,4.7988,4.7558,4.7129,4.6889,4.687,0.0,0.0,4.5644,4.5195,4.4648,4.4023,4.3574,4.3281,4.3086,4.3086,4.3086,4.3125,0.0,0.0,0.0,0.0,0.0,0.0,0.0,0.0,0.0,0.0,0.0,0.0,0.0,0.0,0.0,0.0,0.0,0.0,0.0,0.0,0.0,0.0,0.0,0.0,0.0,0.0,0.0,0.0,0.0,0.0,0.0,0.0,0.0,0.0,0.0,0.0,0.0,0.0,0.0,0.0,0.0,0.0,0.0,0.0,0.0,0.0,0.0,3.1543,3.2617,3.418,3.6797,3.9941,4.2851,4.525,4.7168,4.7656,4.8437,4.9363,5.0098,5.0625,5.0898,5.0723,4.8848,4.5957,4.1875,3.9004,3.6079,3.2187,3.1387,3.1328,3.1191,3.3437,3.5864,3.7601,4.0118,4.3301,4.7363,4.7969,4.8887,5.1289,5.1738,0.0,5.1582,5.1582,0.0,0.0,0.0,0.0,5.082,5.0488,5.0078,4.9504,4.918,4.8991,4.8913,4.8913,4.8737,4.834,4.834,4.8164,4.7832,4.7402,4.7104,4.7051,0.0,0.0,0.0,4.5351,4.4922,4.4492,4.4043,4.3789,4.3711,4.3808,4.3848,4.3926,0.0,0.0,0.0,0.0,0.0,0.0,0.0,0.0,0.0,0.0,0.0,0.0,0.0,0.0,0.0,0.0,0.0,0.0,0.0,0.0,0.0,0.0,0.0,0.0,0.0,0.0,0.0,0.0,0.0,0.0,0.0,0.0,0.0,0.0,0.0,0.0,0.0,0.0,0.0,0.0,0.0,0.0,0.0,0.0,0.0,0.0,0.0,3.0976,3.1445,3.3887,3.5215,3.6309,3.8926,4.332,4.7383,4.668,4.8183,5.0156,5.0625,5.1055,5.1191,5.043,4.7734,4.4336,4.082,3.7402,3.4219,3.1504,3.0957,3.1172,3.1944,3.2648,3.416,3.7367,3.916,4.1738,4.6343,4.8333,5.0019,5.1816,5.2715,0.0,5.209,5.2031,0.0,0.0,0.0,0.0,0.0,5.0762,5.0371,4.9551,4.9445,4.9277,4.8913,4.8913,4.8894,4.8855,4.8855,4.8815,4.8776,4.8281,4.7871,4.75,0.0,0.0,0.0,4.5781,4.5351,4.4879,4.4492,4.4082,4.375,4.418,4.4336,4.4394,0.0,0.0,0.0,0.0,0.0,0.0,0.0,0.0,0.0,0.0,0.0,0.0,0.0,0.0,0.0,0.0,0.0,0.0,0.0,0.0,0.0,0.0,0.0,0.0,0.0,0.0,0.0,0.0,0.0,0.0,0.0,0.0,0.0,0.0,0.0,0.0,0.0,0.0,0.0,0.0,0.0,0.0,0.0,0.0,0.0,0.0,0.0,0.0,3.1055,3.207,3.3379,3.4681,3.4916,3.8317,4.2558,4.457,4.6426,4.8223,4.9961,5.0918,5.123,5.0391,4.7187,4.3476,4.0566,3.6797,3.3359,3.1309,3.0898,3.0996,3.1328,3.1738,3.2812,3.5215,3.582,3.7656,4.2362,4.3672,4.5508,4.9297,5.0527,5.1426,0.0,0.0,0.0,0.0,0.0,0.0,0.0,5.0937,5.0644,5.0312,4.9738,4.9433,4.9258,4.9031,4.8913,4.8913,4.8913,4.8913,4.8874,4.8144,4.7734,0.0,0.0,0.0,0.0,4.584,4.5566,4.5371,4.4941,4.4668,4.4512,4.4707,4.4766,4.4844,0.0,0.0,0.0,0.0,0.0,0.0,0.0,0.0,0.0,0.0,0.0,0.0,0.0,0.0,0.0,0.0,0.0,0.0,0.0,0.0,0.0,0.0,0.0,0.0,0.0,0.0,0.0,0.0,0.0,0.0,0.0,0.0,0.0,0.0,0.0,0.0,0.0,0.0,0.0,0.0,0.0,0.0,0.0,0.0,0.0,0.0,0.0,0.0,0.0,0.0,0.0,3.3,3.2101,3.3977,3.7305,4.1465,4.4219,4.6426,4.8769,5.0312,5.1074,5.0351,4.6816,4.2891,4.0449,3.6445,3.2793,3.1211,3.0898,3.0898,3.0898,3.1133,3.1855,3.3437,3.375,3.5371,3.9883,4.0957,4.291,4.7305,0.0,4.9746,0.0,0.0,0.0,0.0,0.0,0.0,0.0,5.1152,5.0937,5.0801,5.0098,4.9648,4.9484,4.9082,4.8913,4.8913,4.8913,4.8913,4.8874,4.8268,4.7812,0.0,0.0,0.0,0.0,4.5976,4.5781,4.5688,4.5332,4.5137,4.4996,4.5176,4.5215,4.5273,0.0,0.0,0.0,0.0,0.0,0.0,0.0,0.0,0.0,0.0,0.0,0.0,0.0,0.0,0.0,0.0,0.0,0.0,0.0,0.0,0.0,0.0,0.0,0.0,0.0,0.0,0.0,0.0,0.0,0.0,0.0,0.0,0.0,0.0,0.0,0.0,0.0,0.0,0.0,0.0,0.0,0.0,0.0,0.0,0.0,0.0,0.0,0.0,0.0,0.0,0.0,0.0,0.0,3.123,3.2519,3.7281,4.168,4.541,4.7129,4.918,5.0703,5.0293,4.6601,4.2519,4.0391,3.6211,3.2441,3.1152,3.0898,3.0898,3.0898,3.0898,3.1309,3.2598,3.3867,3.6055,3.9943,4.1973,4.4023,4.6641,4.7324,4.8327,5.0086,0.0,0.0,0.0,0.0,0.0,0.0,0.0,5.123,5.082,5.0391,4.9961,4.9484,4.9082,4.8913,4.8913,4.8913,4.8913,4.8913,4.8894,0.0,0.0,0.0,0.0,0.0,4.6289,4.6055,4.5727,4.5664,4.541,4.5078,4.5508,4.5664,4.5766,0.0,0.0,0.0,0.0,0.0,0.0,0.0,0.0,0.0,0.0,0.0,0.0,0.0,0.0,0.0,0.0,0.0,0.0,0.0,0.0,0.0,0.0,0.0,0.0,0.0,0.0,0.0,0.0,0.0,0.0,0.0,0.0,0.0,0.0,0.0,0.0,0.0,0.0,0.0,0.0,0.0,0.0,0.0,0.0,0.0,0.0,0.0,0.0,0.0,0.0,0.0,0.0,0.0,0.0,0.0,3.3926,3.7461,4.1055,4.3086,4.4551,4.5273,4.4319,4.1387,3.8396,3.7109,3.4277,3.1719,3.1035,3.0898,3.0898,3.0898,3.0898,3.1601,3.375,3.4434,3.5742,3.8769,4.1172,4.3711,4.6538,5.0449,5.2969,0.0,0.0,0.0,0.0,0.0,0.0,0.0,0.0,5.1319,5.1182,5.082,5.041,4.998,4.9531,4.916,4.8913,4.8913,4.8913,4.8894,0.0,0.0,0.0,0.0,0.0,0.0,4.6738,4.6484,4.6113,4.6113,4.6016,4.5918,4.6055,4.6113,4.6172,0.0,0.0,0.0,0.0,0.0,0.0,0.0,0.0,0.0,0.0,0.0,0.0,0.0,0.0,0.0,0.0,0.0,0.0,0.0,0.0,0.0,0.0,0.0,0.0,0.0,0.0,0.0,0.0,0.0,0.0,0.0,0.0,0.0,0.0,0.0,0.0,0.0,0.0,0.0,0.0,0.0,0.0,0.0,0.0,0.0,0.0,0.0,0.0,0.0,0.0,0.0,0.0,0.0,0.0,0.0,0.0,3.4258,3.6973,3.9629,4.1211,4.1914,4.1133,3.8826,3.648,3.5586,3.3379,3.1406,3.0976,3.0898,3.0898,3.0898,3.0898,3.1465,3.3223,3.3906,3.5117,3.7734,4.0469,4.3455,4.6948,5.1367,0.0,0.0,0.0,0.0,0.0,0.0,0.0,0.0,0.0,5.1377,5.1377,5.1016,5.0605,5.0176,4.9746,4.9297,4.8913,4.8913,4.8913,4.8894,0.0,0.0,0.0,0.0,0.0,0.0,4.7168,4.6914,4.6543,4.6543,4.6445,4.6328,4.6484,4.6445,4.6367,0.0,0.0,0.0,0.0,0.0,0.0,0.0,0.0,0.0,0.0,0.0,0.0,0.0,0.0,0.0,0.0,0.0,0.0,0.0,0.0,0.0,0.0,0.0,0.0,0.0,0.0,0.0,0.0,2.1074,2.1177,2.1122,0.0,0.0,0.0,0.0,0.0,0.0,0.0,0.0,0.0,0.0,0.0,0.0,0.0,0.0,0.0,0.0,0.0,0.0,0.0,0.0,0.0,0.0,0.0,0.0,0.0,0.0,0.0,0.0,3.8635,3.9961,3.9865,3.8047,3.6089,3.5254,3.3203,0.0,3.0976,3.0898,3.0918,3.0976,3.0937,3.1094,3.1699,3.2762,3.444,3.707,4.0234,4.3848,4.7988,5.0801,0.0,0.0,0.0,0.0,0.0,0.0,0.0,0.0,0.0,0.0,5.1377,5.1016,5.0605,5.0176,4.9785,4.9336,4.8913,4.8913,4.8913,4.8913,0.0,0.0,0.0,0.0,0.0,0.0,4.7617,4.7344,4.6889,4.6889,4.668,4.6348,4.6738,4.6641,4.6367,0.0,0.0,0.0,0.0,0.0,0.0,0.0,0.0,0.0,0.0,0.0,0.0,0.0,0.0,0.0,0.0,0.0,0.0,0.0,0.0,0.0,0.0,0.0,0.0,0.0,0.0,0.0,2.0712,2.2006,2.21,2.1141,2.2474,0.0,0.0,0.0,0.0,0.0,0.0,0.0,0.0,0.0,0.0,0.0,0.0,0.0,0.0,0.0,0.0,0.0,0.0,0.0,0.0,0.0,0.0,0.0,0.0,3.1172,0.0,3.2324,0.0,3.4453,3.3757,3.293,3.2207,0.0,3.1484,3.1016,3.0918,3.0898,3.1094,3.1768,3.1358,3.168,3.4101,3.4726,3.582,3.8398,4.3633,4.8183,5.0859,5.375,5.5019,0.0,0.0,0.0,0.0,0.0,0.0,0.0,0.0,0.0,5.1377,5.1016,5.0605,5.0176,5.0078,4.9629,4.8913,4.8913,4.8913,4.8913,0.0,0.0,0.0,0.0,0.0,0.0,4.8066,4.7617,4.6889,4.6889,4.668,4.6308,4.6406,4.6387,4.6367,0.0,0.0,0.0,0.0,0.0,0.0,0.0,0.0,0.0,0.0,0.0,0.0,0.0,0.0,0.0,0.0,0.0,0.0,0.0,0.0,0.0,0.0,0.0,0.0,0.0,0.0,0.0,0.0,0.0,2.3556,0.0,0.0,0.0,0.0,0.0,0.0,0.0,0.0,0.0,0.0,0.0,0.0,0.0,0.0,0.0,0.0,0.0,0.0,0.0,3.1367,3.123,3.0957,0.0,0.0,0.0,0.0,0.0,0.0,3.0898,3.1543,3.209,3.1641,3.1348,3.1172,3.1172,3.1035,3.0898,3.0898,3.0898,3.1035,3.1534,3.1553,3.207,3.3906,3.5039,3.7129,4.1289,4.5742,4.9648,5.2617,5.459,0.0,0.0,0.0,0.0,0.0,0.0,0.0,0.0,0.0,0.0,0.0,5.1211,5.0801,5.0243,4.998,4.9531,4.8913,4.8913,4.8913,4.8913,0.0,0.0,0.0,0.0,0.0,4.8496,4.8496,4.8008,4.7226,4.7226,4.6855,4.6328,4.6523,4.6465,4.6367,0.0,0.0,0.0,0.0,0.0,0.0,0.0,0.0,0.0,0.0,0.0,0.0,0.0,0.0,0.0,0.0,0.0,0.0,0.0,0.0,0.0,0.0,0.0,0.0,0.0,0.0,0.0,0.0,0.0,0.0,0.0,0.0,0.0,0.0,0.0,0.0,0.0,0.0,0.0,0.0,0.0,0.0,0.0,0.0,0.0,0.0,0.0,0.0,0.0,3.1367,3.123,3.0957,3.1357,0.0,0.0,0.0,0.0,0.0,3.1133,3.1543,3.1836,3.1504,3.1435,3.1474,3.1416,3.1152,3.0898,3.0898,3.0898,3.0996,3.1328,3.1914,3.2667,3.3437,3.5508,3.8947,4.4707,4.7344,4.998,5.3367,5.4512,0.0,0.0,0.0,0.0,0.0,0.0,0.0,0.0,0.0,0.0,0.0,5.1319,5.0957,5.0243,4.9805,4.9375,4.8913,4.8913,4.8913,4.8913,4.8913,0.0,0.0,0.0,0.0,4.8913,4.8913,4.8444,4.7676,4.7598,4.709,4.6426,4.6719,4.6601,4.6348,0.0,0.0,0.0,0.0,0.0,0.0,0.0,0.0,0.0,0.0,0.0,0.0,0.0,0.0,0.0,0.0,0.0,0.0,0.0,0.0,0.0,0.0,0.0,0.0,0.0,0.0,0.0,0.0,0.0,0.0,2.7245,2.9067,2.7886,0.0,0.0,0.0,0.0,0.0,0.0,0.0,0.0,0.0,0.0,0.0,0.0,0.0,0.0,0.0,0.0,3.1367,3.123,3.0957,3.1357,0.0,0.0,0.0,0.0,0.0,3.2207,3.3086,3.3242,3.1445,3.125,3.1396,3.1074,3.0937,3.0898,3.0898,3.0898,3.1445,3.3274,3.3379,3.405,3.6684,3.9513,4.287,0.0,0.0,5.1377,5.2754,0.0,0.0,0.0,0.0,0.0,0.0,0.0,0.0,0.0,0.0,0.0,0.0,0.0,5.0664,5.0176,5.0117,4.9715,4.8913,4.8913,4.8913,4.8913,4.8913,4.8913,0.0,0.0,0.0,4.8913,4.8913,4.86,4.8066,4.7715,4.7266,4.6753,4.6504,4.6367,4.6308,0.0,0.0,0.0,0.0,0.0,0.0,0.0,0.0,0.0,0.0,0.0,0.0,0.0,0.0,0.0,0.0,0.0,0.0,0.0,0.0,0.0,0.0,0.0,0.0,0.0,0.0,0.0,0.0,0.0,3.1261,3.1647,3.0054,2.798,2.547,0.0,0.0,0.0,0.0,0.0,0.0,0.0,0.0,0.0,0.0,0.0,0.0,0.0,0.0,0.0,0.0,3.1055,3.0918,3.1113,0.0,0.0,0.0,0.0,0.0,3.1601,3.2226,3.2617,3.2324,3.2949,3.3379,3.2461,3.2266,3.2324,3.2589,3.2648,3.3078,3.4512,3.5566,3.7344,4.0859,4.3359,4.5723,4.8203,5.0019,0.0,0.0,0.0,0.0,0.0,0.0,0.0,0.0,0.0,0.0,0.0,0.0,0.0,0.0,0.0,0.0,5.0176,4.9941,4.9492,4.8913,4.8913,4.8913,4.8913,4.8913,4.8913,0.0,0.0,4.8913,4.8894,4.8659,4.8262,4.7832,4.7402,4.6973,4.6562,4.6367,4.6308,4.6308,0.0,0.0,0.0,0.0,0.0,0.0,0.0,0.0,0.0,0.0,0.0,0.0,0.0,0.0,0.0,0.0,0.0,0.0,0.0,0.0,0.0,0.0,0.0,0.0,0.0,0.0,2.6729,2.9487,3.1887,3.3973,3.5611,3.1371,2.8636,0.0,0.0,0.0,0.0,0.0,0.0,0.0,0.0,0.0,0.0,0.0,0.0,0.0,0.0,0.0,0.0,0.0,0.0,0.0,0.0,0.0,0.0,3.0898,3.0898,3.0957,3.125,3.1719,3.2324,3.3172,3.4043,3.459,3.4375,3.4069,3.4121,3.4994,3.4994,3.5117,3.6113,3.8203,4.0879,4.4297,4.6523,4.8281,4.957,0.0,0.0,0.0,0.0,0.0,0.0,0.0,0.0,0.0,0.0,0.0,0.0,0.0,0.0,0.0,0.0,0.0,5.0176,4.9746,4.9297,4.8913,4.8913,4.8913,4.8913,4.8913,4.8913,4.8894,4.8796,4.8757,4.8718,4.8242,4.7871,4.7539,4.709,4.668,4.6308,4.6308,4.6308,4.6308,0.0,0.0,0.0,0.0,0.0,0.0,0.0,0.0,0.0,0.0,0.0,0.0,0.0,0.0,0.0,0.0,0.0,0.0,0.0,0.0,0.0,0.0,0.0,0.0,0.0,2.7164,2.9503,3.2041,3.5683,3.7179,3.6577,3.4588,3.2156,2.9514,0.0,0.0,0.0,0.0,0.0,0.0,0.0,0.0,0.0,0.0,0.0,0.0,0.0,0.0,0.0,0.0,0.0,0.0,0.0,0.0,3.0898,3.0898,3.0898,3.1152,3.2324,3.3262,3.3809,3.3496,3.291,3.3234,3.6309,3.6094,3.582,3.7868,3.7617,3.7441,3.8691,4.1348,4.3965,4.5859,4.8613,5.0976,0.0,0.0,0.0,0.0,0.0,0.0,0.0,0.0,0.0,0.0,0.0,0.0,0.0,0.0,0.0,0.0,0.0,0.0,5.0176,4.9746,4.9297,4.8913,4.8913,4.8913,4.8913,4.8913,4.8913,4.8874,4.8437,4.8262,4.8223,4.7793,4.7617,4.7539,4.709,4.668,4.6308,4.6308,4.6308,4.6308,0.0,0.0,0.0,0.0,0.0,0.0,0.0,0.0,0.0,0.0,0.0,0.0,0.0,0.0,0.0,0.0,0.0,0.0,0.0,0.0,0.0,0.0,0.0,2.4453,2.6744,2.8857,3.1478,3.4663,3.6852,3.7226,3.584,3.3074,0.0,0.0,0.0,0.0,0.0,0.0,0.0,0.0,0.0,0.0,0.0,0.0,0.0,0.0,0.0,0.0,0.0,0.0,3.0898,3.0898,3.0898,3.0898,3.0898,3.0898,3.0898,3.0996,3.1484,3.2617,3.3828,3.4492,3.4805,3.5483,3.7266,3.8359,3.9471,4.1093,4.1328,4.1523,4.2285,4.4023,4.5879,4.7617,4.998,5.1953,0.0,0.0,0.0,0.0,0.0,0.0,0.0,0.0,0.0,0.0,0.0,0.0,0.0,0.0,0.0,0.0,0.0,0.0,0.0,4.9336,4.907,4.8913,4.8913,4.8913,4.8913,4.8913,4.8913,4.8874,4.8398,4.8203,4.8164,4.7461,4.7168,4.7129,4.6699,4.6445,4.6308,4.6308,4.6308,4.6308,0.0,0.0,0.0,0.0,0.0,0.0,0.0,0.0,0.0,0.0,0.0,0.0,0.0,0.0,0.0,0.0,0.0,0.0,0.0,0.0,0.0,0.0,0.0,2.628,2.8861,3.0617,3.3056,3.6287,3.7372,3.7051,3.5318,0.0,0.0,0.0,0.0,0.0,0.0,0.0,0.0,0.0,0.0,0.0,0.0,0.0,0.0,0.0,0.0,0.0,0.0,0.0,3.0898,3.0898,3.0898,3.0898,3.0898,3.0898,3.0898,3.0898,3.0898,3.1934,3.3301,3.4473,3.6035,3.775,3.9375,4.0898,4.256,4.4534,4.459,4.4414,4.4746,4.5625,0.0,0.0,5.0996,0.0,0.0,0.0,0.0,0.0,0.0,0.0,0.0,0.0,0.0,0.0,0.0,0.0,0.0,0.0,0.0,0.0,0.0,0.0,0.0,4.9082,4.8913,4.8913,4.8913,4.8913,4.8913,4.8913,4.8913,4.8874,4.8262,4.8008,4.7949,4.709,4.6738,4.6699,4.6426,4.6308,4.6308,4.6308,4.6308,4.6308,0.0,0.0,0.0,0.0,0.0,0.0,0.0,0.0,0.0,0.0,0.0,0.0,0.0,0.0,0.0,0.0,0.0,0.0,0.0,0.0,0.0,0.0,0.0,2.839,3.1512,3.2641,3.4343,3.6714,3.75,3.7031,3.5351,3.4043,0.0,0.0,0.0,0.0,0.0,0.0,0.0,0.0,0.0,0.0,0.0,0.0,0.0,0.0,0.0,0.0,0.0,0.0,3.0898,3.0898,3.0898,3.0898,3.0898,3.0898,3.0898,3.0898,3.0898,3.1553,3.2413,3.3242,3.6055,3.9512,4.2949,4.373,4.4707,4.8209,4.7232,4.5746,4.5746,4.6055,0.0,0.0,0.0,0.0,0.0,0.0,0.0,0.0,0.0,0.0,0.0,0.0,0.0,0.0,0.0,0.0,0.0,0.0,0.0,0.0,0.0,0.0,0.0,4.9082,4.8913,4.8913,4.8913,4.8913,4.8913,4.8913,4.8913,4.8855,4.7994,4.7578,4.7519,4.666,4.6308,4.6308,4.6308,4.6308,4.6308,4.6308,4.6308,4.6308,0.0,0.0,0.0,0.0,0.0,0.0,0.0,0.0,0.0,0.0,0.0,0.0,0.0,0.0,0.0,0.0,0.0,0.0,0.0,0.0,0.0,0.0,0.0,0.0,0.0,0.0,3.4162,3.6714,3.6621,3.5669,0.0,0.0,0.0,3.2413,0.0,0.0,0.0,0.0,0.0,0.0,0.0,0.0,0.0,0.0,0.0,0.0,0.0,0.0,0.0,0.0,0.0,0.0,3.0898,3.1338,3.169,3.1074,3.1338,3.169,3.1084,3.2198,3.3899,3.5365,3.8066,4.1308,4.4746,4.5762,4.6777,4.9648,4.905,4.7955,4.7955,4.8053,0.0,0.0,0.0,0.0,0.0,0.0,0.0,0.0,0.0,0.0,0.0,0.0,0.0,0.0,0.0,0.0,0.0,0.0,0.0,0.0,0.0,0.0,0.0,0.0,4.8913,4.8913,4.8913,4.8913,4.8913,4.8913,4.8913,4.8855,4.7994,4.7578,4.7519,4.666,4.6308,4.6308,4.6308,4.6308,4.6308,4.6308,4.6308,4.6308,0.0,0.0,0.0,0.0,0.0,0.0,0.0,0.0,0.0,0.0,0.0,0.0,0.0,0.0,0.0,0.0,0.0,0.0,0.0,0.0,0.0,0.0,0.0,0.0,0.0,3.2154,3.386,0.0,0.0,0.0,0.0,0.0,0.0,3.3254,0.0,3.4603,0.0,0.0,0.0,0.0,0.0,0.0,0.0,0.0,0.0,0.0,0.0,0.0,0.0,0.0,0.0,0.0,3.0898,3.125,3.1651,3.1475,3.1553,3.1768,3.207,3.3223,3.4902,3.7344,4.0078,4.3183,4.6973,4.8437,4.9512,5.1426,5.0644,4.9773,5.0125,4.9637,0.0,0.0,0.0,0.0,0.0,0.0,0.0,0.0,0.0,0.0,0.0,0.0,0.0,0.0,0.0,0.0,0.0,0.0,0.0,0.0,0.0,0.0,0.0,0.0,0.0,4.8913,4.8718,4.8594,4.8594,4.8594,4.8594,4.8555,4.7695,4.7226,4.7031,4.6523,4.6308,4.6308,4.6308,4.6308,4.6308,4.6308,4.6308,4.6308,0.0,0.0,0.0,0.0,0.0,0.0,0.0,0.0,0.0,0.0,0.0,0.0,0.0,0.0,0.0,0.0,0.0,0.0,0.0,0.0,0.0,0.0,0.0,0.0,0.0,0.0,0.0,0.0,0.0,0.0,0.0,0.0,3.4805,3.4824,0.0,3.6445,0.0,0.0,0.0,0.0,0.0,0.0,0.0,0.0,0.0,0.0,0.0,0.0,0.0,0.0,0.0,0.0,3.0976,3.1016,3.1182,3.1925,3.167,3.1562,3.3606,3.4531,3.5781,3.9355,4.2305,4.5391,4.9394,5.1289,5.2402,5.3195,5.209,5.1269,5.2012,5.084,0.0,0.0,0.0,0.0,0.0,0.0,0.0,0.0,0.0,0.0,0.0,0.0,0.0,0.0,0.0,0.0,0.0,0.0,0.0,0.0,0.0,0.0,0.0,0.0,0.0,0.0,4.8379,4.8183,4.8144,4.8144,4.8125,4.8047,4.7221,4.6699,4.6308,4.6308,4.6308,4.6308,4.6308,4.6308,4.6308,4.6308,4.6308,4.6308,0.0,0.0,0.0,0.0,0.0,0.0,0.0,0.0,0.0,0.0,0.0,0.0,0.0,0.0,0.0,0.0,0.0,0.0,0.0,0.0,0.0,0.0,0.0,0.0,0.0,0.0,0.0,0.0,0.0,0.0,0.0,0.0,0.0,3.5293,0.0,3.6562,0.0,0.0,0.0,0.0,0.0,0.0,0.0,0.0,0.0,0.0,0.0,0.0,0.0,0.0,0.0,0.0,3.171,3.1925,3.1885,3.1699,3.2246,3.3125,3.4258,3.5625,3.7734,4.1855,4.6113,4.9609,5.0879,5.2168,5.3097,5.2891,5.2832,5.2804,5.2598,0.0,0.0,0.0,0.0,0.0,0.0,0.0,0.0,0.0,0.0,0.0,0.0,0.0,0.0,0.0,0.0,0.0,0.0,0.0,0.0,0.0,0.0,0.0,4.834,4.834,4.8183,0.0,4.8086,4.8027,4.7715,4.7715,4.7519,4.7143,4.6967,4.6699,4.6308,4.6308,4.6308,4.6308,4.6308,4.6308,4.6308,4.6308,4.6308,4.6308,0.0,0.0,0.0,0.0,0.0,0.0,0.0,0.0,0.0,0.0,0.0,0.0,0.0,0.0,0.0,0.0,0.0,0.0,0.0,0.0,0.0,0.0,0.0,0.0,0.0,0.0,0.0,0.0,0.0,0.0,0.0,0.0,0.0,3.6089,0.0,3.7187,0.0,0.0,0.0,0.0,0.0,0.0,0.0,0.0,0.0,0.0,0.0,0.0,0.0,0.0,0.0,0.0,0.0,0.0,3.1855,3.1836,3.2441,3.3535,3.543,3.7363,4.0019,4.4941,4.8496,5.0976,5.1601,5.2266,5.2734,5.2715,5.3066,5.3331,5.3066,0.0,0.0,0.0,0.0,0.0,0.0,0.0,0.0,0.0,0.0,0.0,0.0,0.0,0.0,0.0,0.0,0.0,0.0,0.0,0.0,0.0,0.0,0.0,4.791,4.791,4.7793,4.7578,4.7598,4.7383,4.6973,4.6973,4.6836,4.6621,4.6426,4.6328,4.6308,4.6308,4.6308,4.6308,4.6308,4.6308,4.6308,4.6308,4.6308,4.6308,0.0,0.0,0.0,0.0,0.0,0.0,0.0,0.0,0.0,0.0,0.0,0.0,0.0,0.0,0.0,0.0,0.0,0.0,0.0,0.0,0.0,0.0,0.0,0.0,0.0,0.0,0.0,0.0,0.0,0.0,0.0,0.0,0.0,3.6851,0.0,0.0,0.0,0.0,0.0,0.0,0.0,0.0,0.0,0.0,0.0,0.0,0.0,0.0,0.0,0.0,0.0,0.0,0.0,0.0,3.1699,3.2101,3.2609,3.3594,3.625,3.9082,4.2539,4.7695,4.9941,5.1094,5.1816,5.209,5.2266,5.2539,5.2949,5.3273,0.0,0.0,0.0,0.0,0.0,0.0,0.0,0.0,0.0,0.0,0.0,0.0,0.0,0.0,0.0,0.0,0.0,0.0,0.0,0.0,0.0,0.0,0.0,4.7539,4.7461,4.7461,4.7402,4.7291,4.6816,4.6465,4.6191,4.6113,4.6172,4.6289,4.5937,4.5976,4.6308,4.6308,4.6308,4.6308,4.6308,4.6308,4.6308,4.6308,4.6308,4.6308,0.0,0.0,0.0,0.0,0.0,0.0,0.0,0.0,0.0,0.0,0.0,0.0,0.0,0.0,0.0,0.0,0.0,0.0,0.0,0.0,0.0,0.0,0.0,0.0,0.0,0.0,0.0,0.0,0.0,3.2902,3.4394,3.5874,3.6758,3.7226,0.0,0.0,0.0,0.0,0.0,0.0,0.0,0.0,0.0,0.0,0.0,0.0,0.0,0.0,0.0,0.0,3.2511,0.0,0.0,0.0,3.212,3.2179,3.3019,3.4192,3.5332,3.9941,4.5192,4.8594,5.041,5.1319,5.1484,5.209,5.2539,5.2226,5.25,5.2676,0.0,0.0,0.0,0.0,0.0,0.0,0.0,0.0,0.0,0.0,0.0,0.0,0.0,0.0,0.0,0.0,0.0,0.0,0.0,4.8855,4.8594,4.8223,4.7793,0.0,4.7012,4.6967,4.666,4.5961,4.5488,4.5449,4.5742,4.5371,4.5605,4.6289,4.625,4.625,4.6308,4.6308,4.6308,4.6308,4.6308,4.6308,4.6308,4.6308,4.6308,4.6308,0.0,0.0,0.0,0.0,0.0,0.0,0.0,0.0,0.0,0.0,0.0,0.0,0.0,0.0,0.0,0.0,0.0,0.0,0.0,0.0,0.0,0.0,0.0,0.0,0.0,0.0,0.0,0.0,3.2344,3.3652,3.582,3.6641,3.75,3.832,0.0,0.0,0.0,0.0,0.0,0.0,0.0,0.0,0.0,0.0,0.0,0.0,0.0,0.0,0.0,0.0,0.0,3.2891,3.3027,0.0,0.0,0.0,3.2715,3.4434,3.7734,4.1582,4.543,4.8711,5.0137,5.0859,5.1328,5.1719,5.1933,5.1758,5.168,5.1738,0.0,0.0,0.0,0.0,0.0,0.0,0.0,0.0,0.0,0.0,0.0,0.0,0.0,0.0,0.0,0.0,0.0,0.0,4.8913,4.8444,4.8092,4.7851,4.7207,0.0,4.623,4.623,4.5918,4.5312,4.5117,4.5117,4.5312,4.5074,4.5488,4.6289,4.6055,4.6094,4.6289,4.6055,4.6094,4.6289,4.6055,4.6094,4.6308,4.6308,4.6308,4.6308,0.0,0.0,0.0,0.0,0.0,0.0,0.0,0.0,0.0,0.0,0.0,0.0,0.0,0.0,0.0,0.0,0.0,0.0,0.0,0.0,0.0,0.0,0.0,0.0,0.0,0.0,0.0,3.2637,3.3066,3.4551,3.7047,3.7539,3.8691,4.0234,3.7891,3.6894,0.0,0.0,0.0,0.0,0.0,0.0,0.0,0.0,0.0,0.0,0.0,0.0,0.0,0.0,0.0,0.0,0.0,0.0,0.0,0.0,0.0,3.416,3.9023,4.1621,4.383,4.7598,4.9043,4.9824,5.0996,5.1269,5.1269,0.0,5.1016,0.0,0.0,0.0,0.0,0.0,0.0,0.0,0.0,0.0,0.0,0.0,0.0,0.0,0.0,0.0,0.0,0.0,0.0,0.0,4.8737,4.8033,4.7519,4.7422,4.6699,4.6113,4.5683,4.5351,4.5078,4.4821,4.4629,4.4648,4.4863,4.4863,4.5273,4.5957,4.5644,4.5742,4.6113,4.5683,4.5762,4.6113,4.5844,4.5859,4.6152,4.6269,4.6308,4.6308,0.0,0.0,0.0,0.0,0.0,0.0,0.0,0.0,0.0,0.0,0.0,0.0,0.0,0.0,0.0,0.0,0.0,0.0,0.0,0.0,0.0,0.0,0.0,0.0,0.0,0.0,3.3008,3.2237,3.3809,3.5723,3.7835,3.8711,4.0664,4.334,4.0371,3.8594,3.7754,0.0,0.0,0.0,0.0,0.0,0.0,0.0,0.0,0.0,0.0,0.0,0.0,0.0,0.0,0.0,0.0,0.0,0.0,0.0,0.0,0.0,3.7031,3.8476,4.0038,4.4749,4.6797,4.8262,5.0371,5.084,5.084,5.084,5.082,0.0,0.0,0.0,0.0,0.0,0.0,0.0,0.0,0.0,0.0,0.0,0.0,0.0,0.0,0.0,0.0,0.0,0.0,0.0,4.8242,4.7812,4.7383,4.6928,4.6523,4.6113,4.5683,4.4433,4.4023,4.4414,4.3574,4.3613,4.4433,4.4433,4.4668,4.5098,4.5058,4.5312,4.5727,4.5234,4.5312,4.5746,4.5727,4.5727,4.5805,4.6152,4.6308,4.6308,0.0,0.0,0.0,0.0,0.0,0.0,0.0,0.0,0.0,0.0,0.0,0.0,0.0,3.0195,3.0488,3.123,0.0,0.0,0.0,0.0,0.0,0.0,0.0,0.0,0.0,3.334,3.3281,3.2969,3.3574,3.5137,3.7539,3.8105,3.9551,4.1582,3.9648,3.8769,3.8555,3.5742,0.0,0.0,0.0,0.0,0.0,0.0,0.0,0.0,0.0,0.0,0.0,0.0,0.0,0.0,0.0,0.0,0.0,3.293,3.2871,3.3457,3.5703,3.7207,3.9023,4.2676,4.498,4.6836,4.8711,4.9785,5.0391,5.0391,5.0176,0.0,0.0,0.0,0.0,0.0,0.0,0.0,0.0,0.0,0.0,0.0,0.0,0.0,0.0,0.0,0.0,0.0,0.0,0.0,4.5788,4.6645,4.6973,4.6543,4.6113,4.541,4.4414,4.3672,4.3379,4.3555,4.3263,4.3379,4.3945,4.3945,4.4043,4.418,4.418,4.459,4.5234,4.4805,4.4883,4.5234,4.4961,4.5195,4.5746,4.584,4.6074,4.6308,0.0,0.0,0.0,0.0,0.0,0.0,0.0,0.0,0.0,0.0,0.0,0.0,0.0,0.0,3.0723,3.1416,0.0,0.0,0.0,0.0,0.0,0.0,0.0,0.0,0.0,3.3386,3.3386,3.3386,3.3679,3.4961,3.7109,3.7812,3.9082,4.0664,3.9062,3.8848,0.0,0.0,0.0,3.5625,0.0,0.0,3.4231,0.0,0.0,0.0,0.0,0.0,0.0,0.0,0.0,0.0,0.0,0.0,0.0,0.0,3.3223,3.3457,3.4629,3.5781,3.7539,4.1289,4.2988,4.4531,4.7519,4.8555,4.9004,4.9433,4.9414,0.0,0.0,0.0,0.0,0.0,0.0,0.0,0.0,0.0,0.0,0.0,0.0,0.0,0.0,0.0,0.0,0.0,0.0,0.0,4.401,4.4797,4.5379,4.564,4.5234,4.4531,4.3496,4.293,4.2793,4.3127,4.293,4.3164,4.3711,4.3711,4.3711,4.3691,4.3555,4.4004,4.4785,4.4336,4.4433,4.4785,4.4512,4.4824,4.5469,4.5625,4.5937,4.6308,0.0,0.0,0.0,0.0,0.0,0.0,0.0,0.0,0.0,0.0,0.0,0.0,0.0,0.0,0.0,3.1504,3.1953,0.0,0.0,0.0,0.0,0.0,0.0,0.0,0.0,3.3406,3.3406,3.3386,3.4258,3.5332,3.6675,3.7926,3.9432,4.0996,3.8867,3.8867,4.0371,0.0,3.8613,3.766,0.0,3.4388,3.4785,0.0,0.0,0.0,3.5742,3.5508,0.0,0.0,0.0,0.0,0.0,0.0,0.0,0.0,0.0,0.0,0.0,0.0,0.0,4.0312,4.0703,4.1269,4.6738,4.7051,4.6543,4.7891,4.8496,0.0,0.0,0.0,0.0,0.0,0.0,0.0,0.0,0.0,0.0,0.0,0.0,0.0,0.0,0.0,0.0,0.0,0.0,4.0954,4.3035,4.2459,4.2771,4.4311,4.3926,4.3476,4.3087,4.2226,4.2226,4.3087,4.2617,4.2851,4.3691,4.3672,4.3672,4.3672,4.3242,4.3555,4.4316,4.3867,4.3945,4.4355,4.4375,4.4648,4.5078,4.5508,4.5937,4.6308,0.0,0.0,0.0,0.0,0.0,0.0,0.0,0.0,0.0,0.0,0.0,0.0,3.0879,3.1475,3.1885,3.2003,3.2656,0.0,0.0,0.0,0.0,0.0,0.0,0.0,3.3406,3.373,3.373,3.3386,3.362,3.4277,3.5254,0.0,0.0,3.7965,3.8262,3.832,3.8066,3.6269,0.0,3.766,3.5117,3.5254,0.0,0.0,0.0,0.0,0.0,3.6719,0.0,0.0,3.6949,3.625,0.0,0.0,0.0,0.0,0.0,0.0,3.3164,0.0,0.0,0.0,0.0,0.0,0.0,4.2851,4.3848,4.6699,4.6894,0.0,0.0,0.0,0.0,0.0,0.0,0.0,0.0,0.0,0.0,0.0,0.0,0.0,0.0,0.0,0.0,0.0,3.8386,3.9752,4.0026,4.2378,4.3779,4.3865,4.3476,4.2891,4.2168,4.1914,4.1914,4.2148,4.2031,4.2422,4.3242,4.293,4.2949,4.3223,4.2793,4.293,4.3437,4.3301,4.332,4.3476,4.3769,4.4355,4.5039,4.5156,4.5664,4.6308,0.0,0.0,0.0,0.0,0.0,0.0,0.0,0.0,0.0,0.0,0.0,0.0,3.1416,3.2218,3.2695,3.2695,0.0,0.0,0.0,0.0,0.0,3.3691,3.3945,3.4043,3.3945,3.4199,3.4121,3.3691,3.3691,3.3848,3.418,0.0,0.0,0.0,0.0,0.0,0.0,0.0,0.0,0.0,3.6406,0.0,0.0,3.7461,3.7988,0.0,0.0,0.0,3.9492,3.9219,3.8437,0.0,0.0,0.0,0.0,0.0,0.0,0.0,0.0,0.0,0.0,0.0,0.0,0.0,4.0117,4.0762,4.1582,0.0,4.5078,0.0,0.0,0.0,0.0,0.0,0.0,0.0,0.0,0.0,0.0,0.0,0.0,0.0,0.0,0.0,0.0,0.0,3.8532,3.9283,3.9556,4.2454,4.3906,4.3457,4.2851,4.2305,4.1797,4.1621,4.1621,4.1797,4.1797,4.2148,4.2793,4.2499,4.2558,4.2773,4.2344,4.2402,4.2812,4.2812,4.3008,4.3359,4.3613,4.4238,4.4977,4.4977,4.5566,4.6308,0.0,0.0,0.0,0.0,0.0,0.0,0.0,0.0,0.0,0.0,3.125,3.166,3.2609,3.3203,3.3523,3.3523,0.0,0.0,0.0,0.0,0.0,3.4095,3.4192,3.4407,3.4687,3.4746,3.4551,3.4114,0.0,3.3848,0.0,0.0,0.0,0.0,0.0,0.0,0.0,0.0,0.0,3.7383,3.8223,3.8965,0.0,0.0,4.1269,0.0,4.2012,4.2012,4.1816,4.0527,3.9297,0.0,0.0,0.0,0.0,0.0,3.4473,0.0,0.0,0.0,0.0,0.0,0.0,0.0,3.9568,3.9687,3.9707,0.0,4.3125,0.0,0.0,0.0,0.0,0.0,0.0,0.0,0.0,0.0,0.0,0.0,0.0,0.0,0.0,0.0,3.9755,3.9699,3.9271,3.9573,4.0957,4.2705,4.3418,4.2949,4.2187,4.1777,4.1738,4.1367,4.1367,4.1738,4.1738,4.1953,4.2323,4.2305,4.2265,4.2304,4.1953,4.2031,4.2382,4.244,4.2949,4.3633,4.3691,4.4238,4.4977,4.4977,4.5566,4.6308,0.0,0.0,0.0,0.0,0.0,0.0,0.0,0.0,0.0,3.2851,3.3535,3.4414,3.5698,3.5,3.4453,3.4453,0.0,0.0,0.0,0.0,3.4016,3.4095,3.4746,3.5,3.4707,3.5059,3.4863,3.4114,0.0,0.0,0.0,0.0,0.0,0.0,0.0,3.429,3.4681,0.0,0.0,3.7383,3.8223,0.0,4.1777,4.1952,4.2578,4.334,4.334,4.334,4.3144,0.0,4.1035,4.0195,0.0,0.0,0.0,0.0,0.0,0.0,0.0,0.0,0.0,0.0,0.0,0.0,3.6074,3.6855,3.8301,0.0,4.1367,4.2246,0.0,0.0,0.0,0.0,0.0,0.0,0.0,0.0,0.0,0.0,0.0,0.0,0.0,0.0,3.9681,4.1363,4.0781,4.1152,4.2997,4.3172,4.2851,4.207,4.1894,4.1641,4.1348,4.125,4.125,4.1328,4.1328,4.1523,4.1914,4.1562,4.1601,4.1914,4.1836,4.2031,4.2421,4.2812,4.3047,4.3223,4.3574,4.4238,4.4977,4.4977,4.5566,4.6308,0.0,0.0,0.0,0.0,0.0,0.0,0.0,0.0,3.3371,3.3984,3.5371,3.6309,3.6348,3.5957,3.5508,3.5078,3.4258,0.0,0.0,0.0,3.4492,3.4759,3.5156,3.5371,3.5351,3.5586,3.5273,3.4394,3.4394,0.0,0.0,0.0,0.0,0.0,0.0,3.375,3.3828,3.5137,3.6426,3.7754,3.9492,0.0,4.2479,4.3357,4.4121,4.4687,4.4687,4.4687,4.4394,4.2461,4.1797,0.0,0.0,3.793,3.7676,0.0,3.5859,3.5586,0.0,0.0,0.0,3.5098,0.0,0.0,0.0,3.5859,3.6562,3.8516,3.8926,3.9432,0.0,0.0,0.0,0.0,0.0,0.0,0.0,0.0,0.0,0.0,0.0,0.0,0.0,0.0,4.1942,4.2761,4.2265,4.2239,4.3004,4.2676,4.2246,4.1816,4.1601,4.1387,4.1211,4.1211,4.1211,4.1211,4.1211,4.1328,4.1484,4.1308,4.1328,4.1484,4.1484,4.1836,4.2401,4.2656,4.3008,4.3418,4.3633,4.4238,4.4977,4.4977,4.5566,4.6308,0.0,0.0,0.0,0.0,0.0,0.0,0.0,0.0,3.457,3.5234,3.6992,3.7871,3.709,3.7031,3.6929,3.6543,3.5131,0.0,0.0,0.0,0.0,0.0,3.5371,3.5586,3.5762,3.5903,3.5625,3.4824,3.4746,0.0,0.0,0.0,0.0,0.0,3.3223,3.3437,3.3711,3.4394,0.0,3.8343,0.0,4.2012,4.246,4.4196,4.5117,4.5469,4.5703,4.5844,4.543,4.2988,0.0,4.2128,3.9219,3.8769,0.0,0.0,0.0,0.0,0.0,0.0,0.0,0.0,0.0,3.56,0.0,0.0,0.0,3.6582,0.0,0.0,0.0,0.0,0.0,0.0,0.0,0.0,0.0,0.0,0.0,0.0,0.0,0.0,0.0,0.0,4.3867,4.3496,4.3066,4.2676,4.2284,4.1992,4.1758,4.168,4.1348,4.1211,4.1211,4.1211,4.1211,4.1211,4.1211,4.1211,4.1211,4.1211,4.1211,4.1211,4.1289,4.1719,4.2401,4.2519,4.3008,4.3711,4.3711,4.4199,4.4879,4.4957,4.5508,4.6191,3.0898,3.0898,0.0,0.0,0.0,0.0,0.0,0.0,3.5801,3.7363,3.8437,3.9453,4.0526,0.0,0.0,0.0,0.0,0.0,3.7386,0.0,0.0,0.0,0.0,0.0,3.4863,3.5591,3.5781,3.5312,3.4902,3.4648,0.0,0.0,0.0,0.0,3.3184,3.3496,3.4551,3.4668,3.6387,0.0,4.1055,4.1836,0.0,4.3808,4.4492,4.4687,4.582,4.623,4.5957,0.0,4.3516,4.3105,0.0,3.9746,0.0,0.0,0.0,0.0,0.0,0.0,0.0,0.0,3.8571,0.0,0.0,0.0,3.6621,3.5273,0.0,0.0,0.0,0.0,0.0,0.0,0.0,0.0,0.0,0.0,0.0,0.0,0.0,0.0,0.0,0.0,0.0,4.2538,4.2187,4.1914,4.1875,4.1836,4.1621,4.1289,4.123,4.1211,4.1211,4.1211,4.1211,4.1211,4.1211,4.1211,4.1211,4.1211,4.1211,4.123,4.1562,4.1992,4.2421,4.2851,4.3281,4.3711,4.3711,4.4023,4.4512,4.4883,4.5332,4.5801,3.0898,3.0898,0.0,0.0,0.0,0.0,0.0,0.0,3.75,3.8203,3.9492,4.0566,0.0,0.0,0.0,0.0,0.0,3.7129,0.0,0.0,0.0,0.0,0.0,0.0,0.0,0.0,0.0,0.0,3.5195,3.4844,3.4336,0.0,0.0,0.0,3.3945,3.4492,3.5508,0.0,3.707,0.0,0.0,0.0,0.0,4.4375,4.5508,4.5566,4.6113,4.6308,4.6035,0.0,4.3711,0.0,0.0,0.0,0.0,0.0,0.0,0.0,0.0,0.0,0.0,0.0,0.0,0.0,0.0,0.0,3.5664,0.0,0.0,0.0,0.0,0.0,0.0,0.0,0.0,0.0,0.0,0.0,0.0,0.0,0.0,0.0,0.0,0.0,0.0,0.0,0.0,4.0957,4.0703,4.1172,4.1348,4.1211,4.1211,4.1211,4.1211,4.1211,4.1211,4.1211,4.1211,4.1211,4.1211,4.1211,4.1348,4.1543,4.1719,4.2187,4.2812,4.3008,4.2562,4.1742,4.19,4.3097,4.4785,4.4918,4.5449,4.588,3.1035,0.0,0.0,0.0,0.0,0.0,0.0,0.0,0.0,3.8691,3.9999,0.0,4.168,4.1035,0.0,0.0,4.0371,3.9297,0.0,0.0,3.7617,0.0,0.0,0.0,0.0,0.0,0.0,3.5566,3.5449,3.5176,3.4818,0.0,0.0,0.0,0.0,3.5742,3.6934,0.0,3.8594,3.9609,4.0879,4.168,4.2383,4.4844,4.5996,4.6308,4.6308,4.6308,4.6055,4.4433,4.3965,0.0,4.2051,0.0,0.0,0.0,0.0,0.0,3.9588,0.0,0.0,0.0,0.0,0.0,0.0,0.0,0.0,0.0,0.0,0.0,0.0,0.0,0.0,0.0,0.0,0.0,0.0,0.0,0.0,0.0,0.0,0.0,0.0,0.0,0.0,0.0,3.9766,0.0,3.9902,4.0488,4.0976,4.1211,4.1211,4.1211,4.1211,4.1211,4.1211,4.1211,4.1211,4.1211,4.1211,4.1289,4.1504,4.1816,4.1914,4.2022,4.213,4.213,4.1018,3.9345,3.9665,4.1106,4.3079,4.3148,4.356,4.3862,3.1406,3.1172,0.0,0.0,0.0,0.0,0.0,0.0,0.0,0.0,0.0,0.0,0.0,0.0,0.0,0.0,0.0,4.2031,4.2832,0.0,3.7793,0.0,0.0,3.6699,0.0,0.0,0.0,0.0,0.0,3.5801,3.6577,3.4896,0.0,0.0,3.6152,3.7148,3.9141,3.9609,4.125,4.3516,4.3574,4.4609,4.5996,0.0,4.5234,4.6308,4.6308,0.0,0.0,4.4805,4.4648,0.0,0.0,0.0,0.0,0.0,0.0,0.0,0.0,0.0,0.0,3.9414,0.0,0.0,0.0,0.0,3.7445,0.0,0.0,0.0,0.0,0.0,0.0,0.0,0.0,0.0,0.0,0.0,0.0,0.0,0.0,0.0,0.0,0.0,0.0,0.0,3.844,0.0,3.9824,3.9922,4.0312,4.1191,4.1211,4.1211,4.1211,4.1211,4.1211,4.1211,4.1211,4.1211,4.123,4.1601,4.1797,4.1816,4.2226,4.1344,3.9705,3.9705,3.8621,3.695,3.7287,3.7678,3.8175,3.8434,3.8522,3.8604,0.0,0.0,0.0,3.1543,3.1641,0.0,0.0,3.6601,0.0,0.0,0.0,0.0,0.0,4.6504,4.666,0.0,0.0,4.5156,4.4023,4.2715,0.0,0.0,0.0,3.8809,0.0,0.0,0.0,0.0,0.0,3.5957,3.623,3.5351,3.5859,0.0,0.0,3.8476,4.0566,0.0,0.0,0.0,0.0,4.5605,4.7031,0.0,0.0,4.6308,4.6308,4.6308,0.0,4.5488,4.5156,4.484,4.4004,4.3633,4.3437,4.3144,4.3262,0.0,0.0,0.0,4.3945,4.1348,0.0,0.0,0.0,0.0,0.0,0.0,0.0,0.0,0.0,0.0,0.0,0.0,0.0,0.0,0.0,0.0,0.0,0.0,0.0,0.0,0.0,0.0,0.0,3.6738,3.6934,3.7402,0.0,3.9277,4.0039,4.0312,4.0917,4.1211,4.1211,4.1211,4.1211,4.1211,4.1211,4.1211,4.1211,4.1328,4.168,4.2147,4.0737,4.0125,3.9916,3.8397,3.6457,3.461,3.5078,3.4397,3.364,3.7057,3.8507,3.8588,3.2559,0.0,0.0,0.0,0.0,0.0,0.0,0.0,0.0,0.0,4.4238,0.0,4.907,0.0,4.9258,0.0,4.9199,4.7851,4.5254,4.5078,0.0,4.246,4.166,0.0,0.0,0.0,0.0,0.0,0.0,3.7012,3.7129,3.6094,3.6523,3.8164,3.832,3.9492,4.1504,4.3262,4.4004,0.0,0.0,4.6601,0.0,0.0,4.666,0.0,0.0,4.6308,4.623,4.582,4.5586,4.541,4.498,4.4746,4.4609,4.4453,4.4609,4.4824,4.4668,4.4922,0.0,0.0,4.1933,0.0,3.873,0.0,0.0,0.0,0.0,0.0,0.0,0.0,0.0,0.0,0.0,0.0,0.0,0.0,0.0,0.0,0.0,0.0,0.0,0.0,3.5976,3.5,3.5463,3.6108,0.0,0.0,3.9414,3.9883,4.0761,4.1211,4.1211,4.1211,4.1211,4.1211,4.1211,4.0802,4.0021,4.0173,4.0153,3.9944,3.8517,3.7878,3.7716,3.6096,3.4211,3.2405,3.2818,3.2157,3.134,3.4721,3.6144,3.622,0.0,0.0,0.0,0.0,3.3887,0.0,0.0,0.0,4.2148,0.0,4.5898,4.8437,5.0273,5.0801,5.1348,5.2168,5.1836,0.0,4.6836,4.7344,0.0,0.0,4.3516,4.3125,4.1504,0.0,0.0,0.0,0.0,0.0,3.916,3.709,3.7012,3.8669,3.9101,4.0234,4.1973,4.459,4.6211,4.7031,4.7461,4.7637,4.7637,4.7617,0.0,4.6889,4.6484,4.6328,4.6269,4.584,4.5976,4.6269,4.5859,4.6035,4.6289,4.5898,4.6348,4.6655,4.5445,4.543,4.5375,4.3693,0.0,0.0,0.0,0.0,4.2285,0.0,0.0,0.0,0.0,0.0,0.0,3.8086,0.0,0.0,0.0,0.0,0.0,0.0,0.0,0.0,0.0,3.5098,3.4434,3.4036,3.4016,3.4531,0.0,0.0,0.0,3.9726,4.0722,4.1211,4.1211,4.1094,4.1055,4.1055,4.0919,3.9786,3.7755,3.8154,3.7334,3.5691,3.5708,3.4822,3.3335,3.2906,3.1823,3.0413,3.0675,3.0982,3.1276,3.157,3.1724,3.1818,3.3386,3.3769,3.4199,0.0,3.4453,3.4922,0.0,0.0,0.0,0.0,4.8691,5.1133,5.4121,5.4277,5.4238,5.4453,5.4101,0.0,0.0,0.0,0.0,4.8242,4.7148,4.6074,4.5019,4.3086,0.0,4.0976,0.0,0.0,3.918,3.7952,3.8008,3.9082,4.0176,4.1094,4.1992,4.4902,4.6816,4.791,4.8405,4.8581,0.0,0.0,4.7969,4.7773,4.7031,4.6777,4.6699,4.6289,4.6426,4.6738,4.6641,4.6894,4.7226,4.7129,4.7246,4.7344,4.7012,4.6777,4.6426,4.5664,4.4414,4.3183,0.0,0.0,0.0,0.0,0.0,0.0,0.0,0.0,0.0,0.0,0.0,0.0,0.0,0.0,0.0,0.0,0.0,0.0,0.0,3.3418,3.3105,3.2726,3.2687,0.0,0.0,0.0,0.0,3.7949,4.0059,4.1211,4.1211,3.957,3.8745,3.8706,3.7139,3.6081,3.55,3.5642,3.5594,3.5328,3.385,3.316,3.2906,3.134,3.041,3.0087,3.0595,3.1102,3.157,3.1684,3.181,3.2011,3.3984,0.0,0.0,3.6426,0.0,0.0,3.9611,0.0,0.0,4.7441,5.0098,0.0,5.4062,5.539,5.5996,5.5625,5.5371,0.0,5.2812,0.0,0.0,5.0508,4.9512,4.8398,4.7168,4.498,0.0,4.2363,0.0,0.0,4.0039,3.8594,3.8281,3.8984,4.0293,4.1133,4.1758,4.5351,4.75,4.8516,4.8796,0.0,0.0,4.864,4.8496,4.8398,4.7734,4.7363,4.7187,4.6933,4.7012,4.7246,4.7422,4.7656,4.7891,4.8131,4.8008,4.7891,4.8131,4.7695,4.7207,4.7148,4.625,4.5234,4.4629,4.4883,4.4961,0.0,0.0,0.0,0.0,0.0,0.0,0.0,0.0,0.0,0.0,0.0,0.0,0.0,0.0,0.0,0.0,0.0,0.0,0.0,0.0,0.0,0.0,0.0,0.0,0.0,3.9862,4.1211,4.1211,3.9393,3.8279,3.7856,3.5719,3.4205,3.3283,3.3385,3.3115,3.249,3.1352,3.1137,3.1476,3.0233,2.9873,3.0167,3.0755,3.1263,3.1711,3.1711,3.1818,3.1944,0.0,0.0,0.0,0.0,0.0,0.0,0.0,4.4043,0.0,4.8008,0.0,5.3125,5.2871,5.5449,5.6753,5.5621,0.0,5.5097,5.2688,5.321,5.2878,5.1308,5.0755,4.9874,4.8594,4.6719,0.0,0.0,0.0,0.0,4.0839,3.8828,3.8164,3.8669,3.9941,4.0879,4.1758,4.5664,4.7838,4.8581,4.8815,4.8913,4.8913,4.8913,4.8913,4.8855,4.8418,4.8027,4.7656,4.7656,4.7656,4.7734,4.8164,4.8281,4.8359,4.8796,4.8594,4.8359,4.8737,4.8268,4.7754,4.8105,4.7891,4.7402,4.6699,4.6543,4.6426,4.5937,4.4883,0.0,0.0,0.0,0.0,0.0,0.0,0.0,0.0,0.0,0.0,0.0,0.0,0.0,0.0,0.0,0.0,0.0,0.0,0.0,0.0,0.0,0.0,0.0,3.959,0.0,4.1465,0.0,3.8329,3.769,3.5149,3.2895,3.1025,3.1307,3.0539,2.9001,2.9041,2.9348,2.9847,2.9633,2.9887,3.052,3.1009,3.141,3.1711,3.1711,3.1711,3.1791,0.0,0.0,0.0,0.0,0.0,4.4355,4.7324,4.8789,5.0234,5.2158,5.4485,5.6152,5.6831,5.707,5.6135,5.3585,5.5584,0.0,0.0,0.0,0.0,5.3364,5.0522,4.935,5.0323,4.7617,4.5527,0.0,0.0,0.0,3.906,3.8262,3.8164,3.8669,3.9941,4.1543,4.3379,4.5234,0.0,4.6875,4.8327,4.8913,4.8913,4.8913,4.8913,4.8894,4.8815,4.8457,4.8105,4.8105,4.8105,4.8164,4.8659,4.8796,4.8796,4.8874,4.8855,4.8718,4.8398,4.8203,4.8105,4.8183,4.7891,4.7637,4.7832,4.7871,4.7656,4.6875,4.625,4.5215,4.3144,0.0,0.0,0.0,0.0,0.0,0.0,0.0,0.0,0.0,0.0,0.0,0.0,0.0,0.0,0.0,0.0,0.0,0.0,0.0,0.0,0.0,0.0,0.0,0.0,0.0,0.0,3.6761,3.1968,2.9477,2.9121,2.9365,2.9325,2.9015,2.9299,2.9459,2.9579,2.9766,3.0194,3.0755,3.1089,3.141,3.1711,3.1711,3.1711,3.1738,0.0,0.0,0.0,0.0,0.0,0.0,0.0,5.1677,0.0,5.3468,5.4668,5.5664,5.5859,5.5606,5.4708,5.2961,5.2594,5.1645,4.9599,4.9012,4.9708,5.192,4.9783,0.0,5.0792,4.8066,4.5898,4.4394,0.0,0.0,0.0,0.0,3.7832,3.8281,3.9355,4.1406,0.0,0.0,0.0,4.6758,4.8307,4.8913,4.8913,4.8913,4.8913,4.8913,4.8913,4.8776,4.8535,4.8535,4.8535,4.8574,4.8835,4.8913,4.8913,4.8913,4.8737,4.8535,4.8535,4.8379,4.8262,4.8496,4.8444,4.8346,4.8496,4.8359,4.8027,4.7402,4.6758,4.5449,4.2617,4.0,0.0,0.0,0.0,0.0,0.0,0.0,0.0,0.0,0.0,0.0,0.0,0.0,0.0,0.0,0.0,0.0,0.0,0.0,0.0,0.0,0.0,0.0,0.0,0.0,0.0,3.4087,3.0524,2.8751,2.8617,2.9072,2.9272,2.9285,2.9579,2.9713,2.9726,3.002,3.0394,3.0822,3.1116,3.141,3.1711,3.1711,3.1805,3.1877,0.0,4.0255,0.0,0.0,4.6462,0.0,4.8223,5.2342,5.4917,5.3665,5.4081,5.4369,5.3991,5.3274,5.2314,5.0964,4.9268,4.7751,4.6597,4.6015,4.6985,4.997,4.8462,4.8654,5.0861,4.8431,4.623,0.0,0.0,0.0,0.0,0.0,0.0,0.0,0.0,0.0,0.0,0.0,4.584,4.7051,4.834,4.8913,4.8913,4.8913,4.8913,4.8913,4.8913,4.8913,4.8913,4.8913,4.8913,4.8913,4.8913,4.8913,4.8913,4.8913,4.8659,4.8418,4.8815,4.8613,4.8418,4.8815,4.8913,4.8874,4.8776,4.8457,4.8066,4.7539,4.6621,4.5058,4.2305,4.0684,0.0,0.0,0.0,0.0,0.0,0.0,0.0,0.0,0.0,0.0,0.0,0.0,0.0,0.0,0.0,0.0,3.1094,3.2902,0.0,0.0,0.0,0.0,3.8545,0.0,3.2629,0.0,3.013,2.9018,2.8818,2.9406,2.9633,2.9593,2.9953,3.01,3.0127,3.04,3.0621,3.0915,3.1209,3.1463,3.1711,3.1711,3.181,3.1984,0.0,0.0,0.0,0.0,0.0,0.0,0.0,4.9185,5.0532,5.3408,5.3834,5.3852,5.3834,5.1302,4.8235,4.4743,4.7022,4.705,4.3432,4.2855,4.4861,4.9609,4.6474,4.6723,5.1241,4.9219,4.666,0.0,0.0,0.0,0.0,0.0,0.0,0.0,0.0,0.0,0.0,4.459,4.6133,4.7051,4.834,4.8913,4.8913,4.8913,4.8913,4.8913,4.8913,4.8913,4.8913,4.8913,4.8913,4.8913,4.8913,4.8913,4.8913,4.8913,4.8874,4.8855,4.8894,4.8874,4.8855,4.8894,4.8913,4.8796,4.8359,4.8242,4.7969,4.7148,4.5703,4.4004,4.2148,4.166,4.1016,0.0,0.0,0.0,0.0,0.0,0.0,0.0,0.0,0.0,0.0,0.0,0.0,0.0,0.0,3.2081,3.1455,3.2723,0.0,3.541,0.0,3.6641,3.9436,3.4448,0.0,3.393,3.0887,2.9432,2.9419,3.0052,3.0127,2.99,3.0474,3.0715,3.0715,3.0742,3.0929,3.1209,3.1517,3.1684,3.1711,3.1711,3.1738,3.1791,0.0,0.0,0.0,0.0,0.0,0.0,0.0,4.755,4.8636,4.8388,5.0009,5.1223,5.1406,4.8331,4.5627,4.4124,4.3355,4.2223,4.0416,3.984,4.1133,4.4645,4.2845,4.401,4.8756,4.707,4.5732,0.0,0.0,0.0,0.0,0.0,0.0,0.0,0.0,4.2148,4.3457,4.5019,4.6152,4.7051,4.834,4.8913,4.8913,4.8913,4.8913,4.8913,4.8913,4.8913,4.8913,4.8913,4.8913,4.8913,4.8913,4.8913,4.8913,4.8913,4.8913,4.8913,4.8913,4.8913,4.8913,4.8913,4.8913,4.8796,4.8301,4.8008,4.7656,4.7006,4.5738,4.4492,4.3535,4.2305,4.1269,0.0,0.0,0.0,0.0,0.0,0.0,0.0,0.0,0.0,0.0,0.0,0.0,0.0,0.0,0.0,3.1983,3.2637,3.4004,3.6094,0.0,3.3818,3.7119,3.2489,3.0531,3.1394,3.0478,2.9913,2.9766,3.0354,3.0555,3.0461,3.0688,3.0795,3.0808,3.0982,3.1116,3.1203,3.1557,3.1711,3.1711,3.1711,3.1784,3.1944,3.9955,0.0,4.0967,0.0,4.3434,4.2971,4.3842,4.5049,4.5199,4.3299,4.4994,4.6846,4.8067,4.5011,4.2905,4.2789,4.0516,3.8972,3.8611,3.8103,3.8818,4.1125,4.0499,0.0,4.597,4.5606,4.5268,4.5033,4.33,0.0,0.0,0.0,0.0,0.0,4.2129,4.334,4.4844,4.582,4.6719,4.7578,4.8542,4.8913,4.8913,4.8913,4.8913,4.8913,4.8913,4.8913,4.8913,4.8913,4.8913,4.8913,4.8913,4.8913,4.8913,4.8913,4.8913,4.8913,4.8913,4.8913,4.8913,4.8913,4.8913,4.8757,4.8144,4.7793,4.7383,4.6699,4.5699,4.4902,4.4473,4.293,4.1836,0.0,0.0,0.0,0.0,0.0,0.0,0.0,3.6543,3.5254,3.3926,0.0,0.0,0.0,0.0,0.0,0.0,3.2681,0.0,0.0,0.0,0.0,0.0,0.0,2.9406,2.9873,3.0253,3.0346,3.0181,3.0608,3.0889,3.1036,3.0875,3.0889,3.1062,3.1169,3.1276,3.1383,3.1583,3.1711,3.1724,3.177,3.1931,3.2131,3.9832,4.0109,4.1205,4.3684,4.1376,4.0144,4.3176,4.1091,3.9231,3.9159,3.9231,4.0516,4.3998,4.1554,3.9493,3.9199,3.91,3.8846,3.8348,3.7996,3.8625,0.0,0.0,4.1118,4.3284,4.55,4.5634,4.35,0.0,0.0,3.9009,0.0,0.0,4.3125,4.4844,4.5688,4.5785,4.7056,4.8092,4.8874,4.8894,4.8913,4.8913,4.8913,4.8913,4.8913,4.8913,4.8913,4.8913,4.8913,4.8913,4.8913,4.8913,4.8913,4.8913,4.8913,4.8913,4.8913,4.8913,4.8913,4.8913,4.8913,4.8913,4.8679,4.7773,4.7578,4.7226,4.6,4.5332,4.4902,4.4473,4.3672,4.291,4.248,0.0,0.0,0.0,0.0,0.0,0.0,3.7477,3.6167,3.4805,0.0,0.0,0.0,0.0,0.0,0.0,0.0,0.0,3.2839,3.1204,0.0,3.2108,3.0394,2.9913,3.0768,3.0533,3.056,3.0782,3.0795,3.1116,3.1671,3.1049,3.1116,3.1684,3.1343,3.1396,3.1711,3.1711,3.1711,3.1751,3.1984,3.2104,3.2185,3.8749,3.9158,3.9752,4.0577,4.0124,3.9977,4.075,4.0075,3.9372,3.9127,3.8913,3.9227,4.0356,3.9568,3.8993,0.0,3.8913,3.8691,0.0,3.7969,3.7976,3.8418,3.7767,3.8536,4.1066,4.1152,4.1469,4.2054,0.0,0.0,0.0,3.8441,4.0181,4.3008,4.4165,4.5875,4.78,4.6736,4.7298,4.8617,4.5079,4.4701,4.6242,4.6242,4.5259,4.4105,4.5677,4.5212,4.3914,4.3729,4.3642,4.3927,4.5708,4.7446,4.8913,4.8913,4.8913,4.8913,4.8913,4.8913,4.8913,4.8913,4.8913,4.8679,4.7773,4.7129,4.6601,4.6191,4.5762,4.5332,4.4902,4.4101,4.3359,4.2949,0.0,0.0,0.0,0.0,0.0,0.0,3.6133,3.5156,0.0,3.3811,0.0,0.0,0.0,0.0,0.0,0.0,0.0,0.0,3.1103,0.0,3.2833,3.1017,3.0327,3.0795,3.0902,3.1102,3.1396,3.1396,3.1537,3.1711,3.1524,3.1503,3.1711,3.157,3.1583,3.1711,3.1711,3.1711,3.1751,3.1998,3.2225,3.2514,3.8504,3.8846,3.914,3.9247,3.9519,3.964,3.9452,3.9346,3.9199,3.8953,3.878,3.8718,3.8718,3.8718,0.0,3.8913,3.878,3.8651,3.8437,3.8036,3.817,3.896,3.7223,3.749,4.0135,0.0,0.0,4.0537,3.9524,3.8528,3.7586,3.7758,3.955,4.2607,4.3123,4.4489,4.6232,4.4796,4.4929,4.5881,4.255,4.2147,4.3594,4.3594,4.2683,4.1663,4.3045,4.2635,4.1404,4.127,4.186,4.272,4.3339,4.6008,4.8913,4.8913,4.8913,4.8913,4.8913,4.8913,4.8913,4.8913,4.8913,4.8718,4.7969,4.7148,4.6543,4.6543,4.6074,4.5586,4.5312,4.4414,4.3672,4.3594,0.0,0.0,0.0,0.0,0.0,0.0,0.0,0.0,0.0,3.4165,0.0,0.0,0.0,0.0,0.0,0.0,0.0,3.1401,3.0424,0.0,3.2296,3.1136,3.0774,3.1129,3.1303,3.149,3.1711,3.1711,3.1711,3.1711,3.1711,3.1711,3.1711,3.1711,3.1711,3.1711,3.1711,3.1778,3.1864,3.2158,3.25,3.2795,3.8953,3.91,0.0,0.0,3.9313,0.0,3.9127,3.8886,3.87,3.8718,3.8718,3.8718,3.8718,3.8691,3.8691,3.8691,0.0,0.0,0.0,3.8143,3.8887,4.1281,3.8265,0.0,3.9968,3.9642,3.9278,3.8848,3.7738,3.7293,3.7495,3.7284,3.882,4.1816,4.1816,4.1915,4.2014,4.1555,4.144,4.1538,4.0901,4.0754,4.0947,4.0947,4.0818,4.069,4.0867,4.0818,4.069,4.0674,4.2243,4.3832,4.162,4.4211,4.8181,4.8505,4.8755,4.8913,4.8913,4.8913,4.8913,4.8913,4.8874,4.8757,4.8301,4.7558,4.6928,4.6889,4.6308,4.5785,4.5727,4.4648,4.3926,4.4297,4.2891,4.1582,4.1152,0.0,0.0,0.0,0.0,0.0,0.0,3.5133,3.4569,0.0,0.0,0.0,0.0,0.0,0.0,2.9785,2.9336,2.9628,3.0808,3.0849,3.1129,3.1711,3.1738,3.1751,3.1751,3.1751,3.1751,3.1751,3.1724,3.1711,3.1711,3.1711,3.1711,3.1711,3.1711,3.1851,3.2144,3.2487,3.2781,3.3026,0.0,0.0,3.9207,3.9559,3.9533,3.9493,3.9493,3.9239,3.8913,3.8758,3.8718,3.8718,3.8718,3.8504,3.837,3.837,3.8584,3.8611,3.8397,3.8036,3.7958,3.8374,3.7193,3.6801,3.74,3.7111,3.6755,3.6454,3.6113,3.5946,3.5795,3.5713,3.7228,3.9954,3.9954,4.092,4.2392,4.009,4.0091,4.1228,3.6938,3.646,3.8197,3.8212,3.713,3.5842,3.7617,3.7115,3.5591,3.5337,3.5635,3.6411,3.7757,3.9059,4.0802,4.4796,4.7353,4.8913,4.8913,4.8913,4.8913,4.8913,4.8613,4.834,4.8223,4.7793,4.7324,4.6948,4.6777,4.6445,4.5801,4.5156,4.4531,4.3965,4.2441,4.0937,3.9824,0.0,0.0,0.0,3.7578,3.7148,3.5613,3.4171,3.2654,0.0,0.0,0.0,0.0,0.0,2.8918,2.8905,2.9639,3.0394,3.1116,3.1356,3.1577,3.1724,3.1891,3.1998,3.1998,3.1998,3.1998,3.1984,3.177,3.1711,3.1711,3.1711,3.1711,3.1711,3.1711,3.1851,3.2144,3.2487,3.2781,3.3026,3.8718,3.8945,3.91,3.9199,3.9306,3.9346,3.9239,3.9052,3.8846,3.87,3.8718,3.8718,3.8718,3.8584,3.8477,3.8477,3.8357,3.825,3.8076,3.7889,3.8296,3.9335,3.7768,3.7468,3.8617,3.7101,3.6126,3.5832,3.5698,3.5551,3.5391,3.5257,3.6019,3.7444,3.7444,3.8109,3.9191,3.7461,3.7418,3.8208,3.4936,3.4455,3.5714,3.5572,3.4745,3.3842,3.5075,3.4745,3.3641,3.3467,3.4186,3.5203,3.5451,3.7134,3.9399,4.0995,4.4163,4.74,4.857,4.8913,4.8913,4.8913,4.8718,4.8496,4.8496,4.8164,4.7793,4.7558,4.7162,4.6753,4.6328,4.5586,4.4372,4.2439,4.0851,3.9277,3.7592,3.7065,0.0,3.6113,3.6939,3.6752,3.4723,3.3383,3.1947,3.034,0.0,0.0,2.7724,2.8791,2.9312,2.9018,3.014,3.0969,3.1423,3.1583,3.1778,3.1864,3.2024,3.2104,3.2104,3.2104,3.2024,3.1891,3.1744,3.1711,3.1711,3.1711,3.1711,3.1724,3.181,3.2051,3.2393,3.2688,3.2933,3.32,3.8718,3.8873,3.8993,3.8865,3.8972,3.8993,3.8865,3.874,3.8718,3.8718,3.8718,3.8718,3.8718,3.8691,3.8651,3.8651,3.8103,3.7809,3.7956,3.7849,3.8802,4.0999,3.8709,3.8335,4.0521,3.7907,3.6393,3.6072,3.5819,3.5658,3.5551,3.5311,3.5191,3.5191,3.5191,3.5191,3.5177,3.4883,3.4815,3.4762,3.4175,3.3921,3.3855,3.3587,3.3454,3.3414,3.3414,3.3414,3.3414,3.3414,3.4869,3.6312,3.4086,3.646,3.9642,3.7855,4.0416,4.4494,4.7493,4.8617,4.8801,4.8412,4.8617,4.8913,4.8913,4.8279,4.7713,4.7636,4.6683,4.584,4.5783,4.4739,4.2952,4.0119,3.8482,3.6857,3.4966,0.0,3.4996,3.4394,3.5828,3.5982,3.375,3.2815,3.19,3.0815,2.9727,0.0,0.0,2.9472,2.9953,2.9753,3.0715,3.1383,3.1778,3.1778,3.1877,3.2171,3.2211,3.2238,3.2238,3.2185,3.2038,3.1845,3.1751,3.1711,3.1711,3.1711,3.1711,3.1751,3.1984,3.2278,3.2634,3.2915,3.316,3.3414,3.8718,3.8758,3.8886,3.9386,3.9092,3.8945,3.9386,3.9052,3.8718,3.8718,3.8718,3.8718,3.8718,3.8477,3.8388,3.8388,3.7782,3.7782,3.8486,3.8103,3.7979,3.8407,3.7485,3.7134,3.7577,3.7122,3.662,3.6072,3.6019,3.5752,3.5257,3.5217,3.5191,3.5191,3.5191,3.5191,3.5177,3.4883,3.4815,3.4788,3.4389,3.4108,3.3881,3.3828,3.3641,3.3414,3.3414,3.3414,3.3414,3.3414,3.365,3.3937,3.35,3.3937,3.4969,3.6756,3.7855,3.9545,4.4305,4.7214,4.8366,4.6149,4.726,4.8913,4.8913,4.711,4.5413,4.5038,4.2946,4.1047,4.0632,3.9518,3.8353,3.7475,3.5409,3.3662,0.0,0.0,3.3123,3.3537,3.4885,3.5096,3.3423,3.2887,3.2033,3.0571,2.9828,2.9593,3.0038,3.0421,3.0755,3.0955,3.1129,3.149,3.2024,3.2038,3.2185,3.2527,3.2768,3.2839,3.2826,3.2634,3.25,3.2433,3.1938,3.1711,3.1711,3.1711,3.1711,3.1751,3.1984,3.2278,3.2634,3.2915,3.316,3.3414,3.8718,3.8838,3.8985,3.906,3.8993,3.8953,3.906,3.8905,3.8718,3.8718,3.8718,3.8718,3.8718,3.8584,3.8504,3.8504,3.825,3.821,3.8477,3.7929,3.7529,3.7342,3.7235,3.7088,3.6885,3.6885,3.6794,3.654,3.6219,3.5939,3.5658,3.5351,3.5191,3.5191,3.5191,3.5191,3.5191,3.5057,3.5004,3.4977,3.4683,3.4376,3.4108,3.3948,3.3694,3.3414,3.3414,3.3414,3.3414,3.3414,3.3414,3.3414,3.3414,3.3414,3.365,3.4869,3.7183,3.9932,4.229,4.3832,4.4465,4.3262,4.489,4.6429,4.5079,4.489,4.4553,4.2989,4.1417,4.0201,3.9838,3.863,3.7123,3.5367,3.311,0.0,0.0,3.1332,3.166,3.2251,3.3595,3.388,3.2291,3.1962,3.1526,3.0673,3.0341,3.0234,3.04,3.0635,3.0929,3.1162,3.169,3.2064,3.2393,3.2393,3.2541,3.2835,3.2969,3.2973,3.2973,3.2888,3.2648,3.234,3.2024,3.181,3.1711,3.1711,3.1805,3.1931,3.2273,3.2567,3.2862,3.3106,3.3293,3.3414,3.8718,3.8846,3.8953,3.8806,3.8886,3.8953,3.8838,3.8758,3.8718,3.8718,3.8718,3.8718,3.8718,3.8718,3.8718,3.8718,3.8651,3.8477,3.8183,3.7742,3.7342,3.7048,3.7195,3.7155,3.6885,3.6885,3.6861,3.6727,3.6286,3.6006,3.5859,3.5404,3.5191,3.5191,3.5191,3.5191,3.5191,3.5191,3.5191,3.5177,3.495,3.4643,3.4295,3.4068,3.3748,3.3414,3.3414,3.3414,3.3414,3.3414,3.3414,3.3414,3.3414,3.3414,3.3414,3.3414,3.6214,3.9496,4.0126,4.0754,4.1043,4.0464,4.2243,4.3594,4.1668,4.2243,4.2673,4.0706,3.9468,3.8703,3.8498,3.7267,3.558,3.3265,0.0,0.0,0.0,2.985,3.0243,3.0936,3.2147,3.2509,3.1403,3.133,3.1263,3.1102,3.1036,3.0929,3.0814,3.0915,3.1156,3.1517,3.2166,3.2554,3.2701,3.2701,3.2835,3.308,3.308,3.308,3.308,3.3013,3.2732,3.2305,3.2158,3.1971,3.177,3.177,3.1904,3.2144,3.2554,3.2835,3.3013,3.3307,3.3414,3.3414,3.8718,3.8731,3.878,3.902,3.8905,3.8838,3.902,3.8846,3.8718,3.8718,3.8718,3.8718,3.8718,3.8718,3.8718,3.8718,3.8477,3.8183,3.7849,3.7809,3.7662,3.7398,3.7059,3.6912,3.6885,3.6885,3.6687,3.6139,3.6099,3.5792,3.5257,3.5217,3.5191,3.5191,3.5191,3.5191,3.5191,3.5191,3.5191,3.5191,3.5177,3.483,3.4322,3.4295,3.3921,3.3414,3.3414,3.3414,3.3414,3.3414,3.3414,3.3414,3.3414,3.3414,3.3414,3.3414,3.365,3.4471,3.6938,3.9351,4.0609,3.8197,3.9545,4.1428,4.1235,3.9448,3.7806,3.7625,3.5441,3.3551,3.3524,3.2545,3.146,3.074,0.0,0.0,2.8322,2.8364,2.8753,2.9895,3.0595,3.1168,3.1631,3.1684,3.1744,3.1984,3.1757,3.1717,3.1957,3.1744,3.1912,3.2487,3.2238,3.2398,3.2995,3.2946,3.3093,3.3374,3.3374,3.3374,3.3374,3.3106,3.2959,3.2879,3.2345,3.2091,3.2064,3.2064,3.2078,3.2158,3.2732,3.2959,3.3013,3.3307,3.3414,3.3414,3.8718,3.8718,3.8758,3.8806,3.8798,3.8758,3.8865,3.8886,3.8886,3.87,3.8865,3.8873,3.87,3.8544,3.8504,3.866,3.825,3.7996,3.8076,3.7929,3.7676,3.7382,3.7088,3.6805,3.6687,3.6632,3.6473,3.6072,3.5885,3.5685,3.5458,3.5284,3.5191,3.5191,3.5191,3.5191,3.5191,3.5191,3.5191,3.5177,3.5004,3.4683,3.4295,3.4122,3.3788,3.3414,3.3414,3.3414,3.3414,3.3414,3.3414,3.3414,3.3414,3.3414,3.3414,3.3414,3.3414,3.36,3.4621,3.5585,3.6115,3.5104,3.6854,3.8344,3.6756,3.6854,3.6854,3.5203,3.4005,3.3187,3.3013,3.2171,3.149,3.145,0.0,2.9018,2.9927,2.9784,2.9931,3.0889,3.1577,3.2086,3.2487,3.2527,3.2532,3.2639,3.2545,3.25,3.2433,3.2313,3.2447,3.2848,3.2706,3.2839,3.324,3.324,3.3307,3.3414,3.3414,3.3414,3.3414,3.3293,3.3146,3.2973,3.2746,3.2545,3.2407,3.2185,3.2211,3.2433,3.2425,3.2652,3.2986,3.3106,3.3253,3.3414,3.8718,3.8718,3.8718,3.8718,3.8718,3.8718,3.8718,3.8846,3.8886,3.87,3.8846,3.8886,3.87,3.8544,3.8477,3.8691,3.833,3.8143,3.8321,3.7969,3.7676,3.7382,3.7088,3.6794,3.6513,3.65,3.6313,3.5939,3.5725,3.5578,3.5485,3.5284,3.5191,3.5191,3.5191,3.5191,3.5191,3.5191,3.5137,3.5044,3.4843,3.4536,3.4162,3.3961,3.3694,3.3414,3.3414,3.3414,3.3414,3.3414,3.3414,3.3414,3.3414,3.3414,3.3414,3.3414,3.3414,3.3414,3.3414,3.3414,3.3414,3.3414,3.477,3.5585,3.38,3.477,3.5585,3.375,3.3414,3.3347,3.3146,3.2545,3.2091,3.2104,3.0849,3.0221,3.1223,3.1022,3.1109,3.1898,3.2353,3.2634,3.2692,3.2786,3.2888,3.2888,3.2888,3.2808,3.2607,3.2688,3.2822,3.2973,3.3066,3.3213,3.3414,3.3414,3.3414,3.3414,3.3414,3.3414,3.3414,3.3414,3.3307,3.3106,3.3013,3.2915,3.2701,3.2407,3.2407,3.2581,3.2367,3.2545,3.2973,3.2973,3.316,3.3414,3.8718,3.8718,3.8718,3.8718,3.8718,3.8718,3.8718,3.8718,3.8718,3.8718,3.8718,3.8718,3.8718,3.8718,3.8718,3.8718,3.8718,3.8584,3.829,3.7996,3.7702,3.7422,3.7088,3.6794,3.6513,3.65,3.6219,3.5578,3.5578,3.5485,3.5191,3.5191,3.5191,3.5191,3.5191,3.5191,3.5191,3.5191,3.503,3.4815,3.4698,3.4402,3.3895,3.3881,3.3694,3.3414,3.3414,3.3414,3.3414,3.3414,3.3414,3.3414,3.3414,3.3414,3.3414,3.3414,3.3414,3.3414,3.3414,3.3414,3.3414,3.3414,3.3414,3.3414,3.3414,3.3414,3.3414,3.3414,3.3414,3.3414,3.3414,3.3173,3.2786,3.2198,3.1864,3.1724,3.1724,3.1724,3.1938,3.2527,3.2607,3.2487,3.2144,3.242,3.2594,3.2594,3.2594,3.2594,3.2607,3.2875,3.2986,3.2986,3.3253,3.3414,3.3414,3.3414,3.3414,3.3414,3.3414,3.3414,3.3414,3.3414,3.3414,3.34,3.3106,3.2986,3.2959,3.2714,3.2594,3.2594,3.2594,3.2768,3.2973,3.2973,3.316,3.3414,3.8718,3.8718,3.8718,3.8718,3.8718,3.8718,3.8718,3.8846,3.8886,3.87,3.8846,3.8886,3.87,3.8544,3.8477,3.8691,3.833,3.8143,3.8321,3.8183,3.8133,3.8067,3.7529,3.7021,3.6513,3.65,3.6219,3.5578,3.5578,3.5485,3.5191,3.5191,3.5191,3.5191,3.5191,3.5191,3.5177,3.4977,3.4895,3.4775,3.4309,3.4162,3.4148,3.3721,3.3627,3.3721,3.3494,3.3414,3.3414,3.3414,3.3414,3.3414,3.3414,3.3414,3.3414,3.3414,3.3414,3.3414,3.3414,3.3414,3.3414,3.3414,3.3414,3.3414,3.3414,3.3414,3.3414,3.3414,3.3414,3.3414,3.3414,3.3173,3.2919,3.2746,3.2527,3.2407,3.2607,3.2585,3.2732,3.3106,3.3146,3.304,3.2746,3.2799,3.2808,3.2607,3.2781,3.2933,3.3146,3.324,3.328,3.328,3.336,3.3414,3.3414,3.3414,3.3414,3.3414,3.3414,3.3414,3.3414,3.3414,3.3414,3.3414,3.332,3.328,3.3253,3.2973,3.2781,3.2567,3.2318,3.246,3.2701,3.2438,3.2812,3.3387,3.8718,3.8718,3.8718,3.8718,3.8718,3.8718,3.8718,3.8865,3.8873,3.87,3.8865,3.8905,3.87,3.8544,3.8504,3.866,3.8397,3.825,3.8437,3.8437,3.8397,3.8321,3.7929,3.7382,3.6687,3.6473,3.6099,3.5578,3.5511,3.5364,3.5191,3.5191,3.5191,3.5191,3.5191,3.5191,3.5177,3.4883,3.4815,3.4762,3.4122,3.3988,3.4095,3.3601,3.3534,3.3681,3.348,3.3414,3.3414,3.3414,3.3414,3.3414,3.3414,3.3414,3.3414,3.3414,3.3414,3.3414,3.3414,3.3414,3.3414,3.3414,3.3414,3.3414,3.3414,3.3414,3.3414,3.3414,3.3414,3.3414,3.3414,3.3267,3.3146,3.3146,3.3,3.2946,3.3133,3.3146,3.3213,3.3387,3.3414,3.3293,3.3013,3.308,3.308,3.2955,3.3053,3.3227,3.34,3.3414,3.3414,3.3414,3.3414,3.3414,3.3414,3.3414,3.3414,3.3414,3.3414,3.3414,3.3414,3.3414,3.3414,3.3414,3.3414,3.3414,3.3374,3.2973,3.2755,3.2554,3.2091,3.2118,3.2393,3.2171,3.2505,3.3066,3.8718,3.8718,3.8718,3.8718,3.8718,3.8718,3.8718,3.8718,3.8718,3.8718,3.8718,3.8718,3.8718,3.8718,3.8718,3.8718,3.8718,3.8718,3.8718,3.8718,3.8584,3.8321,3.8281,3.7823,3.6952,3.6433,3.5992,3.5618,3.5378,3.5217,3.5191,3.5191,3.5191,3.5191,3.5191,3.5191,3.5177,3.4883,3.4802,3.4721,3.4108,3.3895,3.3881,3.3547,3.344,3.348,3.3427,3.3414,3.3414,3.3414,3.3414,3.3414,3.3414,3.3414,3.3414,3.3414,3.3414,3.3414,3.3414,3.3414,3.3414,3.3414,3.3414,3.3414,3.3414,3.3414,3.3414,3.3414,3.3414,3.3414,3.3414,3.3414,3.3414,3.3414,3.3414,3.3414,3.3414,3.3414,3.3414,3.3414,3.3414,3.3293,3.3013,3.32,3.3347,3.3374,3.3374,3.3387,3.3414,3.3414,3.3414,3.3414,3.3414,3.3414,3.3414,3.3414,3.3414,3.3414,3.3414,3.3414,3.3414,3.3414,3.3414,3.3414,3.3414,3.3414,3.3374,3.2862,3.2621,3.2541,3.1979,3.1864,3.2056,3.1824,3.1926,3.223,3.8718,3.8718,3.8718,3.8718,3.8718,3.8718,3.8718,3.8718,3.8718,3.8718,3.8718,3.8718,3.8718,3.8718,3.8718,3.8718,3.8718,3.8718,3.8718,3.8718,3.8584,3.8321,3.8036,3.7702,3.7301,3.6941,3.65,3.5979,3.5685,3.5418,3.5191,3.5191,3.5191,3.5191,3.5191,3.5191,3.5177,3.4883,3.4629,3.4389,3.4028,3.4028,3.4162,3.3614,3.3708,3.4055,3.3587,3.3414,3.3414,3.3414,3.3414,3.3414,3.3414,3.3414,3.3414,3.3414,3.3414,3.3414,3.3414,3.3414,3.3414,3.3414,3.3414,3.3414,3.3414,3.3414,3.3414,3.3414,3.3414,3.3414,3.3414,3.3414,3.3414,3.3414,3.3414,3.3414,3.3414,3.3414,3.3414,3.3414,3.3414,3.3293,3.3013,3.2875,3.2875,3.3053,3.3066,3.3173,3.34,3.3414,3.3414,3.3414,3.3414,3.3414,3.3414,3.3414,3.3414,3.3414,3.3414,3.3414,3.3414,3.3414,3.3414,3.3414,3.3414,3.3414,3.3387,3.3026,3.2795,3.2554,3.2144,3.2051,3.1824,2.9547,2.9092,2.9246,3.8718,3.8718,3.8718,3.8718,3.8718,3.8718,3.8718,3.8718,3.8718,3.8718,3.8718,3.8718,3.8718,3.8718,3.8718,3.8718,3.8718,3.8718,3.8718,3.8718,3.8584,3.8321,3.8116,3.7823,3.7382,3.7088,3.6647,3.6072,3.5631,3.5351,3.5191,3.5191,3.5191,3.5191,3.5191,3.5191,3.5177,3.4883,3.475,3.4683,3.4122,3.4055,3.4255,3.3641,3.3614,3.3841,3.3521,3.3414,3.3414,3.3414,3.3414,3.3414,3.3414,3.3414,3.3414,3.3414,3.3414,3.3414,3.3414,3.3414,3.3414,3.3414,3.3414,3.3414,3.3414,3.3414,3.3414,3.3414,3.3414,3.3414,3.3414,3.3414,3.3414,3.3414,3.3414,3.3414,3.3414,3.3414,3.3414,3.3414,3.3414,3.3347,3.32,3.3053,3.3026,3.3173,3.3187,3.3253,3.34,3.3414,3.3414,3.3414,3.3414,3.3414,3.3414,3.3414,3.3414,3.3414,3.3414,3.3414,3.3414,3.3414,3.3414,3.3414,3.3414,3.3334,3.3074,3.1582,3.0796,3.0372,2.8801,2.821,2.8005,2.6502,2.6205,2.6217,3.8718,3.8718,3.8718,3.8718,3.8718,3.8718,3.8718,3.8718,3.8718,3.8718,3.8718,3.8718,3.8718,3.8691,3.8651,3.8718,3.8691,3.8651,3.8718,3.8718,3.8544,3.824,3.8183,3.7946,3.7315,3.7008,3.6607,3.6072,3.5538,3.5244,3.5191,3.5191,3.5191,3.5191,3.5191,3.5191,3.5177,3.4937,3.495,3.5057,3.4282,3.4108,3.4255,3.3641,3.344,3.348,3.3427,3.3414,3.3414,3.3414,3.3414,3.3414,3.3414,3.3414,3.3414,3.3414,3.3414,3.3414,3.3414,3.3414,3.3414,3.3414,3.3414,3.3414,3.3414,3.3414,3.3414,3.3414,3.3414,3.3414,3.3414,3.3414,3.3414,3.3414,3.3414,3.3414,3.3414,3.3414,3.3414,3.3414,3.3414,3.3414,3.3414,3.3414,3.3414,3.3414,3.3414,3.3414,3.3414,3.3414,3.3414,3.3414,3.3414,3.3414,3.3414,3.3414,3.3414,3.3414,3.3414,3.3414,3.3414,3.3414,3.3414,3.3364,3.2899,3.2568,3.2157,2.9168,2.7824,2.7301,2.4859,2.388,2.3831,2.3394,2.3111,2.2576,3.8718,3.8718,3.8718,3.8718,3.8718,3.8718,3.8718,3.8718,3.8718,3.8718,3.8718,3.8718,3.8718,3.8477,3.8437,3.8691,3.8477,3.8437,3.866,3.8718,3.8464,3.7889,3.7889,3.7595,3.6952,3.6727,3.6393,3.6072,3.5738,3.5444,3.5191,3.5191,3.5191,3.5191,3.5191,3.5191,3.5191,3.5151,3.5017,3.4842,3.4416,3.4282,3.4255,3.3641,3.3587,3.3788,3.3507,3.3414,3.3414,3.3414,3.3414,3.3414,3.3414,3.3414,3.3414,3.3414,3.3414,3.3414,3.3414,3.3414,3.3414,3.3414,3.3414,3.3414,3.3414,3.3414,3.3414,3.3414,3.3414,3.3414,3.3414,3.3414,3.3414,3.3414,3.3414,3.3414,3.3414,3.3414,3.3414,3.3414,3.3414,3.3414,3.3414,3.3414,3.3414,3.3414,3.3414,3.3414,3.3414,3.3414,3.3414,3.3414,3.3414,3.3414,3.3414,3.3414,3.3414,3.3414,3.3414,3.3414,3.3414,3.3414,3.3414,3.3263,3.0911,2.9814,2.954,2.6376,2.5026,2.4954,2.4189,2.388,2.3637,2.1343,1.9117,1.7141,3.8718,3.8718,3.8718,3.8718,3.8718,3.8718,3.8718,3.8718,3.8718,3.8718,3.8718,3.8718,3.8718,3.8437,3.8397,3.8691,3.8437,3.833,3.8495,3.8477,3.8183,3.7595,3.7569,3.7382,3.6885,3.6779,3.654,3.6072,3.5778,3.5485,3.5191,3.5191,3.511,3.495,3.495,3.4857,3.471,3.471,3.4629,3.4496,3.4202,3.4082,3.4028,3.3587,3.3494,3.3601,3.3467,3.3414,3.3414,3.3414,3.3414,3.3414,3.3414,3.3414,3.3414,3.3414,3.3414,3.3414,3.3414,3.3414,3.3414,3.3414,3.3414,3.3414,3.3414,3.3414,3.3414,3.3414,3.3414,3.3414,3.3414,3.3414,3.3414,3.3414,3.3414,3.3414,3.3414,3.3414,3.3414,3.3414,3.3414,3.3414,3.3414,3.3414,3.3414,3.3414,3.3253,3.324,3.34,3.3253,3.3173,3.3173,3.3334,3.2607,3.0914,3.1026,3.0343,2.8839,2.8839,2.9611,3.1113,3.1113,3.0281,2.8737,2.7516,2.693,2.6566,2.3562,2.2218,2.194,2.0187,1.9544,1.9405,1.8228,1.7105,1.6083]},{"header":{"parameterUnit":"m.s-1","parameterCategory":1,"la1":30.6,"la2":28.766,"lo1":-90.7593,"lo2":-88.6598,"dx":0.0162,"dy":0.0183,"nx":116,"ny":114,"refTime":"2023-01-20T06:00:00:Z","depth":0,"parameterNumber":3,"parameterNumberName":"V-component_of_WINDS"},"data":[0.0,0.0,0.0,0.0,0.0,0.0,0.0,0.0,0.0,0.0,0.0,0.0,0.0,0.0,0.0,0.0,0.0,0.0,0.0,0.0,0.0,0.0,0.0,0.0,0.0,0.0,0.0,0.0,0.0,0.0,0.0,0.0,0.0,0.0,0.0,0.0,0.0,0.0,0.0,0.0,0.0,0.0,0.0,0.0,0.0,0.0,0.0,0.0,0.0,0.0,0.0,0.0,0.0,0.0,0.0,0.0,0.0,0.0,0.0,0.0,0.0,0.0,0.0,0.0,0.0,0.0,0.0,0.0,0.0,0.0,0.0,0.0,0.0,0.0,0.0,0.0,0.0,0.0,0.0,0.0,0.0,0.0,0.0,0.0,0.0,0.0,0.0,0.0,0.0,0.0,0.0,0.0,0.0,0.0,0.0,0.0,0.0,0.0,0.0,0.0,0.0,0.0,0.0,0.0,0.0,0.0,0.0,0.0,0.0,0.0,0.0,0.0,0.0,0.0,0.0,0.0,0.0,0.0,0.0,0.0,0.0,0.0,0.0,0.0,0.0,0.0,0.0,0.0,0.0,0.0,0.0,0.0,0.0,0.0,0.0,0.0,0.0,0.0,0.0,0.0,0.0,0.0,0.0,0.0,0.0,0.0,0.0,0.0,0.0,0.0,0.0,0.0,0.0,0.0,0.0,0.0,0.0,0.0,0.0,0.0,0.0,0.0,0.0,0.0,0.0,0.0,0.0,0.0,0.0,0.0,0.0,0.0,0.0,0.0,0.0,0.0,0.0,0.0,0.0,0.0,0.0,0.0,0.0,0.0,0.0,0.0,0.0,0.0,0.0,0.0,0.0,0.0,0.0,0.0,0.0,0.0,0.0,0.0,0.0,0.0,0.0,0.0,0.0,0.0,0.0,0.0,0.0,0.0,0.0,0.0,0.0,0.0,0.0,0.0,0.0,0.0,0.0,0.0,0.0,0.0,0.0,0.0,0.0,0.0,0.0,0.0,0.0,0.0,0.0,0.0,0.0,0.0,0.0,0.0,0.0,0.0,0.0,0.0,0.0,0.0,0.0,0.0,0.0,0.0,0.0,0.0,0.0,0.0,0.0,0.0,0.0,0.0,0.0,0.0,0.0,0.0,0.0,0.0,0.0,0.0,0.0,0.0,0.0,0.0,0.0,0.0,0.0,0.0,0.0,0.0,0.0,0.0,0.0,0.0,0.0,0.0,0.0,0.0,0.0,0.0,0.0,0.0,0.0,0.0,0.0,0.0,0.0,0.0,0.0,0.0,0.0,0.0,0.0,0.0,0.0,0.0,0.0,0.0,0.0,0.0,0.0,0.0,0.0,0.0,0.0,0.0,0.0,0.0,0.0,0.0,0.0,0.0,0.0,0.0,0.0,0.0,0.0,0.0,0.0,0.0,0.0,0.0,0.0,0.0,0.0,0.0,0.0,0.0,0.0,0.0,0.0,0.0,0.0,0.0,0.0,0.0,0.0,0.0,0.0,0.0,0.0,0.0,0.0,0.0,0.0,0.0,0.0,0.0,0.0,0.0,0.0,0.0,0.0,0.0,0.0,0.0,0.0,0.0,0.0,0.0,0.0,0.0,0.0,0.0,0.0,0.0,0.0,0.0,0.0,0.0,0.0,0.0,0.0,0.0,0.0,0.0,0.0,0.0,0.0,0.0,0.0,0.0,0.0,0.0,0.0,0.0,0.0,0.0,0.0,0.0,0.0,0.0,0.0,0.0,0.0,0.0,0.0,0.0,0.0,0.0,0.0,0.0,0.0,0.0,0.0,0.0,0.0,0.0,0.0,0.0,0.0,0.0,0.0,0.0,0.0,0.0,0.0,0.0,0.0,0.0,0.0,0.0,0.0,0.0,0.0,0.0,0.0,0.0,0.0,0.0,0.0,0.0,0.0,0.0,0.0,0.0,0.0,0.0,0.0,0.0,0.0,0.0,0.0,0.0,0.0,0.0,0.0,0.0,0.0,0.0,0.0,0.0,0.0,0.0,0.0,0.0,0.0,0.0,0.0,0.0,0.0,0.0,0.0,0.0,0.0,0.0,0.0,0.0,0.0,0.0,0.0,0.0,0.0,0.0,0.0,0.0,0.0,0.0,0.0,0.0,0.0,0.0,0.0,0.0,0.0,0.0,0.0,0.0,0.0,0.0,0.0,0.0,0.0,0.0,0.0,0.0,0.0,0.0,0.0,0.0,0.0,0.0,0.0,0.0,0.0,0.0,0.0,0.0,0.0,0.0,0.0,0.0,0.0,0.0,0.0,0.0,0.0,0.0,0.0,0.0,0.0,0.0,0.0,0.0,0.0,0.0,0.0,0.0,0.0,0.0,0.0,0.0,0.0,0.0,0.0,0.0,0.0,0.0,0.0,0.0,0.0,0.0,0.0,0.0,0.0,0.0,0.0,0.0,0.0,0.0,0.0,0.0,0.0,0.0,0.0,0.0,0.0,0.0,0.0,0.0,0.0,0.0,0.0,0.0,0.0,0.0,0.0,0.0,0.0,0.0,0.0,0.0,0.0,0.0,0.0,0.0,0.0,0.0,0.0,0.0,0.0,0.0,0.0,0.0,0.0,0.0,0.0,0.0,0.0,0.0,0.0,0.0,0.0,0.0,0.0,0.0,0.0,0.0,0.0,0.0,0.0,0.0,0.0,0.0,0.0,0.0,0.0,0.0,0.0,0.0,0.0,0.0,0.0,0.0,0.0,0.0,0.0,0.0,0.0,0.0,0.0,0.0,0.0,0.0,0.0,0.0,0.0,0.0,0.0,0.0,0.0,0.0,0.0,0.0,0.0,0.0,0.0,0.0,0.0,0.0,0.0,0.0,0.0,0.0,0.0,0.0,0.0,0.0,0.0,0.0,0.0,0.0,0.0,0.0,0.0,0.0,0.0,0.0,0.0,0.0,0.0,0.0,0.0,0.0,0.0,0.0,0.0,0.0,0.0,0.0,0.0,0.0,0.0,0.0,0.0,0.0,0.0,0.0,0.0,0.0,0.0,0.0,0.0,0.0,0.0,0.0,0.0,0.0,0.0,0.0,0.0,0.0,0.0,0.0,0.0,0.0,0.0,0.0,0.0,0.0,0.0,0.0,0.0,0.0,0.0,0.0,0.0,0.0,0.0,0.0,0.0,0.0,0.0,0.0,0.0,0.0,0.0,0.0,0.0,0.0,0.0,0.0,0.0,0.0,0.0,0.0,0.0,0.0,0.0,0.0,0.0,0.0,0.0,0.0,0.0,0.0,0.0,0.0,0.0,0.0,0.0,0.0,0.0,0.0,0.0,0.0,0.0,0.0,0.0,0.0,0.0,0.0,0.0,0.0,0.0,0.0,0.0,0.0,0.0,0.0,0.0,0.0,0.0,0.0,0.0,0.0,0.0,0.0,0.0,0.0,0.0,0.0,0.0,0.0,0.0,0.0,0.0,0.0,0.0,0.0,0.0,0.0,0.0,0.0,0.0,0.0,0.0,0.0,0.0,0.0,0.0,0.0,0.0,0.0,0.0,0.0,0.0,0.0,0.0,0.0,0.0,0.0,0.0,0.0,0.0,0.0,0.0,0.0,0.0,0.0,0.0,0.0,0.0,0.0,0.0,0.0,0.0,0.0,0.0,0.0,0.0,0.0,0.0,0.0,0.0,0.0,0.0,0.0,0.0,0.0,0.0,0.0,0.0,0.0,0.0,0.0,0.0,0.0,0.0,0.0,0.0,0.0,0.0,0.0,0.0,0.0,0.0,0.0,0.0,0.0,0.0,0.0,0.0,0.0,0.0,0.0,0.0,0.0,0.0,0.0,0.0,0.0,0.0,0.0,0.0,0.0,0.0,0.0,0.0,0.0,0.0,0.0,0.0,0.0,0.0,0.0,0.0,0.0,0.0,0.0,0.0,0.0,0.0,0.0,0.0,0.0,0.0,0.0,0.0,0.0,0.0,0.0,0.0,0.0,0.0,0.0,0.0,0.0,0.0,0.0,0.0,0.0,0.0,0.0,0.0,0.0,0.0,0.0,0.0,0.0,0.0,0.0,0.0,0.0,0.0,0.0,0.0,0.0,0.0,0.0,0.0,0.0,0.0,0.0,0.0,0.0,0.0,0.0,0.0,0.0,0.0,0.0,0.0,0.0,0.0,0.0,0.0,0.0,0.0,0.0,0.0,0.0,0.0,0.0,0.0,0.0,0.0,0.0,0.0,0.0,0.0,0.0,0.0,0.0,0.0,0.0,0.0,0.0,0.0,0.0,0.0,0.0,0.0,0.0,0.0,0.0,0.0,0.0,0.0,0.0,0.0,0.0,0.0,0.0,0.0,0.0,0.0,0.0,0.0,0.0,0.0,0.0,0.0,0.0,0.0,0.0,0.0,0.0,0.0,0.0,0.0,0.0,0.0,0.0,0.0,0.0,0.0,0.0,0.0,0.0,0.0,0.0,0.0,0.0,0.0,0.0,0.0,0.0,0.0,0.0,0.0,0.0,0.0,0.0,0.0,0.0,0.0,0.0,0.0,0.0,0.0,0.0,0.0,0.0,0.0,0.0,0.0,0.0,0.0,0.0,0.0,0.0,0.0,0.0,0.0,0.0,0.0,0.0,0.0,0.0,0.0,0.0,0.0,0.0,0.0,0.0,0.0,0.0,0.0,0.0,0.0,0.0,0.0,0.0,0.0,0.0,0.0,0.0,0.0,0.0,0.0,0.0,0.0,0.0,0.0,0.0,0.0,0.0,0.0,0.0,0.0,0.0,0.0,0.0,0.0,0.0,0.0,0.0,0.0,0.0,0.0,0.0,0.0,0.0,0.0,0.0,0.0,0.0,0.0,0.0,0.0,0.0,0.0,0.0,0.0,0.0,0.0,0.0,0.0,0.0,0.0,0.0,0.0,0.0,0.0,0.0,0.0,0.0,0.0,0.0,0.0,0.0,0.0,0.0,0.0,0.0,0.0,0.0,0.0,0.0,0.0,0.0,0.0,0.0,0.0,0.0,0.0,0.0,0.0,0.0,0.0,0.0,0.0,0.0,0.0,0.0,0.0,0.0,0.0,0.0,0.0,0.0,0.0,0.0,0.0,0.0,0.0,0.0,0.0,0.0,0.0,0.0,0.0,0.0,0.0,0.0,0.0,0.0,0.0,0.0,0.0,0.0,0.0,0.0,0.0,0.0,0.0,0.0,0.0,0.0,0.0,0.0,0.0,0.0,0.0,0.0,0.0,0.0,0.0,0.0,0.0,0.0,0.0,0.0,0.0,0.0,0.0,0.0,0.0,0.0,0.0,0.0,0.0,0.0,0.0,0.0,0.0,0.0,0.0,0.0,0.0,0.0,0.0,0.0,0.0,0.0,0.0,0.0,0.0,0.0,0.0,0.0,0.0,0.0,0.0,0.0,0.0,0.0,0.0,0.0,0.0,0.0,0.0,0.0,0.0,0.0,0.0,0.0,0.0,0.0,0.0,0.0,0.0,0.0,0.0,0.0,0.0,0.0,0.0,0.0,0.0,0.0,0.0,0.0,0.0,0.0,0.0,0.0,0.0,0.0,0.0,0.0,0.0,0.0,0.0,0.0,0.0,0.0,0.0,0.0,0.0,0.0,0.0,0.0,0.0,0.0,0.0,0.0,0.0,0.0,0.0,0.0,0.0,0.0,0.0,0.0,0.0,0.0,0.0,0.0,0.0,0.0,0.0,0.0,0.0,0.0,0.0,0.0,0.0,0.0,0.0,0.0,0.0,0.0,0.0,0.0,0.0,0.0,0.0,0.0,0.0,0.0,0.0,0.0,0.0,0.0,0.0,0.0,0.0,0.0,0.0,0.0,0.0,0.0,0.0,0.0,0.0,0.0,0.0,0.0,0.0,0.0,0.0,0.0,0.0,0.0,0.0,0.0,0.0,0.0,0.0,0.0,0.0,0.0,0.0,0.0,0.0,0.0,0.0,0.0,0.0,0.0,0.0,0.0,0.0,0.0,0.0,0.0,0.0,0.0,0.0,0.0,0.0,0.0,0.0,0.0,0.0,0.0,0.0,0.0,0.0,0.0,0.0,0.0,0.0,0.0,0.0,0.0,0.0,0.0,0.0,0.0,0.0,0.0,0.0,0.0,0.0,0.0,0.0,0.0,3.9918,0.0,0.0,0.0,0.0,0.0,0.0,0.0,0.0,0.0,0.0,0.0,0.0,0.0,0.0,0.0,0.0,0.0,0.0,0.0,0.0,0.0,0.0,0.0,0.0,0.0,0.0,0.0,0.0,0.0,0.0,0.0,0.0,0.0,0.0,0.0,0.0,0.0,0.0,0.0,0.0,0.0,0.0,0.0,0.0,0.0,0.0,0.0,0.0,0.0,0.0,0.0,0.0,0.0,0.0,0.0,0.0,0.0,0.0,0.0,0.0,0.0,0.0,0.0,0.0,0.0,0.0,0.0,0.0,0.0,0.0,0.0,0.0,0.0,0.0,0.0,0.0,0.0,0.0,0.0,0.0,0.0,0.0,0.0,0.0,0.0,0.0,0.0,0.0,0.0,0.0,0.0,0.0,0.0,0.0,0.0,0.0,0.0,0.0,0.0,0.0,0.0,0.0,0.0,0.0,0.0,0.0,0.0,0.0,0.0,0.0,0.0,0.0,0.0,0.0,0.0,0.0,4.0606,0.0,0.0,0.0,0.0,0.0,0.0,0.0,0.0,0.0,0.0,0.0,0.0,0.0,0.0,0.0,0.0,0.0,0.0,0.0,0.0,0.0,0.0,0.0,0.0,0.0,0.0,0.0,0.0,0.0,0.0,0.0,0.0,0.0,0.0,0.0,0.0,0.0,0.0,0.0,0.0,0.0,0.0,0.0,0.0,0.0,0.0,0.0,0.0,0.0,0.0,0.0,0.0,0.0,0.0,0.0,0.0,0.0,0.0,0.0,0.0,0.0,0.0,0.0,0.0,0.0,0.0,0.0,0.0,0.0,0.0,0.0,0.0,0.0,0.0,0.0,0.0,0.0,0.0,0.0,0.0,0.0,0.0,0.0,0.0,0.0,0.0,0.0,0.0,0.0,0.0,0.0,0.0,0.0,0.0,0.0,0.0,0.0,0.0,0.0,0.0,0.0,0.0,0.0,0.0,0.0,0.0,0.0,0.0,0.0,0.0,4.7489,4.7608,4.704,4.5894,4.4157,4.2132,4.0199,0.0,0.0,0.0,0.0,0.0,0.0,0.0,0.0,0.0,0.0,0.0,0.0,0.0,0.0,0.0,0.0,0.0,0.0,0.0,0.0,0.0,0.0,0.0,0.0,0.0,0.0,0.0,0.0,0.0,0.0,0.0,0.0,0.0,0.0,0.0,0.0,0.0,0.0,3.7816,3.8081,3.8662,3.8761,3.836,3.6741,0.0,0.0,0.0,0.0,0.0,0.0,0.0,0.0,0.0,0.0,0.0,0.0,0.0,0.0,0.0,0.0,0.0,0.0,0.0,0.0,0.0,0.0,0.0,0.0,0.0,0.0,0.0,0.0,0.0,0.0,0.0,0.0,0.0,0.0,0.0,0.0,0.0,0.0,0.0,0.0,0.0,0.0,0.0,3.1732,3.1527,0.0,0.0,0.0,0.0,0.0,0.0,0.0,0.0,0.0,0.0,0.0,0.0,0.0,0.0,4.6381,4.6471,4.6621,4.68,4.7549,4.8019,4.8199,4.8768,4.8947,4.8738,4.79,0.0,4.2771,4.2511,0.0,0.0,0.0,0.0,0.0,0.0,0.0,0.0,0.0,0.0,0.0,0.0,0.0,0.0,0.0,0.0,0.0,0.0,0.0,0.0,0.0,0.0,0.0,0.0,0.0,0.0,0.0,0.0,0.0,0.0,0.0,0.0,0.0,0.0,0.0,0.0,3.9858,4.1067,4.1224,4.1465,4.1805,4.2087,4.0333,3.9477,3.9372,3.9484,0.0,0.0,0.0,0.0,0.0,0.0,0.0,0.0,0.0,0.0,0.0,0.0,0.0,0.0,0.0,0.0,0.0,0.0,0.0,0.0,0.0,0.0,0.0,0.0,0.0,0.0,0.0,0.0,0.0,0.0,0.0,0.0,0.0,0.0,0.0,0.0,0.0,0.0,0.0,3.4507,3.3473,3.2867,3.3796,3.4125,0.0,0.0,0.0,0.0,0.0,0.0,0.0,0.0,0.0,4.4095,4.6667,4.8514,4.9471,4.9883,5.0451,5.1199,5.1858,5.2546,5.3234,5.3198,5.3169,5.3109,5.2067,5.0361,4.8065,4.5214,4.3559,4.2731,0.0,0.0,0.0,0.0,0.0,0.0,0.0,0.0,0.0,0.0,0.0,0.0,0.0,0.0,0.0,0.0,0.0,0.0,0.0,0.0,0.0,3.6826,0.0,0.0,0.0,0.0,0.0,0.0,0.0,0.0,0.0,0.0,0.0,3.9491,4.2564,4.4267,4.4646,4.4925,4.5323,4.5762,4.4825,4.3217,4.1151,4.0634,4.0696,0.0,0.0,0.0,0.0,0.0,0.0,0.0,0.0,0.0,0.0,0.0,0.0,0.0,0.0,0.0,0.0,0.0,0.0,0.0,0.0,0.0,0.0,0.0,0.0,0.0,0.0,0.0,0.0,0.0,0.0,0.0,0.0,0.0,0.0,0.0,0.0,0.0,0.0,3.5848,3.4904,3.3822,3.5173,3.5991,0.0,0.0,0.0,0.0,0.0,0.0,4.1759,4.4889,4.7161,4.8325,5.0383,5.1864,5.2701,5.3384,5.4311,5.5478,5.6515,5.757,5.8628,5.8531,5.811,5.7388,5.6239,5.4682,5.2606,4.7967,4.5205,4.3888,4.3838,4.3748,0.0,4.4526,4.4805,4.4775,0.0,0.0,0.0,0.0,0.0,0.0,0.0,0.0,0.0,0.0,0.0,0.0,0.0,0.0,3.8834,4.0038,3.911,3.8392,0.0,0.0,0.0,0.0,0.0,3.6464,3.6493,0.0,0.0,4.2481,4.4942,4.6779,4.8079,4.9291,4.9867,4.9897,4.986,4.8043,4.4824,4.1724,4.1504,4.306,0.0,0.0,0.0,0.0,0.0,0.0,0.0,0.0,0.0,0.0,0.0,0.0,0.0,0.0,0.0,0.0,0.0,0.0,0.0,0.0,0.0,0.0,0.0,0.0,0.0,0.0,0.0,0.0,0.0,0.0,0.0,0.0,0.0,0.0,0.0,0.0,0.0,0.0,0.0,3.3266,3.6008,0.0,0.0,0.0,0.0,4.089,4.4185,4.6229,4.6361,4.9816,5.2145,5.2856,5.4227,5.5538,5.6795,5.7457,5.8145,5.886,6.0897,6.2198,6.2848,6.4153,6.3381,6.0921,6.0197,5.8057,5.467,5.0085,4.8109,4.781,4.5933,4.5963,4.698,4.642,4.6211,4.6121,0.0,0.0,0.0,0.0,0.0,0.0,0.0,0.0,0.0,0.0,0.0,0.0,0.0,4.0479,4.1164,4.1662,4.1983,4.1294,3.92,0.0,0.0,0.0,0.0,3.7302,3.896,0.0,4.4244,4.5669,4.8656,5.0331,5.081,5.1708,5.2127,5.2127,5.1678,5.084,4.9464,4.5304,4.3718,4.3808,4.1833,4.1534,0.0,0.0,0.0,0.0,0.0,0.0,0.0,0.0,0.0,0.0,0.0,0.0,0.0,0.0,0.0,0.0,0.0,0.0,0.0,0.0,0.0,0.0,0.0,0.0,0.0,0.0,0.0,0.0,0.0,0.0,0.0,0.0,0.0,0.0,0.0,0.0,0.0,3.9333,4.1357,0.0,0.0,4.4706,4.6003,4.7086,4.9467,5.1267,5.2126,5.4196,5.6047,5.7599,5.853,5.9638,6.0952,6.2041,6.2717,6.2989,6.4643,6.554,6.573,6.5797,6.5318,6.4323,6.2731,6.0919,5.8837,5.5855,5.2587,4.9411,4.8319,4.79,4.7997,4.8603,4.8813,4.8783,0.0,0.0,0.0,0.0,0.0,0.0,0.0,0.0,0.0,0.0,0.0,3.908,4.0894,4.2661,4.3978,4.4687,4.4466,4.321,4.0576,0.0,0.0,0.0,3.7571,3.9397,4.2013,4.5274,4.7937,4.9938,5.2124,5.3417,5.3867,5.4534,5.4599,5.4211,5.4195,5.3966,5.3294,4.9553,4.695,4.5125,4.291,4.2821,4.3818,0.0,0.0,0.0,0.0,0.0,0.0,0.0,0.0,0.0,0.0,0.0,0.0,0.0,0.0,0.0,0.0,0.0,0.0,0.0,0.0,0.0,0.0,0.0,0.0,0.0,0.0,0.0,0.0,0.0,0.0,0.0,0.0,0.0,0.0,0.0,4.351,4.4693,4.6636,4.8172,4.8918,5.0047,5.1209,5.2348,5.4119,5.5777,5.7124,5.8201,5.9488,6.1072,6.1996,6.2882,6.3761,6.5142,6.5808,6.5835,6.7215,6.7874,6.7874,6.7916,6.7533,6.6792,6.5416,6.368,6.1712,6.0129,5.7021,5.309,5.1791,5.0893,5.0391,5.1236,5.1415,5.1146,0.0,0.0,0.0,0.0,0.0,0.0,0.0,0.0,0.0,0.0,3.8422,4.0984,4.2381,4.4855,4.7249,4.9187,4.6292,4.3808,4.253,3.929,0.0,0.0,3.9727,4.272,4.5424,4.8663,5.191,5.5185,5.5279,5.5965,5.718,5.7845,5.748,5.6333,5.7574,5.7456,5.6162,5.4186,5.1133,4.7339,4.4566,4.4207,4.5155,0.0,0.0,0.0,0.0,0.0,0.0,0.0,0.0,0.0,0.0,0.0,0.0,0.0,0.0,0.0,0.0,0.0,0.0,0.0,0.0,0.0,0.0,0.0,0.0,0.0,0.0,0.0,0.0,0.0,0.0,0.0,0.0,0.0,4.4813,4.6938,4.8638,4.893,5.1511,5.2885,5.1958,5.4036,5.5718,5.6402,5.8201,5.9847,6.1136,6.1879,6.2536,6.3165,6.4488,6.5196,6.5196,6.6574,6.7273,6.7298,6.8626,6.9265,6.9313,7.0699,7.0195,6.8281,6.8248,6.6345,6.3166,6.254,6.1059,5.889,5.6286,5.488,5.4311,5.4311,5.3832,5.3079,0.0,0.0,0.0,0.0,0.0,0.0,0.0,0.0,0.0,0.0,3.9787,4.272,4.4975,4.7975,5.0069,5.0631,4.7646,4.5005,4.3229,0.0,0.0,3.9996,4.1852,4.4945,4.9494,5.1894,5.4455,5.7272,5.7787,5.8204,5.8541,5.8723,5.8633,5.8318,5.8686,5.8633,5.8231,5.7214,5.5598,5.3348,4.8775,4.686,4.6591,0.0,0.0,0.0,0.0,0.0,0.0,0.0,0.0,0.0,0.0,0.0,0.0,0.0,0.0,0.0,0.0,0.0,0.0,0.0,0.0,0.0,0.0,0.0,0.0,0.0,0.0,0.0,0.0,0.0,0.0,0.0,0.0,5.0317,4.8291,5.009,5.2395,5.4609,5.6245,5.7881,5.9739,6.0546,6.1192,6.1792,6.281,6.3529,6.3917,6.5106,6.5637,6.5305,6.6668,6.7441,6.7441,6.8266,6.8937,6.9452,7.0309,7.0722,7.0745,7.112,7.0996,7.0432,6.9894,6.8008,6.5307,6.4583,6.2829,6.0356,5.8171,5.6915,5.6286,5.6286,5.5598,5.473,0.0,0.0,0.0,0.0,0.0,0.0,0.0,0.0,0.0,0.0,4.1044,4.4427,4.648,4.965,5.1528,5.1206,4.8215,4.5364,4.314,0.0,0.0,4.2521,4.5214,4.8884,5.36,5.5975,5.8693,6.1878,6.1727,6.1939,6.2447,6.1862,6.1322,6.0764,6.0768,6.0421,5.9907,5.9219,5.8844,5.841,5.4744,5.2368,5.0687,4.7998,4.7555,4.8161,4.6142,4.5992,4.645,4.4715,0.0,0.0,0.0,0.0,0.0,0.0,0.0,0.0,0.0,0.0,0.0,0.0,0.0,0.0,0.0,0.0,0.0,0.0,0.0,0.0,0.0,0.0,0.0,0.0,5.3084,5.5773,5.6004,5.6675,5.8199,6.1106,6.2424,6.4081,6.6445,6.6057,6.5838,6.6174,6.571,6.5831,6.6754,6.704,6.7426,6.7907,6.9037,6.9631,6.9631,7.0532,7.1247,7.1647,7.1713,7.1751,7.1751,7.1424,7.1289,0.0,7.0229,6.8567,6.6524,6.5528,6.3702,0.0,0.0,0.0,0.0,0.0,5.7451,5.6951,0.0,0.0,0.0,0.0,0.0,0.0,0.0,0.0,0.0,0.0,0.0,4.5783,4.707,5.0122,5.1858,5.1236,4.8215,4.5274,0.0,0.0,4.2821,4.5074,4.9562,5.3797,5.7679,6.0391,6.3528,6.7109,6.5974,6.5999,6.7086,6.5705,6.4512,6.3433,6.3193,6.2503,6.1403,6.0969,6.1392,6.2327,6.1288,5.9204,5.624,5.2093,5.2091,5.3774,5.0241,4.8541,4.7758,4.6322,0.0,0.0,0.0,0.0,0.0,0.0,0.0,0.0,0.0,0.0,0.0,0.0,0.0,0.0,0.0,0.0,0.0,0.0,0.0,0.0,0.0,0.0,0.0,0.0,5.7337,6.1358,6.5503,6.5172,6.5376,6.7654,6.8947,7.0152,7.1443,7.0331,6.9476,6.9273,6.7604,6.7454,6.9445,0.0,0.0,0.0,0.0,7.1952,7.1853,7.3006,7.3612,7.3635,7.2969,7.2597,7.2496,7.1853,7.1492,7.1346,7.0072,6.874,6.7317,6.6074,6.4358,6.2419,6.0987,6.0111,5.9652,5.9661,5.955,0.0,0.0,0.0,0.0,0.0,0.0,0.0,0.0,0.0,0.0,3.8853,4.2671,4.5603,4.642,4.9411,5.1325,5.1206,4.8215,4.5852,0.0,4.4616,4.6381,5.0481,5.463,5.8219,6.1178,6.3843,6.5866,6.7185,6.6926,6.6958,6.7128,6.5744,6.5262,6.5462,6.4323,6.3668,6.3525,6.4509,6.4463,6.3814,6.4703,6.3122,6.0133,5.8696,5.6893,5.4901,5.3618,5.2666,5.1768,4.989,4.9275,4.9056,4.7332,0.0,0.0,0.0,0.0,0.0,0.0,0.0,0.0,0.0,0.0,0.0,0.0,0.0,0.0,0.0,0.0,0.0,0.0,0.0,0.0,5.8542,6.2289,6.6236,6.9748,7.1992,7.2839,7.1715,7.1807,7.1802,7.1397,7.111,7.0398,6.9147,6.9793,7.0453,7.0903,7.2962,0.0,7.3016,7.4221,7.4609,7.4003,7.4273,7.439,7.439,0.0,0.0,7.3297,7.3161,7.2732,7.2168,7.1906,7.0646,6.8797,6.8528,6.7204,6.5201,6.3295,6.2752,6.3108,6.3126,6.2427,6.1606,0.0,0.0,0.0,0.0,0.0,0.0,0.0,0.0,0.0,0.0,4.2282,4.4586,4.5224,4.7646,4.8843,4.7826,4.5942,0.0,4.5762,4.7339,5.0494,5.5505,5.8585,6.1947,6.5714,6.7399,6.8928,7.0353,7.0353,7.0353,7.0329,6.8948,6.8496,6.877,6.7719,6.7237,6.7293,6.7982,6.8303,6.8396,6.8737,6.8052,6.6512,6.3422,6.1602,6.0495,5.8846,5.7579,5.6389,5.4753,5.3726,5.2916,5.1609,4.9824,4.8289,0.0,0.0,0.0,0.0,0.0,0.0,0.0,0.0,0.0,0.0,0.0,0.0,0.0,0.0,5.7293,0.0,0.0,6.4216,6.529,6.863,7.2076,7.4861,7.6795,7.7376,7.6032,7.6162,7.6159,7.5691,7.5666,7.5027,7.3476,7.3796,7.4373,7.5093,7.5897,7.6364,7.6374,7.6653,7.6657,7.6318,7.6284,7.6115,7.5743,7.5337,7.4965,7.4559,7.3838,7.3477,7.3397,7.1982,7.0733,6.9687,6.8634,6.8004,6.7597,6.6563,6.5543,6.468,6.4954,6.4616,6.4151,0.0,0.0,0.0,0.0,0.0,0.0,0.0,0.0,0.0,0.0,4.1713,4.3389,4.3868,4.5484,4.5822,0.0,0.0,4.4984,4.7108,5.0338,5.4577,5.9961,6.2237,6.546,6.9916,7.0753,7.2052,7.394,7.394,7.394,7.3893,7.2577,7.1994,7.2083,7.1264,7.0904,7.0936,7.1204,7.1903,7.2769,7.2432,7.2606,7.2549,6.7785,6.6231,6.6186,6.3966,6.1708,5.9701,5.8986,5.7249,5.5357,5.5128,5.3795,5.2362,5.2697,5.2142,0.0,0.0,0.0,0.0,0.0,0.0,0.0,0.0,0.0,5.474,5.743,6.0421,6.3107,6.4895,6.7871,7.0427,7.1563,7.4407,7.7175,7.9205,8.0223,8.0619,8.0243,8.0387,8.0388,8.0056,8.0084,7.9462,7.7839,7.7528,7.7954,7.9167,7.8298,7.8233,7.9279,7.8585,7.8145,7.8,7.8145,7.7841,7.7096,7.6454,7.6149,7.6082,7.4786,7.439,7.4658,7.1904,7.0717,7.0578,6.8747,6.8626,6.9609,6.9609,6.8277,6.6444,6.6727,6.674,6.6654,0.0,0.0,0.0,0.0,0.0,0.0,0.0,0.0,0.0,0.0,0.0,0.0,0.0,0.0,0.0,0.0,4.5214,4.7938,5.0488,5.3773,5.8061,6.3481,6.6227,6.9072,7.2158,7.3462,7.4553,7.5439,7.5439,7.5439,7.5415,7.4074,7.3774,7.4291,7.2973,7.2348,7.243,7.3704,7.3976,7.3671,7.4756,7.5286,7.5111,7.3187,7.0597,6.7815,6.6874,6.3176,5.8937,6.0179,5.8784,5.6755,5.804,5.8083,5.7284,5.5476,5.4128,5.2825,5.1144,0.0,0.0,4.8084,4.9343,5.1432,0.0,0.0,5.9807,6.302,6.5532,6.7663,6.9282,7.1507,7.3573,7.5032,7.7199,7.9243,8.0733,8.22,8.332,8.3927,8.2881,8.1597,8.0223,8.0112,7.9462,7.7896,7.8995,7.978,7.998,8.0534,8.0589,8.0107,7.9363,7.8653,7.8034,7.8653,7.8619,7.7899,7.7797,7.7764,7.7705,7.6893,7.6183,7.5473,7.3169,7.2154,7.2121,7.1219,7.0939,7.1075,7.1075,7.0883,7.0557,6.9973,6.9309,6.8769,0.0,0.0,0.0,0.0,0.0,0.0,0.0,0.0,0.0,0.0,0.0,0.0,0.0,0.0,0.0,4.1822,4.5185,4.8596,5.1588,5.6418,6.1583,6.7044,6.9524,7.2148,7.5035,7.5648,7.6284,7.7029,7.7029,7.7266,7.7647,7.7119,7.7237,7.7889,7.7706,7.8066,7.8749,7.9349,7.9851,8.0179,7.9835,7.9155,7.8159,7.6076,7.2963,6.9426,6.7569,6.4814,0.0,0.0,6.1011,6.0204,6.1272,6.0331,5.861,5.771,5.5887,5.3615,5.1277,5.0136,0.0,0.0,5.2348,5.5112,5.9134,6.1564,6.414,6.8275,7.0906,7.3179,7.5628,7.7539,7.9065,0.0,8.1409,8.2529,8.3105,8.3726,8.3964,8.3362,8.3152,8.2596,8.1444,8.2184,8.204,8.0504,8.1846,8.2509,8.21,8.2398,8.2238,8.1494,8.075,8.0445,8.0547,8.0445,8.0006,7.9261,7.9261,7.9058,7.8619,7.7874,7.7096,7.6318,7.4931,7.3815,7.2969,7.2259,7.1684,7.1289,7.1289,7.1289,7.1188,7.0466,6.9992,6.9688,0.0,0.0,0.0,0.0,0.0,0.0,0.0,0.0,0.0,0.0,0.0,0.0,0.0,0.0,0.0,4.1403,4.4855,4.8506,5.1977,5.7562,6.3417,6.9446,7.1541,7.4132,7.7444,7.7705,7.8179,7.8914,7.9092,7.9498,8.0006,8.0006,8.031,8.0843,8.1698,8.259,8.3425,8.3775,8.439,8.5095,8.3748,8.2274,8.0516,7.7193,7.3587,7.0038,6.7476,6.4914,0.0,0.0,6.1197,6.1061,6.2212,6.1211,5.952,5.8878,5.6383,5.3497,5.1959,5.1643,5.2234,5.4077,5.6789,6.0161,6.4517,6.6877,6.9353,7.3675,7.598,7.8044,8.0615,8.1968,8.2949,8.3693,8.4242,8.4614,8.4614,8.4242,8.3498,8.2272,8.2205,8.2124,8.1708,8.3221,8.3881,8.2909,8.392,8.4377,8.3828,8.3625,8.3253,8.2712,8.2002,8.1866,8.2382,8.1866,8.1325,8.0818,8.0378,8.004,7.9667,7.872,7.801,7.7435,7.6217,7.51,7.4018,7.2868,7.209,7.1582,7.1357,7.1289,7.1222,7.0703,7.05,7.0432,0.0,0.0,0.0,0.0,0.0,0.0,0.0,0.0,0.0,0.0,0.0,0.0,0.0,0.0,4.1403,4.1403,4.4436,4.8005,5.1947,5.6622,6.26,7.0119,7.1861,7.4631,7.8941,7.9735,8.0445,8.1215,8.1934,8.2306,8.2306,8.2306,8.2306,8.2392,8.3581,8.4151,8.4235,8.5422,8.593,8.5903,8.5066,8.3784,8.1738,7.6278,7.2248,6.9222,6.6875,0.0,0.0,0.0,5.8134,5.734,5.9539,6.0689,6.0791,5.8558,5.5126,5.2308,5.3775,5.4931,5.6422,5.9384,6.3153,6.7036,7.0717,7.3519,7.626,7.9329,8.0581,8.1621,8.3118,8.3422,8.3693,8.4444,8.458,8.4614,8.4614,8.3362,8.2171,8.1393,8.0073,7.9507,0.0,8.2246,8.3802,8.4493,8.4553,8.458,8.458,8.3896,8.349,8.3456,8.2746,8.2408,8.2408,8.2408,8.2374,8.234,8.0885,8.0547,8.1156,7.9735,7.9034,7.8898,7.6657,7.5676,7.5473,7.3274,7.2394,7.2293,7.1582,7.1289,7.1289,7.1255,7.1255,7.1255,0.0,0.0,0.0,0.0,0.0,0.0,0.0,0.0,0.0,0.0,0.0,0.0,0.0,0.0,0.0,0.0,4.5455,4.8374,5.1097,5.7738,6.358,6.7981,7.2852,7.6378,7.8348,7.9566,8.0547,8.1317,8.1528,8.2171,8.3144,8.3941,8.4573,8.513,8.6311,8.731,8.8078,8.8532,8.8534,8.8076,8.6225,8.4173,8.1633,7.5977,7.1198,6.7078,0.0,0.0,0.0,0.0,0.0,5.6274,5.7509,5.778,5.7221,5.548,5.494,5.5117,5.6137,5.9318,6.3027,6.5875,6.9328,7.2994,7.6567,7.8058,7.9397,8.1866,8.1426,8.0851,8.1858,8.1629,8.1562,8.2272,8.3659,8.4614,8.4614,8.464,8.3456,8.0209,8.0276,0.0,0.0,0.0,0.0,8.3761,8.3862,8.4099,8.458,8.4343,8.4234,8.4234,8.3524,8.3355,8.3836,8.3389,8.2881,8.2408,8.0919,8.031,8.0547,8.0073,7.9837,7.9769,7.8517,7.7401,7.6352,7.4593,7.3274,7.2326,7.1594,7.1289,7.1289,7.1289,7.1289,7.1289,0.0,0.0,0.0,0.0,0.0,0.0,0.0,0.0,0.0,0.0,0.0,0.0,0.0,0.0,0.0,0.0,0.0,4.8095,5.0726,5.6434,6.1278,6.4821,6.9311,7.2428,7.395,7.4931,7.6048,7.7324,7.822,7.9537,8.1301,8.2694,8.374,8.4542,8.6028,8.7109,8.7893,8.8358,8.7723,8.6207,8.4095,8.1102,7.7342,7.221,6.7649,0.0,0.0,0.0,0.0,0.0,0.0,5.4989,5.548,5.531,5.4921,5.504,5.6263,5.8144,6.0604,6.4705,6.8969,7.1953,7.4954,7.7939,8.0766,8.1393,8.1629,8.2509,8.1156,7.9803,7.9735,7.8653,7.8314,7.9895,8.1088,8.2314,8.3633,8.3592,8.2441,7.9803,7.987,7.9667,0.0,0.0,0.0,8.3321,8.349,8.3828,8.4546,8.4614,8.4614,8.4614,8.414,8.4133,8.4614,8.4133,8.3389,8.2408,8.1156,8.0445,8.0209,8.0209,8.0209,8.0175,7.9431,7.8416,7.7164,7.5337,7.3883,7.2699,7.1684,7.1289,7.1289,7.1289,7.1289,7.1289,0.0,0.0,0.0,0.0,0.0,0.0,0.0,0.0,0.0,0.0,0.0,0.0,0.0,0.0,0.0,0.0,0.0,0.0,5.0743,5.297,5.621,6.0886,6.193,6.37,6.6487,6.6656,6.7781,7.0046,7.2339,7.461,7.6911,7.8581,7.9799,8.0624,8.2649,8.3544,8.362,8.4764,8.3434,8.0408,7.8778,7.4853,6.9544,6.546,0.0,0.0,0.0,0.0,0.0,5.3518,5.3518,5.3551,5.3619,5.3687,5.4363,5.7306,5.9165,6.1432,6.6905,7.0876,7.4306,7.7523,7.9898,8.1824,8.3186,8.3422,8.2949,8.1418,7.9803,7.8247,0.0,0.0,7.4413,7.7333,7.7536,7.8551,8.2137,8.0818,7.9701,0.0,0.0,0.0,0.0,0.0,0.0,8.3287,0.0,8.3795,8.4546,8.4614,8.4614,8.4614,8.4614,8.4614,8.4614,8.4546,8.3802,8.2408,8.1629,8.0885,8.0209,8.0209,8.0209,8.0175,7.9464,7.872,7.7831,7.5642,7.4255,7.3364,7.1921,7.1323,7.1289,7.1289,7.1289,7.1289,0.0,0.0,0.0,0.0,0.0,0.0,0.0,0.0,0.0,0.0,0.0,0.0,0.0,0.0,0.0,0.0,0.0,0.0,4.9174,5.2555,5.5259,5.7066,6.0517,6.2753,6.3497,6.4613,6.6004,6.765,6.8289,6.9431,7.1078,7.3007,7.4029,7.4297,7.6313,7.7206,7.7222,7.7563,7.6533,7.447,0.0,6.9842,6.7029,0.0,0.0,0.0,0.0,0.0,5.3518,5.3518,5.3856,5.4431,5.4955,5.6274,5.8168,6.1197,6.4653,6.8223,7.1285,7.5594,7.955,8.0953,8.2544,8.3727,8.3524,8.2644,8.1148,7.8551,7.5506,7.2473,6.9835,7.121,0.0,7.5168,7.9473,0.0,8.5486,8.5283,0.0,8.2103,0.0,8.0919,8.0006,8.0412,0.0,0.0,8.2983,8.3227,8.4512,8.4614,8.4614,8.4614,8.4614,8.4614,8.4614,8.4065,8.3321,8.2408,8.1629,8.0885,8.0209,8.0209,8.0209,8.0175,8.0006,7.9194,7.7933,7.6792,7.5202,7.3432,7.2462,7.1785,7.1289,7.1289,7.1289,7.1289,0.0,0.0,0.0,0.0,0.0,0.0,0.0,0.0,0.0,0.0,0.0,0.0,0.0,0.0,0.0,0.0,0.0,0.0,0.0,5.0924,5.2469,5.3213,5.5344,5.6977,5.7942,5.8455,5.994,6.2405,6.2781,6.4081,6.6197,6.7744,6.8672,6.9086,7.0931,7.1725,7.1762,7.2129,0.0,0.0,0.0,0.0,0.0,0.0,0.0,0.0,0.0,5.4854,5.504,5.5699,5.619,5.6833,5.8573,6.04,6.2651,6.6339,6.9891,7.3308,7.6521,8.0276,8.3422,8.42,8.4742,8.4505,8.2103,8.0682,7.845,7.351,7.0297,6.7557,6.4884,6.7184,7.0263,7.2743,0.0,0.0,8.5527,8.5865,8.5418,0.0,8.3896,0.0,8.2746,8.3016,8.3727,0.0,8.3998,8.387,8.508,8.5148,8.5148,8.5148,8.4783,8.4614,8.4614,8.3862,8.3118,8.2408,8.1629,8.0885,8.0209,8.0209,8.0209,8.0209,0.0,7.9363,7.7967,7.7198,7.5743,7.3916,7.3172,7.2631,7.2259,7.2259,7.2259,7.2259,0.0,0.0,0.0,0.0,0.0,0.0,0.0,0.0,0.0,0.0,0.0,0.0,0.0,0.0,0.0,0.0,0.0,0.0,0.0,0.0,4.9335,5.0054,4.9477,5.0062,5.2091,5.1515,5.283,5.6177,5.6909,5.8707,6.1456,6.2477,6.3319,6.4077,0.0,0.0,0.0,0.0,0.0,0.0,0.0,0.0,0.0,0.0,0.0,0.0,5.3518,5.4735,5.6697,5.8878,5.9723,6.04,6.3463,6.5527,6.7726,7.2157,7.4931,7.7502,8.1731,8.437,8.6061,8.6636,8.6061,8.4167,7.9667,7.7773,7.4897,6.759,6.4884,6.3226,6.1095,6.3362,6.6846,7.0804,7.5821,8.0589,8.4478,8.5053,8.5317,8.5993,8.6088,8.6027,8.596,8.5953,8.6196,8.6873,8.573,8.5317,8.5892,8.5851,8.5723,8.5621,8.4979,8.4614,8.4614,8.3964,8.3287,8.2543,8.19,8.119,8.0479,8.0378,8.0344,8.0344,0.0,0.0,7.8077,7.7333,7.6149,7.4695,7.3916,7.3601,7.35,7.35,7.35,7.35,0.0,0.0,0.0,0.0,0.0,0.0,0.0,0.0,0.0,0.0,0.0,0.0,0.0,0.0,0.0,0.0,0.0,0.0,0.0,0.0,0.0,4.9982,4.9873,5.0278,5.1277,5.1185,5.1702,5.2917,5.3051,5.3746,5.4861,5.6362,5.7164,5.7347,0.0,0.0,0.0,0.0,0.0,0.0,0.0,0.0,0.0,0.0,0.0,0.0,5.3518,5.3754,5.4972,6.0738,6.3531,6.5053,6.8064,7.0906,7.3815,7.7705,7.9972,8.1832,8.4471,8.5926,8.6602,8.6095,8.4471,8.1832,7.7299,7.3815,6.9755,6.3531,6.1061,5.9487,5.7881,6.1535,6.6406,7.1413,7.6589,8.1731,8.6704,8.7414,8.7448,8.7583,8.7617,8.738,8.6771,8.6704,0.0,0.0,0.0,0.0,8.6738,8.6129,8.5486,8.4817,8.4681,8.4614,8.4614,8.4478,8.4065,8.3321,8.3186,8.2712,8.2002,8.1393,8.1088,8.108,0.0,0.0,7.8855,7.8111,7.6893,7.5439,7.4695,7.4052,7.35,7.35,7.35,7.35,0.0,0.0,0.0,0.0,0.0,0.0,0.0,0.0,0.0,0.0,0.0,0.0,0.0,0.0,0.0,0.0,0.0,0.0,0.0,0.0,0.0,0.0,0.0,0.0,5.1606,5.2024,0.0,0.0,0.0,0.0,0.0,0.0,0.0,0.0,0.0,0.0,0.0,0.0,0.0,0.0,0.0,0.0,0.0,0.0,0.0,0.0,0.0,5.4262,5.5886,6.0283,6.4546,6.8762,7.2958,7.6014,7.8585,8.1156,8.2712,8.3937,8.5858,8.6907,8.738,8.7008,8.464,8.0818,7.4796,7.0534,6.5954,5.9201,5.7239,5.6393,5.5277,5.9674,6.4647,6.8301,7.3308,7.8788,8.4809,8.5317,8.596,8.8294,8.8564,8.8429,8.8091,8.8023,0.0,0.0,0.0,0.0,8.7516,8.6771,8.6027,8.5249,8.4817,8.4614,8.4614,8.4614,8.4234,8.349,8.349,8.3118,8.2374,8.1629,8.1317,8.1283,0.0,0.0,7.9058,7.828,7.7333,7.6251,7.5473,7.4965,7.4627,7.4627,7.4627,7.4695,0.0,0.0,0.0,0.0,0.0,0.0,0.0,0.0,0.0,0.0,0.0,0.0,0.0,0.0,0.0,0.0,0.0,0.0,0.0,0.0,0.0,0.0,0.0,0.0,0.0,0.0,0.0,0.0,0.0,0.0,0.0,0.0,0.0,0.0,0.0,0.0,0.0,0.0,0.0,0.0,0.0,0.0,0.0,0.0,0.0,0.0,0.0,5.4634,5.6494,5.9201,6.3734,6.918,7.4221,7.8474,8.1697,8.2543,8.3896,8.5391,8.6771,8.7685,8.8158,8.7854,8.4606,7.96,7.2439,6.7557,6.257,5.575,5.4363,5.4262,5.4025,5.7915,6.2197,6.5209,6.9574,7.4999,8.2035,8.3084,8.4674,8.8835,8.9613,0.0,8.9342,8.9342,0.0,0.0,0.0,0.0,8.8023,8.7448,8.6738,8.5851,8.5182,8.4749,8.4614,8.4614,8.4309,8.3727,8.3727,8.3422,8.2847,8.2103,8.1689,8.1494,0.0,0.0,0.0,7.8551,7.7807,7.7063,7.6284,7.5845,7.5709,7.5879,7.5946,7.6082,0.0,0.0,0.0,0.0,0.0,0.0,0.0,0.0,0.0,0.0,0.0,0.0,0.0,0.0,0.0,0.0,0.0,0.0,0.0,0.0,0.0,0.0,0.0,0.0,0.0,0.0,0.0,0.0,0.0,0.0,0.0,0.0,0.0,0.0,0.0,0.0,0.0,0.0,0.0,0.0,0.0,0.0,0.0,0.0,0.0,0.0,0.0,5.3653,5.4465,5.8693,6.0994,6.2888,6.7421,7.5033,8.2069,8.0851,8.3456,8.6873,8.7685,8.8429,8.8666,8.7347,8.2678,7.6792,7.0703,6.4783,5.9268,5.4566,5.3619,5.3991,5.5259,5.6477,5.9167,6.4803,6.7827,7.2293,8.0369,8.3821,8.6636,8.9748,9.1305,0.0,9.0222,9.0121,0.0,0.0,0.0,0.0,0.0,8.7922,8.7245,8.5824,8.575,8.5351,8.4614,8.4614,8.458,8.4512,8.4512,8.4444,8.4377,8.3625,8.2915,8.2272,0.0,0.0,0.0,7.9295,7.8551,7.7831,7.7063,7.6352,7.5777,7.6521,7.6792,7.6893,0.0,0.0,0.0,0.0,0.0,0.0,0.0,0.0,0.0,0.0,0.0,0.0,0.0,0.0,0.0,0.0,0.0,0.0,0.0,0.0,0.0,0.0,0.0,0.0,0.0,0.0,0.0,0.0,0.0,0.0,0.0,0.0,0.0,0.0,0.0,0.0,0.0,0.0,0.0,0.0,0.0,0.0,0.0,0.0,0.0,0.0,0.0,0.0,5.3788,5.5547,5.7814,5.9994,6.04,6.6284,7.3713,7.7198,8.0412,8.3524,8.6535,8.8192,8.8734,8.7279,8.1731,7.5303,7.0263,6.3734,5.778,5.4228,5.3518,5.3687,5.4262,5.4972,5.6833,6.0994,6.2042,6.5222,7.3466,7.5642,7.8822,8.5384,8.7516,8.9072,0.0,0.0,0.0,0.0,0.0,0.0,0.0,8.8226,8.7719,8.7144,8.6257,8.5621,8.5317,8.4817,8.4614,8.4614,8.4614,8.4614,8.4546,8.3389,8.2678,0.0,0.0,0.0,0.0,7.9397,7.8923,7.8585,7.7841,7.7367,7.7096,7.7435,7.7536,7.7671,0.0,0.0,0.0,0.0,0.0,0.0,0.0,0.0,0.0,0.0,0.0,0.0,0.0,0.0,0.0,0.0,0.0,0.0,0.0,0.0,0.0,0.0,0.0,0.0,0.0,0.0,0.0,0.0,0.0,0.0,0.0,0.0,0.0,0.0,0.0,0.0,0.0,0.0,0.0,0.0,0.0,0.0,0.0,0.0,0.0,0.0,0.0,0.0,0.0,0.0,0.0,5.7085,5.553,5.8776,6.4613,7.1819,7.6589,8.0412,8.4471,8.7144,8.8463,8.7211,8.1088,7.4289,7.006,6.3125,5.6799,5.4059,5.3518,5.3518,5.3518,5.3923,5.5175,5.7915,5.8457,6.1264,6.9079,7.0939,7.4322,8.1934,0.0,8.6163,0.0,0.0,0.0,0.0,0.0,0.0,0.0,8.8598,8.8226,8.7989,8.6771,8.5993,8.5817,8.5012,8.4614,8.4614,8.4614,8.4614,8.4546,8.3498,8.2813,0.0,0.0,0.0,0.0,7.9634,7.9295,7.9034,7.8517,7.8179,7.8034,7.8247,7.8314,7.8416,0.0,0.0,0.0,0.0,0.0,0.0,0.0,0.0,0.0,0.0,0.0,0.0,0.0,0.0,0.0,0.0,0.0,0.0,0.0,0.0,0.0,0.0,0.0,0.0,0.0,0.0,0.0,0.0,0.0,0.0,0.0,0.0,0.0,0.0,0.0,0.0,0.0,0.0,0.0,0.0,0.0,0.0,0.0,0.0,0.0,0.0,0.0,0.0,0.0,0.0,0.0,0.0,0.0,5.4093,5.6325,6.4492,7.2191,7.8653,8.1629,8.5182,8.782,8.711,8.0716,7.3646,6.9958,6.2719,5.619,5.3957,5.3518,5.3518,5.3518,5.3518,5.4228,5.6461,5.866,6.2448,6.927,7.2699,7.6251,8.0784,8.1968,8.3599,8.6643,0.0,0.0,0.0,0.0,0.0,0.0,0.0,8.8734,8.8023,8.7279,8.6535,8.5817,8.5012,8.4614,8.4614,8.4614,8.4614,8.4614,8.458,0.0,0.0,0.0,0.0,0.0,8.0175,7.9769,7.9101,7.9092,7.8653,7.8077,7.8822,7.9092,7.9169,0.0,0.0,0.0,0.0,0.0,0.0,0.0,0.0,0.0,0.0,0.0,0.0,0.0,0.0,0.0,0.0,0.0,0.0,0.0,0.0,0.0,0.0,0.0,0.0,0.0,0.0,0.0,0.0,0.0,0.0,0.0,0.0,0.0,0.0,0.0,0.0,0.0,0.0,0.0,0.0,0.0,0.0,0.0,0.0,0.0,0.0,0.0,0.0,0.0,0.0,0.0,0.0,0.0,0.0,0.0,5.8761,6.4884,7.1109,7.4627,7.7164,7.8416,7.6666,7.1594,6.6419,6.4275,5.937,5.4938,5.3754,5.3518,5.3518,5.3518,5.3518,5.4735,5.8457,5.9641,6.1907,6.7151,7.1312,7.5709,8.0708,8.738,9.1744,0.0,0.0,0.0,0.0,0.0,0.0,0.0,0.0,8.8998,8.8761,8.8023,8.7313,8.6569,8.579,8.5148,8.4614,8.4614,8.4614,8.458,0.0,0.0,0.0,0.0,0.0,0.0,8.0953,8.0513,7.987,7.987,7.9701,7.9532,7.9769,7.987,7.9972,0.0,0.0,0.0,0.0,0.0,0.0,0.0,0.0,0.0,0.0,0.0,0.0,0.0,0.0,0.0,0.0,0.0,0.0,0.0,0.0,0.0,0.0,0.0,0.0,0.0,0.0,0.0,0.0,0.0,0.0,0.0,0.0,0.0,0.0,0.0,0.0,0.0,0.0,0.0,0.0,0.0,0.0,0.0,0.0,0.0,0.0,0.0,0.0,0.0,0.0,0.0,0.0,0.0,0.0,0.0,0.0,5.9336,6.4038,6.8639,7.1379,7.2597,7.1244,6.7163,6.3105,6.1637,5.7814,5.4397,5.3653,5.3518,5.3518,5.3518,5.3518,5.4499,5.7543,5.8727,6.0825,6.5358,7.0094,7.5361,8.1418,8.897,0.0,0.0,0.0,0.0,0.0,0.0,0.0,0.0,0.0,8.91,8.91,8.8361,8.7651,8.6907,8.6163,8.5384,8.4614,8.4614,8.4614,8.458,0.0,0.0,0.0,0.0,0.0,0.0,8.1697,8.1257,8.0615,8.0615,8.0445,8.0242,8.0513,8.0445,8.031,0.0,0.0,0.0,0.0,0.0,0.0,0.0,0.0,0.0,0.0,0.0,0.0,0.0,0.0,0.0,0.0,0.0,0.0,0.0,0.0,0.0,0.0,0.0,0.0,0.0,0.0,0.0,0.0,5.751,5.7889,5.8033,0.0,0.0,0.0,0.0,0.0,0.0,0.0,0.0,0.0,0.0,0.0,0.0,0.0,0.0,0.0,0.0,0.0,0.0,0.0,0.0,0.0,0.0,0.0,0.0,0.0,0.0,0.0,0.0,6.7003,6.9214,6.9134,6.5899,6.2429,6.1061,5.7509,0.0,5.3653,5.3518,5.3551,5.3653,5.3585,5.3856,5.4905,5.6817,5.9727,6.4208,6.9688,7.5946,8.3118,8.7989,0.0,0.0,0.0,0.0,0.0,0.0,0.0,0.0,0.0,0.0,8.91,8.8361,8.7651,8.6907,8.623,8.5452,8.4614,8.4614,8.4614,8.4614,0.0,0.0,0.0,0.0,0.0,0.0,8.2475,8.2002,8.1317,8.1317,8.0851,8.0276,8.0953,8.0784,8.031,0.0,0.0,0.0,0.0,0.0,0.0,0.0,0.0,0.0,0.0,0.0,0.0,0.0,0.0,0.0,0.0,0.0,0.0,0.0,0.0,0.0,0.0,0.0,0.0,0.0,0.0,0.0,5.6811,5.6406,5.6831,5.7985,5.7607,0.0,0.0,0.0,0.0,0.0,0.0,0.0,0.0,0.0,0.0,0.0,0.0,0.0,0.0,0.0,0.0,0.0,0.0,0.0,0.0,0.0,0.0,0.0,0.0,5.3991,0.0,5.5987,0.0,5.9674,5.8543,5.7036,5.5784,0.0,5.4532,5.3721,5.3551,5.3518,5.3856,5.4955,5.4245,5.4871,5.9066,6.0148,6.2042,6.6508,7.5574,8.3456,8.8091,9.3098,9.5296,0.0,0.0,0.0,0.0,0.0,0.0,0.0,0.0,0.0,8.91,8.8361,8.7651,8.6907,8.6738,8.596,8.4614,8.4614,8.4614,8.4614,0.0,0.0,0.0,0.0,0.0,0.0,8.3253,8.2475,8.1317,8.1317,8.0851,8.0209,8.0378,8.0344,8.031,0.0,0.0,0.0,0.0,0.0,0.0,0.0,0.0,0.0,0.0,0.0,0.0,0.0,0.0,0.0,0.0,0.0,0.0,0.0,0.0,0.0,0.0,0.0,0.0,0.0,0.0,0.0,0.0,0.0,5.7046,0.0,0.0,0.0,0.0,0.0,0.0,0.0,0.0,0.0,0.0,0.0,0.0,0.0,0.0,0.0,0.0,0.0,0.0,0.0,5.4329,5.4093,5.3619,0.0,0.0,0.0,0.0,0.0,0.0,5.3518,5.4634,5.5581,5.4803,5.4296,5.3991,5.3991,5.3754,5.3518,5.3518,5.3518,5.3754,5.4549,5.4583,5.5547,5.8727,6.0689,6.4309,7.1515,7.9228,8.5993,9.1135,9.4552,0.0,0.0,0.0,0.0,0.0,0.0,0.0,0.0,0.0,0.0,0.0,8.87,8.7989,8.6913,8.6569,8.579,8.4614,8.4614,8.4614,8.4614,0.0,0.0,0.0,0.0,0.0,8.3998,8.3998,8.3152,8.1799,8.1799,8.1156,8.0242,8.0581,8.0479,8.031,0.0,0.0,0.0,0.0,0.0,0.0,0.0,0.0,0.0,0.0,0.0,0.0,0.0,0.0,0.0,0.0,0.0,0.0,0.0,0.0,0.0,0.0,0.0,0.0,0.0,0.0,0.0,0.0,0.0,0.0,0.0,0.0,0.0,0.0,0.0,0.0,0.0,0.0,0.0,0.0,0.0,0.0,0.0,0.0,0.0,0.0,0.0,0.0,0.0,5.4329,5.4093,5.3619,5.438,0.0,0.0,0.0,0.0,0.0,5.3923,5.4634,5.5141,5.4566,5.4516,5.4583,5.4482,5.3957,5.3518,5.3518,5.3518,5.3687,5.4262,5.5277,5.6511,5.7915,6.1501,6.7544,7.7435,8.2002,8.6569,9.2552,9.4417,0.0,0.0,0.0,0.0,0.0,0.0,0.0,0.0,0.0,0.0,0.0,8.8998,8.826,8.6913,8.6264,8.552,8.4614,8.4614,8.4614,8.4614,8.4614,0.0,0.0,0.0,0.0,8.4614,8.4614,8.3802,8.2577,8.2441,8.1562,8.0412,8.0919,8.0716,8.0276,0.0,0.0,0.0,0.0,0.0,0.0,0.0,0.0,0.0,0.0,0.0,0.0,0.0,0.0,0.0,0.0,0.0,0.0,0.0,0.0,0.0,0.0,0.0,0.0,0.0,0.0,0.0,0.0,0.0,0.0,5.785,5.8619,5.8628,0.0,0.0,0.0,0.0,0.0,0.0,0.0,0.0,0.0,0.0,0.0,0.0,0.0,0.0,0.0,0.0,5.4329,5.4093,5.3619,5.438,0.0,0.0,0.0,0.0,0.0,5.5784,5.7306,5.7577,5.4465,5.4126,5.4448,5.3822,5.3585,5.3518,5.3518,5.3518,5.4465,5.7559,5.7814,5.905,6.3619,6.8525,7.4346,0.0,0.0,8.91,9.1372,0.0,0.0,0.0,0.0,0.0,0.0,0.0,0.0,0.0,0.0,0.0,0.0,0.0,8.7753,8.6907,8.6805,8.6,8.4614,8.4614,8.4614,8.4614,8.4614,8.4614,0.0,0.0,0.0,8.4614,8.4614,8.4072,8.3253,8.2644,8.1866,8.108,8.0547,8.031,8.0209,0.0,0.0,0.0,0.0,0.0,0.0,0.0,0.0,0.0,0.0,0.0,0.0,0.0,0.0,0.0,0.0,0.0,0.0,0.0,0.0,0.0,0.0,0.0,0.0,0.0,0.0,0.0,0.0,0.0,5.9339,5.9754,5.9304,5.8496,5.7374,0.0,0.0,0.0,0.0,0.0,0.0,0.0,0.0,0.0,0.0,0.0,0.0,0.0,0.0,0.0,0.0,5.3788,5.3551,5.389,0.0,0.0,0.0,0.0,0.0,5.4735,5.5818,5.6494,5.5987,5.707,5.7814,5.6224,5.5886,5.5987,5.6375,5.6477,5.7221,5.9776,6.1603,6.4681,7.077,7.51,7.9194,8.349,8.6636,0.0,0.0,0.0,0.0,0.0,0.0,0.0,0.0,0.0,0.0,0.0,0.0,0.0,0.0,0.0,0.0,8.6907,8.6501,8.5723,8.4614,8.4614,8.4614,8.4614,8.4614,8.4614,0.0,0.0,8.4614,8.458,8.4174,8.3592,8.2847,8.2103,8.1359,8.0648,8.031,8.0209,8.0209,0.0,0.0,0.0,0.0,0.0,0.0,0.0,0.0,0.0,0.0,0.0,0.0,0.0,0.0,0.0,0.0,0.0,0.0,0.0,0.0,0.0,0.0,0.0,0.0,0.0,0.0,5.9078,6.0458,6.1172,6.1605,6.1757,5.9943,5.8308,0.0,0.0,0.0,0.0,0.0,0.0,0.0,0.0,0.0,0.0,0.0,0.0,0.0,0.0,0.0,0.0,0.0,0.0,0.0,0.0,0.0,0.0,5.3518,5.3518,5.3619,5.4126,5.4938,5.5987,5.7527,5.8964,5.9911,5.9539,5.9084,5.9099,6.0535,6.0535,6.0825,6.255,6.617,7.0804,7.6724,8.0581,8.3625,8.5858,0.0,0.0,0.0,0.0,0.0,0.0,0.0,0.0,0.0,0.0,0.0,0.0,0.0,0.0,0.0,0.0,0.0,8.6907,8.6163,8.5384,8.4614,8.4614,8.4614,8.4614,8.4614,8.4614,8.458,8.4411,8.4343,8.4275,8.3558,8.2915,8.234,8.1562,8.0851,8.0209,8.0209,8.0209,8.0209,0.0,0.0,0.0,0.0,0.0,0.0,0.0,0.0,0.0,0.0,0.0,0.0,0.0,0.0,0.0,0.0,0.0,0.0,0.0,0.0,0.0,0.0,0.0,0.0,0.0,6.0039,6.0407,6.1224,6.3962,6.4641,6.3274,6.0363,5.8235,5.6771,0.0,0.0,0.0,0.0,0.0,0.0,0.0,0.0,0.0,0.0,0.0,0.0,0.0,0.0,0.0,0.0,0.0,0.0,0.0,0.0,5.3518,5.3518,5.3518,5.3957,5.5987,5.7611,5.8558,5.8017,5.7002,5.7491,6.2888,6.2516,6.2042,6.5506,6.5155,6.485,6.7015,7.1616,7.6149,7.9431,8.42,8.8294,0.0,0.0,0.0,0.0,0.0,0.0,0.0,0.0,0.0,0.0,0.0,0.0,0.0,0.0,0.0,0.0,0.0,0.0,8.6907,8.6163,8.5384,8.4614,8.4614,8.4614,8.4614,8.4614,8.4614,8.4546,8.3896,8.3592,8.3524,8.278,8.2475,8.234,8.1562,8.0851,8.0209,8.0209,8.0209,8.0209,0.0,0.0,0.0,0.0,0.0,0.0,0.0,0.0,0.0,0.0,0.0,0.0,0.0,0.0,0.0,0.0,0.0,0.0,0.0,0.0,0.0,0.0,0.0,5.9127,5.9629,6.1884,6.3832,6.545,6.5635,6.4478,6.2076,5.9513,0.0,0.0,0.0,0.0,0.0,0.0,0.0,0.0,0.0,0.0,0.0,0.0,0.0,0.0,0.0,0.0,0.0,0.0,5.3518,5.3518,5.3518,5.3518,5.3518,5.3518,5.3518,5.3687,5.4532,5.6494,5.8592,5.9742,6.0283,6.138,6.4546,6.644,6.8279,7.1086,7.1582,7.1921,7.324,7.6251,7.9464,8.2475,8.6569,8.9985,0.0,0.0,0.0,0.0,0.0,0.0,0.0,0.0,0.0,0.0,0.0,0.0,0.0,0.0,0.0,0.0,0.0,0.0,0.0,8.5452,8.4884,8.4614,8.4614,8.4614,8.4614,8.4614,8.4614,8.4546,8.3828,8.349,8.3422,8.2205,8.1697,8.1629,8.0885,8.0445,8.0209,8.0209,8.0209,8.0209,0.0,0.0,0.0,0.0,0.0,0.0,0.0,0.0,0.0,0.0,0.0,0.0,0.0,0.0,0.0,0.0,0.0,0.0,0.0,0.0,0.0,0.0,0.0,5.851,5.9503,6.2775,6.5139,6.6573,6.597,6.4174,6.125,0.0,0.0,0.0,0.0,0.0,0.0,0.0,0.0,0.0,0.0,0.0,0.0,0.0,0.0,0.0,0.0,0.0,0.0,0.0,5.3518,5.3518,5.3518,5.3518,5.3518,5.3518,5.3518,5.3518,5.3518,5.531,5.7679,5.9708,6.2415,6.5303,6.8199,7.0838,7.3623,7.7038,7.7232,7.6927,7.7502,7.9025,0.0,0.0,8.8328,0.0,0.0,0.0,0.0,0.0,0.0,0.0,0.0,0.0,0.0,0.0,0.0,0.0,0.0,0.0,0.0,0.0,0.0,0.0,0.0,8.5012,8.4614,8.4614,8.4614,8.4614,8.4614,8.4614,8.4614,8.4546,8.3592,8.3152,8.305,8.1562,8.0953,8.0885,8.0412,8.0209,8.0209,8.0209,8.0209,8.0209,0.0,0.0,0.0,0.0,0.0,0.0,0.0,0.0,0.0,0.0,0.0,0.0,0.0,0.0,0.0,0.0,0.0,0.0,0.0,0.0,0.0,0.0,0.0,5.8776,6.0134,6.2453,6.3583,6.3511,6.4952,6.414,6.1231,5.8964,0.0,0.0,0.0,0.0,0.0,0.0,0.0,0.0,0.0,0.0,0.0,0.0,0.0,0.0,0.0,0.0,0.0,0.0,5.3518,5.3518,5.3518,5.3518,5.3518,5.3518,5.3518,5.3518,5.3518,5.4583,5.6071,5.7577,6.2448,6.8436,7.439,7.5743,7.7435,8.3396,8.1705,7.9135,7.9135,7.9769,0.0,0.0,0.0,0.0,0.0,0.0,0.0,0.0,0.0,0.0,0.0,0.0,0.0,0.0,0.0,0.0,0.0,0.0,0.0,0.0,0.0,0.0,0.0,8.5012,8.4614,8.4614,8.4614,8.4614,8.4614,8.4614,8.4614,8.4512,8.3024,8.2408,8.2306,8.0818,8.0209,8.0209,8.0209,8.0209,8.0209,8.0209,8.0209,8.0209,0.0,0.0,0.0,0.0,0.0,0.0,0.0,0.0,0.0,0.0,0.0,0.0,0.0,0.0,0.0,0.0,0.0,0.0,0.0,0.0,0.0,0.0,0.0,0.0,0.0,0.0,6.0381,6.3511,6.3429,6.1859,0.0,0.0,0.0,5.6071,0.0,0.0,0.0,0.0,0.0,0.0,0.0,0.0,0.0,0.0,0.0,0.0,0.0,0.0,0.0,0.0,0.0,0.0,5.3518,5.4211,5.482,5.3822,5.4211,5.482,5.3771,5.5699,5.8641,6.1177,6.5933,7.1548,7.7502,7.9261,8.1021,8.5993,8.485,8.2956,8.2956,8.3126,0.0,0.0,0.0,0.0,0.0,0.0,0.0,0.0,0.0,0.0,0.0,0.0,0.0,0.0,0.0,0.0,0.0,0.0,0.0,0.0,0.0,0.0,0.0,0.0,8.4614,8.4614,8.4614,8.4614,8.4614,8.4614,8.4614,8.4512,8.3024,8.2408,8.2306,8.0818,8.0209,8.0209,8.0209,8.0209,8.0209,8.0209,8.0209,8.0209,0.0,0.0,0.0,0.0,0.0,0.0,0.0,0.0,0.0,0.0,0.0,0.0,0.0,0.0,0.0,0.0,0.0,0.0,0.0,0.0,0.0,0.0,0.0,0.0,0.0,5.6759,5.8573,0.0,0.0,0.0,0.0,0.0,0.0,5.7525,0.0,5.9859,0.0,0.0,0.0,0.0,0.0,0.0,0.0,0.0,0.0,0.0,0.0,0.0,0.0,0.0,0.0,0.0,5.3518,5.4126,5.4752,5.4448,5.4583,5.4955,5.5547,5.7543,6.0452,6.4681,6.9417,7.4796,8.1359,8.3896,8.5757,8.9072,8.7719,8.6102,8.671,8.5865,0.0,0.0,0.0,0.0,0.0,0.0,0.0,0.0,0.0,0.0,0.0,0.0,0.0,0.0,0.0,0.0,0.0,0.0,0.0,0.0,0.0,0.0,0.0,0.0,0.0,8.4614,8.4275,8.4167,8.4167,8.4167,8.4167,8.4099,8.2611,8.1799,8.146,8.0581,8.0209,8.0209,8.0209,8.0209,8.0209,8.0209,8.0209,8.0209,0.0,0.0,0.0,0.0,0.0,0.0,0.0,0.0,0.0,0.0,0.0,0.0,0.0,0.0,0.0,0.0,0.0,0.0,0.0,0.0,0.0,0.0,0.0,0.0,0.0,0.0,0.0,0.0,0.0,0.0,0.0,0.0,6.0283,6.0317,0.0,6.3125,0.0,0.0,0.0,0.0,0.0,0.0,0.0,0.0,0.0,0.0,0.0,0.0,0.0,0.0,0.0,0.0,5.3653,5.3721,5.394,5.5225,5.4786,5.4668,5.8134,5.981,6.1975,6.8166,7.3274,7.8619,8.5554,8.8835,9.0763,9.202,9.0222,8.8801,9.0087,8.8057,0.0,0.0,0.0,0.0,0.0,0.0,0.0,0.0,0.0,0.0,0.0,0.0,0.0,0.0,0.0,0.0,0.0,0.0,0.0,0.0,0.0,0.0,0.0,0.0,0.0,0.0,8.3795,8.3456,8.3389,8.3389,8.3355,8.3219,8.1892,8.0885,8.0209,8.0209,8.0209,8.0209,8.0209,8.0209,8.0209,8.0209,8.0209,8.0209,0.0,0.0,0.0,0.0,0.0,0.0,0.0,0.0,0.0,0.0,0.0,0.0,0.0,0.0,0.0,0.0,0.0,0.0,0.0,0.0,0.0,0.0,0.0,0.0,0.0,0.0,0.0,0.0,0.0,0.0,0.0,0.0,0.0,6.1129,0.0,6.3328,0.0,0.0,0.0,0.0,0.0,0.0,0.0,0.0,0.0,0.0,0.0,0.0,0.0,0.0,0.0,0.0,5.4853,5.5225,5.5158,5.4905,5.5852,5.7374,5.9336,6.1704,6.5358,7.2496,7.987,8.5926,8.8125,9.0357,9.1851,9.1609,9.1508,9.1343,9.1102,0.0,0.0,0.0,0.0,0.0,0.0,0.0,0.0,0.0,0.0,0.0,0.0,0.0,0.0,0.0,0.0,0.0,0.0,0.0,0.0,0.0,0.0,0.0,8.3727,8.3727,8.3456,0.0,8.3287,8.3186,8.2644,8.2644,8.2306,8.1757,8.1452,8.0885,8.0209,8.0209,8.0209,8.0209,8.0209,8.0209,8.0209,8.0209,8.0209,8.0209,0.0,0.0,0.0,0.0,0.0,0.0,0.0,0.0,0.0,0.0,0.0,0.0,0.0,0.0,0.0,0.0,0.0,0.0,0.0,0.0,0.0,0.0,0.0,0.0,0.0,0.0,0.0,0.0,0.0,0.0,0.0,0.0,0.0,6.2429,0.0,6.441,0.0,0.0,0.0,0.0,0.0,0.0,0.0,0.0,0.0,0.0,0.0,0.0,0.0,0.0,0.0,0.0,0.0,0.0,5.5175,5.5141,5.619,5.8084,6.1366,6.4715,6.9316,7.7841,8.3998,8.8294,8.9376,9.0527,9.1338,9.1305,9.1913,9.2257,9.1913,0.0,0.0,0.0,0.0,0.0,0.0,0.0,0.0,0.0,0.0,0.0,0.0,0.0,0.0,0.0,0.0,0.0,0.0,0.0,0.0,0.0,0.0,0.0,8.2983,8.2983,8.278,8.2408,8.2441,8.2069,8.1359,8.1359,8.1122,8.075,8.0412,8.0242,8.0209,8.0209,8.0209,8.0209,8.0209,8.0209,8.0209,8.0209,8.0209,8.0209,0.0,0.0,0.0,0.0,0.0,0.0,0.0,0.0,0.0,0.0,0.0,0.0,0.0,0.0,0.0,0.0,0.0,0.0,0.0,0.0,0.0,0.0,0.0,0.0,0.0,0.0,0.0,0.0,0.0,0.0,0.0,0.0,0.0,6.3748,0.0,0.0,0.0,0.0,0.0,0.0,0.0,0.0,0.0,0.0,0.0,0.0,0.0,0.0,0.0,0.0,0.0,0.0,0.0,0.0,5.4905,5.553,5.6409,5.8186,6.2787,6.7692,7.368,8.2611,8.6501,8.8497,8.9748,9.0222,9.0527,9.1,9.1711,9.2155,0.0,0.0,0.0,0.0,0.0,0.0,0.0,0.0,0.0,0.0,0.0,0.0,0.0,0.0,0.0,0.0,0.0,0.0,0.0,0.0,0.0,0.0,0.0,8.234,8.2205,8.2205,8.2103,8.1807,8.1088,8.0479,8.0006,7.987,7.9972,8.0175,7.9566,7.9634,8.0209,8.0209,8.0209,8.0209,8.0209,8.0209,8.0209,8.0209,8.0209,8.0209,0.0,0.0,0.0,0.0,0.0,0.0,0.0,0.0,0.0,0.0,0.0,0.0,0.0,0.0,0.0,0.0,0.0,0.0,0.0,0.0,0.0,0.0,0.0,0.0,0.0,0.0,0.0,0.0,0.0,5.6916,5.9573,6.2057,6.3666,6.4478,0.0,0.0,0.0,0.0,0.0,0.0,0.0,0.0,0.0,0.0,0.0,0.0,0.0,0.0,0.0,0.0,5.624,0.0,0.0,0.0,5.5564,5.5665,5.7119,5.9148,6.1197,6.918,7.8373,8.4167,8.7313,8.8998,8.9173,9.0222,9.1,9.0459,9.0932,9.1237,0.0,0.0,0.0,0.0,0.0,0.0,0.0,0.0,0.0,0.0,0.0,0.0,0.0,0.0,0.0,0.0,0.0,0.0,0.0,8.4512,8.4167,8.3524,8.278,0.0,8.1426,8.1452,8.0818,7.9507,7.8788,7.872,7.9228,7.8585,7.8991,8.0175,8.0107,8.0107,8.0209,8.0209,8.0209,8.0209,8.0209,8.0209,8.0209,8.0209,8.0209,8.0209,0.0,0.0,0.0,0.0,0.0,0.0,0.0,0.0,0.0,0.0,0.0,0.0,0.0,0.0,0.0,0.0,0.0,0.0,0.0,0.0,0.0,0.0,0.0,0.0,0.0,0.0,0.0,0.0,5.6021,5.8287,6.2042,6.3463,6.4952,6.6373,0.0,0.0,0.0,0.0,0.0,0.0,0.0,0.0,0.0,0.0,0.0,0.0,0.0,0.0,0.0,0.0,0.0,5.6968,5.7205,0.0,0.0,0.0,5.6664,5.9641,6.5358,7.2022,7.8686,8.437,8.6839,8.8091,8.8903,8.9579,8.9951,8.9647,8.9512,8.9613,0.0,0.0,0.0,0.0,0.0,0.0,0.0,0.0,0.0,0.0,0.0,0.0,0.0,0.0,0.0,0.0,0.0,0.0,8.4614,8.3802,8.3193,8.2881,8.1765,0.0,8.0073,8.0073,7.9532,7.8483,7.8145,7.8145,7.8483,7.817,7.8788,8.0175,7.9769,7.9837,8.0175,7.9769,7.9837,8.0175,7.9769,7.9837,8.0209,8.0209,8.0209,8.0209,0.0,0.0,0.0,0.0,0.0,0.0,0.0,0.0,0.0,0.0,0.0,0.0,0.0,0.0,0.0,0.0,0.0,0.0,0.0,0.0,0.0,0.0,0.0,0.0,0.0,0.0,0.0,5.6528,5.7273,5.9844,6.4086,6.5019,6.7015,6.9688,6.5628,6.3903,0.0,0.0,0.0,0.0,0.0,0.0,0.0,0.0,0.0,0.0,0.0,0.0,0.0,0.0,0.0,0.0,0.0,0.0,0.0,0.0,0.0,5.9167,6.759,7.1999,7.5821,8.2441,8.4945,8.6298,8.8328,8.8801,8.8801,0.0,8.8361,0.0,0.0,0.0,0.0,0.0,0.0,0.0,0.0,0.0,0.0,0.0,0.0,0.0,0.0,0.0,0.0,0.0,0.0,0.0,8.4309,8.3092,8.2306,8.2137,8.0885,7.987,7.9126,7.8551,7.8077,7.773,7.7299,7.7333,7.7705,7.7705,7.8416,7.96,7.9058,7.9228,7.987,7.9126,7.9261,7.987,7.9304,7.9431,7.9938,8.0141,8.0209,8.0209,0.0,0.0,0.0,0.0,0.0,0.0,0.0,0.0,0.0,0.0,0.0,0.0,0.0,0.0,0.0,0.0,0.0,0.0,0.0,0.0,0.0,0.0,0.0,0.0,0.0,0.0,5.7171,5.5767,5.8558,6.1873,6.5615,6.7049,7.0432,7.5067,6.9925,6.6846,6.5392,0.0,0.0,0.0,0.0,0.0,0.0,0.0,0.0,0.0,0.0,0.0,0.0,0.0,0.0,0.0,0.0,0.0,0.0,0.0,0.0,0.0,6.414,6.6643,6.926,7.741,8.1054,8.3592,8.7245,8.8057,8.8057,8.8057,8.8023,0.0,0.0,0.0,0.0,0.0,0.0,0.0,0.0,0.0,0.0,0.0,0.0,0.0,0.0,0.0,0.0,0.0,0.0,0.0,8.3558,8.2813,8.2069,8.1384,8.0581,7.987,7.9126,7.6961,7.6251,7.6927,7.5473,7.554,7.6961,7.6961,7.7367,7.8111,7.8044,7.8483,7.9101,7.8348,7.8483,7.9135,7.9101,7.9101,7.9236,7.9938,8.0209,8.0209,0.0,0.0,0.0,0.0,0.0,0.0,0.0,0.0,0.0,0.0,0.0,0.0,0.0,5.23,5.2807,5.4093,0.0,0.0,0.0,0.0,0.0,0.0,0.0,0.0,0.0,5.7746,5.7645,5.7103,5.8152,6.0858,6.5019,6.6,6.8504,7.2022,6.8673,6.7151,6.6779,6.1907,0.0,0.0,0.0,0.0,0.0,0.0,0.0,0.0,0.0,0.0,0.0,0.0,0.0,0.0,0.0,0.0,0.0,5.7036,5.6934,5.7949,6.1839,6.4444,6.759,7.3916,7.7908,8.1122,8.437,8.623,8.7279,8.7279,8.6907,0.0,0.0,0.0,0.0,0.0,0.0,0.0,0.0,0.0,0.0,0.0,0.0,0.0,0.0,0.0,0.0,0.0,0.0,0.0,8.4661,8.276,8.1359,8.0615,7.987,7.8653,7.6927,7.5642,7.5134,7.5439,7.484,7.5134,7.6115,7.6115,7.6284,7.6521,7.6521,7.7232,7.8348,7.7604,7.7739,7.8348,7.7874,7.828,7.9135,7.9397,7.9803,8.0209,0.0,0.0,0.0,0.0,0.0,0.0,0.0,0.0,0.0,0.0,0.0,0.0,0.0,0.0,5.3213,5.4482,0.0,0.0,0.0,0.0,0.0,0.0,0.0,0.0,0.0,5.79,5.79,5.79,5.8407,6.0554,6.4275,6.5493,6.7692,7.0432,6.7658,6.7286,0.0,0.0,0.0,6.1704,0.0,0.0,5.9216,0.0,0.0,0.0,0.0,0.0,0.0,0.0,0.0,0.0,0.0,0.0,0.0,0.0,5.7543,5.7949,5.9979,6.1975,6.5019,7.1515,7.4458,7.713,8.2306,8.4099,8.4877,8.5621,8.5587,0.0,0.0,0.0,0.0,0.0,0.0,0.0,0.0,0.0,0.0,0.0,0.0,0.0,0.0,0.0,0.0,0.0,0.0,0.0,8.4543,8.2399,8.0514,7.9151,7.8348,7.713,7.5337,7.4356,7.4119,7.4603,7.4356,7.4762,7.5709,7.5709,7.5709,7.5676,7.5439,7.6217,7.757,7.6792,7.6961,7.757,7.7096,7.7638,7.8754,7.9025,7.9566,8.0209,0.0,0.0,0.0,0.0,0.0,0.0,0.0,0.0,0.0,0.0,0.0,0.0,0.0,0.0,0.0,5.4566,5.5344,0.0,0.0,0.0,0.0,0.0,0.0,0.0,0.0,5.7934,5.7934,5.79,5.9336,6.1197,6.3443,6.5608,6.8212,7.0917,6.732,6.732,6.9925,0.0,6.688,6.5311,0.0,5.9487,6.025,0.0,0.0,0.0,6.1907,6.1501,0.0,0.0,0.0,0.0,0.0,0.0,0.0,0.0,0.0,0.0,0.0,0.0,0.0,6.9823,7.05,7.1481,8.0953,8.1494,8.0615,8.2949,8.3998,0.0,0.0,0.0,0.0,0.0,0.0,0.0,0.0,0.0,0.0,0.0,0.0,0.0,0.0,0.0,0.0,0.0,0.0,8.5026,8.3113,8.1563,7.9498,7.6942,7.6082,7.5303,7.4536,7.3138,7.3138,7.4536,7.3815,7.4221,7.5676,7.5642,7.5642,7.5642,7.4897,7.5439,7.6758,7.598,7.6115,7.6826,7.686,7.7333,7.8077,7.8822,7.9566,8.0209,0.0,0.0,0.0,0.0,0.0,0.0,0.0,0.0,0.0,0.0,0.0,0.0,5.3484,5.4448,5.5158,5.5361,5.6562,0.0,0.0,0.0,0.0,0.0,0.0,0.0,5.7934,5.8423,5.8423,5.79,5.8306,5.937,6.1061,0.0,0.0,6.5675,6.6271,6.6373,6.5933,6.2821,0.0,6.5311,6.0825,6.1061,0.0,0.0,0.0,0.0,0.0,6.3599,0.0,0.0,6.3917,6.2787,0.0,0.0,0.0,0.0,0.0,0.0,5.7442,0.0,0.0,0.0,0.0,0.0,0.0,7.4221,7.5946,8.0885,8.1224,0.0,0.0,0.0,0.0,0.0,0.0,0.0,0.0,0.0,0.0,0.0,0.0,0.0,0.0,0.0,0.0,0.0,8.6216,8.4646,8.3565,8.0017,7.738,7.6072,7.5303,7.4289,7.3037,7.2597,7.2597,7.3003,7.28,7.3477,7.4897,7.4356,7.439,7.4864,7.4119,7.4356,7.5236,7.4999,7.5033,7.5303,7.5811,7.6826,7.801,7.8213,7.9092,8.0209,0.0,0.0,0.0,0.0,0.0,0.0,0.0,0.0,0.0,0.0,0.0,0.0,5.4346,5.5733,5.663,5.663,0.0,0.0,0.0,0.0,0.0,5.8355,5.8795,5.8964,5.8795,5.9235,5.9099,5.8355,5.8355,5.8626,5.9201,0.0,0.0,0.0,0.0,0.0,0.0,0.0,0.0,0.0,6.3057,0.0,0.0,6.4884,6.5797,0.0,0.0,0.0,6.8402,6.7929,6.6576,0.0,0.0,0.0,0.0,0.0,0.0,0.0,0.0,0.0,0.0,0.0,0.0,0.0,6.9485,7.0601,7.2022,0.0,7.8077,0.0,0.0,0.0,0.0,0.0,0.0,0.0,0.0,0.0,0.0,0.0,0.0,0.0,0.0,0.0,0.0,0.0,8.5165,8.3528,8.1667,7.8293,7.6048,7.527,7.4221,7.3274,7.2394,7.209,7.209,7.2394,7.2394,7.3003,7.4119,7.3703,7.3713,7.4086,7.3341,7.3443,7.4153,7.4153,7.4492,7.51,7.554,7.6623,7.8,7.8,7.8923,8.0209,0.0,0.0,0.0,0.0,0.0,0.0,0.0,0.0,0.0,0.0,5.4126,5.4837,5.6409,5.7509,5.8137,5.8137,0.0,0.0,0.0,0.0,0.0,5.8979,5.9148,5.952,6.008,6.0182,5.9844,5.9013,0.0,5.8626,0.0,0.0,0.0,0.0,0.0,0.0,0.0,0.0,0.0,6.4749,6.6203,6.7489,0.0,0.0,7.1481,0.0,7.2766,7.2766,7.2428,7.0195,6.8064,0.0,0.0,0.0,0.0,0.0,5.9708,0.0,0.0,0.0,0.0,0.0,0.0,0.0,6.8448,6.8741,6.8774,0.0,7.4695,0.0,0.0,0.0,0.0,0.0,0.0,0.0,0.0,0.0,0.0,0.0,0.0,0.0,0.0,0.0,8.5377,8.4412,8.362,8.1702,7.847,7.655,7.5202,7.439,7.3071,7.236,7.2293,7.165,7.165,7.2293,7.2293,7.2665,7.3398,7.3274,7.3297,7.3364,7.2665,7.28,7.35,7.3601,7.439,7.5574,7.5676,7.6623,7.8,7.8,7.8923,8.0209,0.0,0.0,0.0,0.0,0.0,0.0,0.0,0.0,0.0,5.69,5.8084,5.9607,6.1752,6.0622,5.9674,5.9674,0.0,0.0,0.0,0.0,5.8844,5.8979,6.0182,6.0622,6.0114,6.0723,6.0385,5.9013,0.0,0.0,0.0,0.0,0.0,0.0,0.0,5.9317,5.9994,0.0,0.0,6.4749,6.6203,0.0,7.2451,7.2755,7.3747,7.5067,7.5067,7.5067,7.4728,0.0,7.1075,6.962,0.0,0.0,0.0,0.0,0.0,0.0,0.0,0.0,0.0,0.0,0.0,0.0,6.2482,6.3835,6.6339,0.0,7.165,7.3172,0.0,0.0,0.0,0.0,0.0,0.0,0.0,0.0,0.0,0.0,0.0,0.0,0.0,0.0,8.3427,8.1731,8.0362,7.8632,7.6386,7.5344,7.4221,7.2868,7.2563,7.2124,7.1526,7.1357,7.1357,7.1492,7.1492,7.1921,7.2597,7.1988,7.2056,7.2597,7.2462,7.28,7.3567,7.4153,7.4559,7.4864,7.5473,7.6623,7.8,7.8,7.8923,8.0209,0.0,0.0,0.0,0.0,0.0,0.0,0.0,0.0,5.7728,5.8863,6.1264,6.2888,6.2956,6.2279,6.1501,6.0757,5.9336,0.0,0.0,0.0,5.9742,6.0129,6.0892,6.1264,6.1231,6.1637,6.1095,5.9573,5.9573,0.0,0.0,0.0,0.0,0.0,0.0,5.8457,5.8592,6.0858,6.3091,6.5392,6.8402,0.0,7.3669,7.5192,7.642,7.7401,7.7401,7.7401,7.6893,7.3544,7.2394,0.0,0.0,6.5696,6.5256,0.0,6.211,6.1637,0.0,0.0,0.0,6.0791,0.0,0.0,0.0,6.211,6.3328,6.6711,6.7421,6.8212,0.0,0.0,0.0,0.0,0.0,0.0,0.0,0.0,0.0,0.0,0.0,0.0,0.0,0.0,7.9718,7.8348,7.7239,7.6005,7.4674,7.3916,7.3172,7.2428,7.2056,7.1684,7.1289,7.1289,7.1289,7.1289,7.1289,7.1492,7.1853,7.1458,7.1492,7.1853,7.1853,7.2462,7.3534,7.3883,7.4492,7.5202,7.5574,7.6623,7.8,7.8,7.8923,8.0209,0.0,0.0,0.0,0.0,0.0,0.0,0.0,0.0,5.9877,6.1028,6.4072,6.5595,6.4241,6.414,6.3883,6.3294,6.0772,0.0,0.0,0.0,0.0,0.0,6.1264,6.1637,6.1941,6.2265,6.1704,6.0317,6.0182,0.0,0.0,0.0,0.0,0.0,5.7543,5.7915,5.8389,5.9573,0.0,6.6495,0.0,7.2766,7.3635,7.6647,7.8145,7.8754,7.916,7.9304,7.8686,7.4458,0.0,7.306,6.7929,6.7151,0.0,0.0,0.0,0.0,0.0,0.0,0.0,0.0,0.0,6.1583,0.0,0.0,0.0,6.3362,0.0,0.0,0.0,0.0,0.0,0.0,0.0,0.0,0.0,0.0,0.0,0.0,0.0,0.0,0.0,0.0,7.598,7.5337,7.4593,7.3916,7.3331,7.2732,7.2326,7.2191,7.1616,7.1289,7.1289,7.1289,7.1289,7.1289,7.1289,7.1289,7.1289,7.1289,7.1289,7.1289,7.1424,7.2259,7.3534,7.3646,7.4492,7.5709,7.5709,7.6555,7.7831,7.7967,7.8822,8.0006,5.3518,5.3518,0.0,0.0,0.0,0.0,0.0,0.0,6.2009,6.4715,6.6576,6.8335,7.0106,0.0,0.0,0.0,0.0,0.0,6.4837,0.0,0.0,0.0,0.0,0.0,6.0385,6.1724,6.1975,6.1163,6.0452,6.0013,0.0,0.0,0.0,0.0,5.7476,5.8017,5.9844,6.0047,6.3024,0.0,7.1109,7.2462,0.0,7.5879,7.7063,7.7401,7.9363,8.0073,7.96,0.0,7.5371,7.4661,0.0,6.8842,0.0,0.0,0.0,0.0,0.0,0.0,0.0,0.0,6.6724,0.0,0.0,0.0,6.3429,6.1095,0.0,0.0,0.0,0.0,0.0,0.0,0.0,0.0,0.0,0.0,0.0,0.0,0.0,0.0,0.0,0.0,0.0,7.3771,7.3071,7.2597,7.2529,7.2462,7.209,7.1424,7.1323,7.1289,7.1289,7.1289,7.1289,7.1289,7.1289,7.1289,7.1289,7.1289,7.1289,7.1323,7.1988,7.2732,7.3567,7.4221,7.4965,7.5709,7.5709,7.6251,7.7096,7.7739,7.8517,7.9329,5.3518,5.3518,0.0,0.0,0.0,0.0,0.0,0.0,6.4952,6.617,6.8402,7.0263,0.0,0.0,0.0,0.0,0.0,6.4309,0.0,0.0,0.0,0.0,0.0,0.0,0.0,0.0,0.0,0.0,6.096,6.0351,5.9471,0.0,0.0,0.0,5.8795,5.9742,6.1501,0.0,6.4208,0.0,0.0,0.0,0.0,7.686,7.8822,7.8923,7.987,8.0209,7.9735,0.0,7.5709,0.0,0.0,0.0,0.0,0.0,0.0,0.0,0.0,0.0,0.0,0.0,0.0,0.0,0.0,0.0,6.1772,0.0,0.0,0.0,0.0,0.0,0.0,0.0,0.0,0.0,0.0,0.0,0.0,0.0,0.0,0.0,0.0,0.0,0.0,0.0,0.0,7.0939,7.05,7.1312,7.1616,7.1289,7.1289,7.1289,7.1289,7.1289,7.1289,7.1289,7.1289,7.1289,7.1289,7.1289,7.1526,7.1954,7.2259,7.3071,7.4153,7.4492,7.542,7.6679,7.7171,7.7449,7.757,7.7899,7.872,7.9869,5.3754,0.0,0.0,0.0,0.0,0.0,0.0,0.0,0.0,6.7015,6.9192,0.0,7.2101,7.1075,0.0,0.0,6.9925,6.8064,0.0,0.0,6.5155,0.0,0.0,0.0,0.0,0.0,0.0,6.1603,6.14,6.0926,6.0231,0.0,0.0,0.0,0.0,6.1907,6.3971,0.0,6.6846,6.8605,7.0804,7.2191,7.3409,7.7671,7.9667,8.0209,8.0209,8.0209,7.9769,7.6961,7.6149,0.0,7.2834,0.0,0.0,0.0,0.0,0.0,6.8482,0.0,0.0,0.0,0.0,0.0,0.0,0.0,0.0,0.0,0.0,0.0,0.0,0.0,0.0,0.0,0.0,0.0,0.0,0.0,0.0,0.0,0.0,0.0,0.0,0.0,0.0,0.0,6.8876,0.0,6.9113,7.0128,7.0883,7.1289,7.1289,7.1289,7.1289,7.1289,7.1289,7.1289,7.1289,7.1289,7.1289,7.1515,7.1887,7.2428,7.2597,7.3616,7.5036,7.5036,7.6138,7.7848,7.8694,7.8965,7.8931,7.916,7.9915,8.0995,5.4397,5.3991,0.0,0.0,0.0,0.0,0.0,0.0,0.0,0.0,0.0,0.0,0.0,0.0,0.0,0.0,0.0,7.28,7.4187,0.0,6.5459,0.0,0.0,6.3565,0.0,0.0,0.0,0.0,0.0,6.2009,6.3274,6.0366,0.0,0.0,6.2618,6.4343,6.7793,6.8605,7.1447,7.5371,7.5473,7.7266,7.9667,0.0,7.8348,8.0209,8.0209,0.0,0.0,7.7604,7.7333,0.0,0.0,0.0,0.0,0.0,0.0,0.0,0.0,0.0,0.0,6.8267,0.0,0.0,0.0,0.0,6.4938,0.0,0.0,0.0,0.0,0.0,0.0,0.0,0.0,0.0,0.0,0.0,0.0,0.0,0.0,0.0,0.0,0.0,0.0,0.0,6.6664,0.0,6.8977,6.9147,6.9823,7.1255,7.1289,7.1289,7.1289,7.1289,7.1289,7.1289,7.1289,7.1289,7.1323,7.2056,7.2394,7.2428,7.3138,7.4491,7.6171,7.6171,7.7251,7.9014,7.9848,8.0571,8.1287,8.2071,8.2375,8.2552,0.0,0.0,0.0,5.4634,5.4803,0.0,0.0,6.3396,0.0,0.0,0.0,0.0,0.0,8.0547,8.0818,0.0,0.0,7.8213,7.6251,7.3984,0.0,0.0,0.0,6.7218,0.0,0.0,0.0,0.0,0.0,6.2279,6.2753,6.1231,6.211,0.0,0.0,6.6643,7.0263,0.0,0.0,0.0,0.0,7.8991,8.146,0.0,0.0,8.0209,8.0209,8.0209,0.0,7.8788,7.8213,7.7764,7.6217,7.5574,7.5236,7.4728,7.4931,0.0,0.0,0.0,7.6115,7.1616,0.0,0.0,0.0,0.0,0.0,0.0,0.0,0.0,0.0,0.0,0.0,0.0,0.0,0.0,0.0,0.0,0.0,0.0,0.0,0.0,0.0,0.0,0.0,6.3632,6.3971,6.4783,0.0,6.803,6.935,6.9823,7.0782,7.1289,7.1289,7.1289,7.1289,7.1289,7.1289,7.1289,7.1289,7.1582,7.2191,7.3184,7.4157,7.5464,7.6986,7.7755,7.8855,8.0194,8.1523,8.266,8.3392,8.2745,8.2813,8.3464,5.6393,0.0,0.0,0.0,0.0,0.0,0.0,0.0,0.0,0.0,7.6623,0.0,8.4884,0.0,8.5317,0.0,8.5215,8.2881,7.8382,7.8077,0.0,7.3635,7.2157,0.0,0.0,0.0,0.0,0.0,0.0,6.4106,6.4309,6.2516,6.326,6.6102,6.6373,6.8402,7.1887,7.4931,7.6217,0.0,0.0,8.0716,0.0,0.0,8.0818,0.0,0.0,8.0209,8.0073,7.9363,7.8957,7.8653,7.7908,7.7502,7.7266,7.6995,7.7266,7.7638,7.7367,7.7807,0.0,0.0,7.2631,0.0,6.7083,0.0,0.0,0.0,0.0,0.0,0.0,0.0,0.0,0.0,0.0,0.0,0.0,0.0,0.0,0.0,0.0,0.0,0.0,0.0,6.2313,6.0622,6.1347,6.2463,0.0,0.0,6.8267,6.9079,7.0511,7.1289,7.1289,7.1289,7.1289,7.1289,7.1289,7.1479,7.183,7.2103,7.3096,7.4631,7.529,7.6704,7.8521,7.8978,8.011,8.1741,8.3047,8.4184,8.495,8.4344,8.4381,8.5071,0.0,0.0,0.0,0.0,5.8693,0.0,0.0,0.0,7.3003,0.0,7.9498,8.3896,8.7076,8.7989,8.8937,9.0357,8.9782,0.0,8.1122,8.2002,0.0,0.0,7.5371,7.4695,7.1796,0.0,0.0,0.0,0.0,0.0,6.7827,6.4241,6.4106,6.6893,6.7726,6.9688,7.2699,7.7232,8.004,8.146,8.2205,8.2509,8.2509,8.2475,0.0,8.1317,8.0513,8.0242,8.0141,7.9397,7.9634,8.0141,7.9431,7.9735,8.0175,7.9498,8.0276,8.0911,7.8813,7.8686,7.8492,7.5584,0.0,0.0,0.0,0.0,7.324,0.0,0.0,0.0,0.0,0.0,0.0,6.5967,0.0,0.0,0.0,0.0,0.0,0.0,0.0,0.0,0.0,6.0791,5.9641,5.8878,5.8844,5.981,0.0,0.0,0.0,6.8808,7.0444,7.1289,7.1289,7.1356,7.1379,7.1379,7.1412,7.196,7.2914,7.3587,7.4881,7.654,7.6576,7.8096,8.0478,7.9811,8.1046,8.3418,8.4278,8.5123,8.593,8.6738,8.7014,8.7271,5.79,5.849,5.9235,0.0,5.9674,6.0486,0.0,0.0,0.0,0.0,8.4336,8.8564,9.374,9.4011,9.3943,9.4315,9.3706,0.0,0.0,0.0,0.0,8.3558,8.1663,7.9803,7.7976,7.4627,0.0,7.0973,0.0,0.0,6.7861,6.5818,6.5831,6.7692,6.9586,7.1176,7.2732,7.7773,8.1088,8.2983,8.3734,8.4039,0.0,0.0,8.3084,8.2746,8.146,8.1021,8.0885,8.0175,8.0412,8.0953,8.0784,8.1224,8.1799,8.1629,8.1832,8.2002,8.1426,8.1021,8.0412,7.9092,7.6927,7.4796,0.0,0.0,0.0,0.0,0.0,0.0,0.0,0.0,0.0,0.0,0.0,0.0,0.0,0.0,0.0,0.0,0.0,0.0,0.0,5.7881,5.734,5.6612,5.6544,0.0,0.0,0.0,0.0,6.573,6.9383,7.1289,7.1289,7.2034,7.2393,7.2414,7.3186,7.367,7.3908,7.41,7.4729,7.5761,7.7159,7.8477,7.9811,8.0983,8.1879,8.2663,8.4058,8.5453,8.6738,8.6904,8.7399,8.7949,5.8863,0.0,0.0,6.3091,0.0,0.0,6.8695,0.0,0.0,8.2171,8.6771,0.0,9.3639,9.5939,9.6988,9.6345,9.5905,0.0,9.1474,0.0,0.0,8.7482,8.5757,8.3828,8.1697,7.7908,0.0,7.3375,0.0,0.0,6.935,6.6846,6.6305,6.7523,6.9789,7.1244,7.2326,7.8551,8.2272,8.4031,8.4411,0.0,0.0,8.414,8.3998,8.3828,8.2678,8.2035,8.1731,8.1291,8.1426,8.1832,8.2137,8.2543,8.2949,8.3261,8.3152,8.2949,8.3261,8.2611,8.1765,8.1663,8.0107,7.8348,7.7299,7.7739,7.7874,0.0,0.0,0.0,0.0,0.0,0.0,0.0,0.0,0.0,0.0,0.0,0.0,0.0,0.0,0.0,0.0,0.0,0.0,0.0,0.0,0.0,0.0,0.0,0.0,0.0,6.8956,7.1289,7.1289,7.2932,7.3435,7.2818,7.3846,7.4517,7.4975,7.5315,7.6159,7.7361,7.846,7.9553,8.0679,8.1403,8.2076,8.2884,8.4499,8.5894,8.6978,8.6978,8.7271,8.7766,0.0,0.0,0.0,0.0,0.0,0.0,0.0,7.6284,0.0,8.3152,0.0,9.2015,9.1575,9.6041,9.8671,9.7563,0.0,9.5793,9.2536,9.3452,9.2517,8.8869,8.8691,8.7261,8.4167,8.0919,0.0,0.0,0.0,0.0,7.0647,6.7252,6.6102,6.6893,6.918,7.0804,7.2326,7.9092,8.2754,8.4039,8.4444,8.4614,8.4614,8.4614,8.4614,8.4512,8.3862,8.3186,8.2543,8.2543,8.2543,8.2678,8.3422,8.3625,8.3761,8.4411,8.4167,8.3761,8.4309,8.3498,8.2712,8.3321,8.2949,8.2103,8.0885,8.0615,8.0412,7.9566,7.7739,0.0,0.0,0.0,0.0,0.0,0.0,0.0,0.0,0.0,0.0,0.0,0.0,0.0,0.0,0.0,0.0,0.0,0.0,0.0,0.0,0.0,0.0,0.0,6.8571,0.0,7.1729,0.0,7.442,7.3475,7.4422,7.5317,7.6191,7.7004,7.8277,7.9816,7.9926,8.0771,8.2003,8.1415,8.2113,8.3711,8.5196,8.6297,8.6978,8.6978,8.6978,8.7198,0.0,0.0,0.0,0.0,0.0,7.6826,8.1968,8.4505,8.7008,9.0227,9.4252,9.7258,9.831,9.8848,9.9472,10.0382,9.9379,0.0,0.0,0.0,0.0,9.2779,9.2447,9.0773,8.7273,8.2475,7.8855,0.0,0.0,0.0,6.7569,6.6271,6.6102,6.6893,6.918,7.1954,7.5134,7.8348,0.0,8.119,8.3599,8.4614,8.4614,8.4614,8.4614,8.458,8.4444,8.393,8.3321,8.3321,8.3321,8.3422,8.4174,8.4411,8.4411,8.4546,8.4512,8.4275,8.3828,8.349,8.3321,8.3456,8.2949,8.2509,8.2847,8.2915,8.2543,8.119,8.0107,7.8314,7.4728,0.0,0.0,0.0,0.0,0.0,0.0,0.0,0.0,0.0,0.0,0.0,0.0,0.0,0.0,0.0,0.0,0.0,0.0,0.0,0.0,0.0,0.0,0.0,0.0,0.0,0.0,7.6856,7.7535,7.7932,7.8149,7.8933,7.949,7.9853,8.0498,8.0938,8.1269,8.1782,8.2957,8.4499,8.5416,8.6297,8.6978,8.6978,8.6978,8.7051,0.0,0.0,0.0,0.0,0.0,0.0,0.0,9.1806,0.0,9.2493,9.4687,9.6413,9.6751,9.9545,10.1286,10.1198,10.1301,10.1087,10.0715,9.9523,9.7821,9.5377,9.3998,0.0,8.8085,8.3253,7.9498,7.6893,0.0,0.0,0.0,0.0,6.5527,6.6305,6.8166,7.1718,0.0,0.0,0.0,8.0987,8.3565,8.4614,8.4614,8.4614,8.4614,8.4614,8.4614,8.4377,8.4065,8.4065,8.4065,8.4133,8.4478,8.4614,8.4614,8.4614,8.4309,8.4065,8.4065,8.3795,8.3592,8.3998,8.3802,8.3633,8.3998,8.3761,8.3186,8.2103,8.0987,7.872,7.3815,6.9282,0.0,0.0,0.0,0.0,0.0,0.0,0.0,0.0,0.0,0.0,0.0,0.0,0.0,0.0,0.0,0.0,0.0,0.0,0.0,0.0,0.0,0.0,0.0,0.0,0.0,7.7354,7.8618,7.8993,7.8626,7.9874,8.0424,8.0461,8.1269,8.1636,8.1672,8.248,8.3508,8.4682,8.549,8.6297,8.6978,8.6978,8.7234,8.7582,0.0,7.1788,0.0,0.0,8.3712,0.0,9.3007,9.7414,9.8945,9.5215,9.5832,9.6342,9.5793,10.0591,10.3507,10.2218,10.3003,10.3284,10.2396,10.1116,9.9201,9.6633,9.4729,9.1988,8.8315,8.399,8.0073,0.0,0.0,0.0,0.0,0.0,0.0,0.0,0.0,0.0,0.0,0.0,7.9397,8.1494,8.3727,8.4614,8.4614,8.4614,8.4614,8.4614,8.4614,8.4614,8.4614,8.4614,8.4614,8.4614,8.4614,8.4614,8.4614,8.4614,8.4174,8.3862,8.4444,8.42,8.3862,8.4444,8.4614,8.4546,8.4377,8.393,8.3253,8.234,8.075,7.8044,7.3274,7.0466,0.0,0.0,0.0,0.0,0.0,0.0,0.0,0.0,0.0,0.0,0.0,0.0,0.0,0.0,0.0,0.0,5.3856,5.6916,0.0,0.0,0.0,0.0,7.4441,0.0,7.853,0.0,7.9397,7.9727,7.9176,8.0791,8.1415,8.1305,8.2296,8.27,8.2774,8.3381,8.4132,8.4939,8.5747,8.6444,8.6978,8.6978,8.7399,8.7876,0.0,0.0,0.0,0.0,0.0,0.0,0.0,9.9874,10.3607,10.2595,10.2593,10.2627,10.2593,10.4317,10.5384,10.509,10.469,10.3992,10.31,10.2198,9.988,9.5808,9.5286,9.3202,8.9088,8.5249,8.0818,0.0,0.0,0.0,0.0,0.0,0.0,0.0,0.0,0.0,0.0,7.7232,7.9904,8.1494,8.3727,8.4614,8.4614,8.4614,8.4614,8.4614,8.4614,8.4614,8.4614,8.4614,8.4614,8.4614,8.4614,8.4614,8.4614,8.4614,8.4546,8.4512,8.458,8.4546,8.4512,8.458,8.4614,8.4411,8.3761,8.3558,8.3084,8.1663,7.916,7.6217,7.3003,7.2157,7.1041,0.0,0.0,0.0,0.0,0.0,0.0,0.0,0.0,0.0,0.0,0.0,0.0,0.0,0.0,5.5496,5.455,5.6749,0.0,6.1332,0.0,7.0764,7.5959,7.6808,0.0,8.1162,8.099,8.0865,8.0828,8.2427,8.2774,8.215,8.3728,8.4389,8.4389,8.4462,8.4976,8.5747,8.6591,8.6904,8.6978,8.6978,8.7051,8.7198,0.0,0.0,0.0,0.0,0.0,0.0,0.0,10.3292,10.4898,10.5872,10.5289,10.4878,10.5397,10.5899,10.6199,10.6198,10.6303,10.6001,10.5115,10.3788,10.1809,9.882,9.7228,9.4513,9.0383,8.7032,8.2822,0.0,0.0,0.0,0.0,0.0,0.0,0.0,0.0,7.3003,7.527,7.7976,7.9938,8.1494,8.3727,8.4614,8.4614,8.4614,8.4614,8.4614,8.4614,8.4614,8.4614,8.4614,8.4614,8.4614,8.4614,8.4614,8.4614,8.4614,8.4614,8.4614,8.4614,8.4614,8.4614,8.4614,8.4614,8.4411,8.3659,8.3152,8.2543,8.152,7.932,7.7063,7.5405,7.3274,7.1481,0.0,0.0,0.0,0.0,0.0,0.0,0.0,0.0,0.0,0.0,0.0,0.0,0.0,0.0,0.0,5.5327,5.6528,5.8896,6.2516,0.0,7.0209,7.6423,7.7954,7.9536,8.1255,8.2062,8.2186,8.1782,8.3398,8.3948,8.3691,8.4315,8.4609,8.4646,8.5123,8.549,8.5874,8.6701,8.6978,8.6978,8.6978,8.7325,8.7766,9.1074,0.0,9.3659,0.0,9.9742,10.1387,10.5681,10.5809,10.6,10.7506,10.6808,10.6308,10.6704,10.7012,10.7201,10.6911,10.7292,10.7073,10.6082,10.4687,10.2797,10.021,9.8228,0.0,9.17,8.8907,8.525,8.0619,7.7515,0.0,0.0,0.0,0.0,0.0,7.2969,7.5067,7.7671,7.9363,8.0919,8.2408,8.3971,8.4614,8.4614,8.4614,8.4614,8.4614,8.4614,8.4614,8.4614,8.4614,8.4614,8.4614,8.4614,8.4614,8.4614,8.4614,8.4614,8.4614,8.4614,8.4614,8.4614,8.4614,8.4614,8.4343,8.3389,8.278,8.2069,8.0885,7.9253,7.7773,7.7029,7.4356,7.2371,0.0,0.0,0.0,0.0,0.0,0.0,0.0,6.3294,6.1061,5.8761,0.0,0.0,0.0,0.0,0.0,0.0,5.7763,0.0,0.0,0.0,0.0,0.0,0.0,8.0791,8.2076,8.2977,8.3234,8.292,8.4095,8.4866,8.527,8.4829,8.4866,8.5343,8.5637,8.593,8.6224,8.6775,8.6978,8.7014,8.7288,8.7729,8.828,9.7362,9.9274,10.119,10.5788,10.7089,10.7015,10.5701,10.6697,10.7603,10.7587,10.7603,10.7292,10.6715,10.79,10.8505,10.7697,10.7609,10.6911,10.518,10.4394,10.2286,0.0,0.0,9.5849,9.2955,9.0887,8.8013,8.4235,0.0,0.0,7.5036,0.0,0.0,7.4695,7.7671,7.9034,7.9203,8.1401,8.3193,8.4546,8.458,8.4614,8.4614,8.4614,8.4614,8.4614,8.4614,8.4614,8.4614,8.4614,8.4614,8.4614,8.4614,8.4614,8.4614,8.4614,8.4614,8.4614,8.4614,8.4614,8.4614,8.4614,8.4614,8.4208,8.2746,8.2408,8.1799,7.9575,7.8517,7.7773,7.7029,7.5642,7.4322,7.3578,0.0,0.0,0.0,0.0,0.0,0.0,6.483,6.2564,6.0283,0.0,0.0,0.0,0.0,0.0,0.0,0.0,0.0,6.3846,7.0086,0.0,7.8238,8.0091,8.2186,8.4535,8.3748,8.3821,8.4572,8.4609,8.549,8.6867,8.5306,8.549,8.6904,8.6114,8.6261,8.6978,8.6978,8.6978,8.7088,8.7876,8.8206,8.8426,10.2615,10.4214,10.5618,10.7102,10.8398,10.891,10.7914,10.8083,10.8175,10.7682,10.7095,10.6689,10.6517,10.6896,10.7315,0.0,10.7095,10.6302,0.0,10.432,10.3112,10.1403,9.952,9.7673,9.5872,9.3663,9.0996,8.7921,0.0,0.0,0.0,8.1161,8.1143,8.0567,8.2518,8.3189,8.3001,8.5078,8.5438,8.4739,8.6365,8.6561,8.5836,8.5836,8.6711,8.7741,8.6359,8.6736,8.7837,8.7231,8.7056,8.6913,8.6078,8.5266,8.4614,8.4614,8.4614,8.4614,8.4614,8.4614,8.4614,8.4614,8.4614,8.4208,8.2746,8.1629,8.0716,8.0006,7.9261,7.8517,7.7773,7.6386,7.51,7.439,0.0,0.0,0.0,0.0,0.0,0.0,6.2584,6.0892,0.0,6.1471,0.0,0.0,0.0,0.0,0.0,0.0,0.0,0.0,7.2177,0.0,7.9883,8.1734,8.3324,8.4609,8.4903,8.5453,8.6261,8.6261,8.65,8.6978,8.6464,8.6554,8.6978,8.6738,8.6775,8.6978,8.6978,8.6978,8.7088,8.7912,8.8536,8.9179,10.5789,10.6911,10.7719,10.8012,10.8578,10.8909,10.8395,10.8101,10.7697,10.7205,10.6727,10.6376,10.6376,10.6376,0.0,10.7095,10.6727,10.6192,10.5605,10.4504,10.329,10.1992,10.0391,9.879,9.7195,0.0,0.0,9.1586,8.9428,8.7562,8.6056,8.6194,8.6161,8.6044,8.6966,8.7197,8.6949,8.7917,8.7586,8.6517,8.7725,8.7746,8.708,8.708,8.7878,8.8841,8.7527,8.7901,8.8918,8.8378,8.7884,8.7468,8.7163,8.5962,8.4614,8.4614,8.4614,8.4614,8.4614,8.4614,8.4614,8.4614,8.4614,8.4275,8.3084,8.1663,8.0615,8.0615,7.9803,7.8957,7.8483,7.6927,7.5642,7.5506,0.0,0.0,0.0,0.0,0.0,0.0,0.0,0.0,0.0,6.3502,0.0,0.0,0.0,0.0,0.0,0.0,0.0,7.1153,7.4833,0.0,8.212,8.3276,8.4409,8.5527,8.6004,8.6518,8.6978,8.6978,8.6978,8.6978,8.6978,8.6978,8.6978,8.6978,8.6978,8.6978,8.6978,8.7161,8.7545,8.8353,8.9143,8.995,10.7205,10.7609,0.0,0.0,10.8196,0.0,10.7682,10.7021,10.6507,10.6376,10.6376,10.6376,10.6376,10.6302,10.6302,10.6302,0.0,0.0,0.0,10.4798,10.298,10.0905,10.0501,0.0,9.7391,9.6596,9.5859,9.5106,9.2099,9.1015,9.165,9.085,9.0629,9.0966,9.0966,9.0921,9.0745,9.0011,8.9634,8.946,8.8721,8.8402,8.8313,8.8313,8.8415,8.8517,8.8393,8.8415,8.8517,8.8482,8.77,8.6961,8.7998,8.6769,8.4943,8.4758,8.466,8.4614,8.4614,8.4614,8.4614,8.4614,8.4546,8.4343,8.3659,8.2374,8.1384,8.1317,8.0209,7.9203,7.9101,7.7333,7.6082,7.6724,7.4289,7.2022,7.1188,0.0,0.0,0.0,0.0,0.0,0.0,6.5642,6.7481,0.0,0.0,0.0,0.0,0.0,0.0,7.3954,7.7943,8.1542,8.4646,8.4756,8.5527,8.6978,8.7051,8.7088,8.7088,8.7088,8.7088,8.7088,8.7014,8.6978,8.6978,8.6978,8.6978,8.6978,8.6978,8.7509,8.8316,8.9106,8.9913,9.0739,0.0,0.0,10.7902,10.8688,10.8615,10.8505,10.8505,10.7807,10.7095,10.6486,10.6376,10.6376,10.6376,10.5789,10.5422,10.5422,10.6009,10.6082,10.5495,10.4504,10.341,10.2297,10.0986,10.0089,9.9533,9.8765,9.7981,9.7176,9.6428,9.5823,9.5421,9.5201,9.4661,9.3841,9.3841,9.2997,9.1561,9.1654,9.0844,8.956,9.057,9.0384,8.9579,8.9615,9.0617,9.1722,9.012,9.0581,9.182,9.1164,9.0754,9.0404,8.9765,8.9164,8.838,8.6512,8.5318,8.4614,8.4614,8.4614,8.4614,8.4614,8.42,8.3727,8.3524,8.278,8.1968,8.1418,8.1021,8.0445,7.9329,7.8213,7.713,7.6149,7.351,7.0906,6.8977,0.0,0.0,0.0,6.5087,6.5827,6.6803,6.8819,7.0328,0.0,0.0,0.0,0.0,0.0,7.7474,7.7437,8.0748,8.3508,8.549,8.6151,8.6611,8.7014,8.7619,8.7912,8.7912,8.7912,8.7912,8.7876,8.7288,8.6978,8.6978,8.6978,8.6978,8.6978,8.6978,8.7509,8.8316,8.9106,8.9913,9.0739,10.6376,10.7,10.7609,10.7697,10.7991,10.8101,10.7807,10.7294,10.6911,10.6507,10.6376,10.6376,10.6376,10.6009,10.5715,10.5715,10.5385,10.5091,10.4614,10.41,10.3285,10.1806,10.1522,10.0884,9.9947,9.9728,9.9255,9.8447,9.808,9.7676,9.7236,9.6869,9.6338,9.5668,9.5668,9.5068,9.4035,9.3897,9.3198,9.2243,9.2363,9.2002,9.1395,9.1031,9.1558,9.2354,9.1224,9.1558,9.2427,9.195,9.1435,9.0965,9.0868,9.0067,8.9014,8.829,8.6793,8.5292,8.4766,8.4614,8.4614,8.4614,8.4275,8.3998,8.3998,8.3422,8.278,8.2374,8.1791,8.108,8.0242,7.8957,7.7537,7.6072,7.3603,7.0858,6.7906,6.7126,0.0,6.5911,6.7418,6.9029,7.0507,7.2831,7.4025,7.3474,0.0,0.0,7.6041,7.9103,8.0534,7.9727,8.281,8.5086,8.6334,8.6775,8.7161,8.7545,8.7986,8.8206,8.8206,8.8206,8.7986,8.7619,8.7215,8.6978,8.6978,8.6978,8.6978,8.7014,8.7399,8.8059,8.8849,8.9657,9.0482,9.1216,10.6376,10.6984,10.7315,10.678,10.7073,10.7315,10.678,10.6617,10.6376,10.6376,10.6376,10.6376,10.6376,10.6302,10.6192,10.6192,10.4687,10.388,10.4284,10.399,10.3096,10.1316,10.2003,10.1686,9.9823,10.0219,9.9989,9.9108,9.8411,9.797,9.7676,9.7016,9.6685,9.6685,9.6685,9.6685,9.6649,9.5841,9.5492,9.5345,9.3896,9.3198,9.3015,9.2281,9.1913,9.1803,9.1803,9.1803,9.1803,9.1803,9.1135,9.0443,9.1472,9.0384,8.8906,8.9724,8.8557,8.6623,8.524,8.4739,8.4633,8.4811,8.4739,8.4614,8.4614,8.4257,8.3906,8.377,8.2828,8.1958,8.1855,7.9888,7.7887,7.666,7.4121,7.118,6.7892,0.0,6.8315,6.8052,7.0697,7.3066,7.438,7.6841,7.7732,7.615,7.8464,0.0,0.0,8.0975,8.2296,8.1746,8.4389,8.6224,8.7161,8.7161,8.7582,8.839,8.85,8.8573,8.8573,8.8426,8.8023,8.7344,8.7088,8.6978,8.6978,8.6978,8.6978,8.7088,8.7876,8.8683,8.951,9.028,9.1106,9.1803,10.6376,10.6486,10.7021,10.8211,10.7404,10.7,10.8211,10.7294,10.6376,10.6376,10.6376,10.6376,10.6376,10.5715,10.529,10.529,10.3806,10.3806,10.592,10.4687,10.3818,10.341,10.2293,10.1507,10.1177,10.1303,10.0613,9.9108,9.8961,9.8227,9.6869,9.6759,9.6685,9.6685,9.6685,9.6685,9.6649,9.5841,9.5492,9.5418,9.4483,9.3712,9.3088,9.2941,9.2427,9.1803,9.1803,9.1803,9.1803,9.1803,9.1675,9.1528,9.173,9.1528,9.1097,9.0264,8.9724,8.8949,8.672,8.5395,8.4838,8.5887,8.5369,8.4614,8.4614,8.5318,8.5748,8.5151,8.5088,8.4981,8.4357,8.1815,7.9515,7.8679,7.4341,7.0674,0.0,0.0,6.9935,7.1209,7.4071,7.6901,7.9341,7.9396,8.0038,8.1902,8.1261,8.1305,8.239,8.3581,8.4499,8.5049,8.5527,8.6518,8.7986,8.8023,8.8426,8.9216,8.9877,9.0225,9.0188,8.951,8.9143,8.8959,8.7601,8.6978,8.6978,8.6978,8.6978,8.7088,8.7876,8.8683,8.951,9.028,9.1106,9.1803,10.6376,10.6706,10.711,10.7498,10.7315,10.7205,10.7498,10.689,10.6376,10.6376,10.6376,10.6376,10.6376,10.6009,10.5789,10.5789,10.5091,10.4981,10.5715,10.421,10.3109,10.2595,10.2301,10.1898,10.1514,10.1514,10.109,10.0393,9.9512,9.8741,9.797,9.7126,9.6685,9.6685,9.6685,9.6685,9.6685,9.6318,9.6171,9.6098,9.529,9.4446,9.3712,9.3272,9.2574,9.1803,9.1803,9.1803,9.1803,9.1803,9.1803,9.1803,9.1803,9.1803,9.1675,9.1135,9.0046,8.8776,8.7677,8.6961,8.6682,8.7246,8.6463,8.5735,8.6365,8.6463,8.6505,8.6814,8.671,8.6333,8.5554,8.2842,8.0527,7.9905,7.5137,0.0,0.0,7.1737,7.2489,7.4617,7.7611,8.0547,8.317,8.3129,8.3212,8.3988,8.3361,8.3067,8.3381,8.4168,8.4976,8.5764,8.7068,8.8096,8.8849,8.8849,8.9253,9.006,9.0427,9.0592,9.0592,9.0207,8.9546,8.8702,8.7986,8.7399,8.6978,8.6978,8.7234,8.7729,8.8519,8.9326,9.0134,9.0959,9.1473,9.1803,10.6376,10.6911,10.7205,10.6801,10.7021,10.7205,10.6706,10.6486,10.6376,10.6376,10.6376,10.6376,10.6376,10.6376,10.6376,10.6376,10.6192,10.5715,10.4908,10.3696,10.2595,10.1788,10.2191,10.2081,10.1514,10.1514,10.1274,10.0907,9.9695,9.8924,9.8521,9.7273,9.6685,9.6685,9.6685,9.6685,9.6685,9.6685,9.6685,9.6649,9.6025,9.518,9.4226,9.3602,9.2721,9.1803,9.1803,9.1803,9.1803,9.1803,9.1803,9.1803,9.1803,9.1803,9.1803,9.1803,9.0483,8.8971,8.8689,8.8402,8.8268,8.8535,8.77,8.708,8.7975,8.77,8.7492,8.8424,8.8257,8.7699,8.7106,8.4447,8.2073,8.131,0.0,0.0,0.0,7.4348,7.5327,7.8037,8.0834,8.3462,8.5842,8.6077,8.5894,8.5453,8.527,8.4976,8.4519,8.4939,8.56,8.6591,8.8225,8.929,8.9693,8.9693,9.006,9.0886,9.0886,9.0886,9.0886,9.0702,8.9931,8.8757,8.8353,8.7839,8.7288,8.7288,8.7655,8.8316,8.929,9.006,9.0702,9.151,9.1803,9.1803,10.6376,10.6413,10.6727,10.7388,10.689,10.6706,10.7388,10.6911,10.6376,10.6376,10.6376,10.6376,10.6376,10.6376,10.6376,10.6376,10.5715,10.4908,10.399,10.388,10.3476,10.2575,10.1991,10.1587,10.1514,10.1514,10.0796,9.9292,9.9181,9.8337,9.6869,9.6759,9.6685,9.6685,9.6685,9.6685,9.6685,9.6685,9.6685,9.6685,9.6649,9.5694,9.4299,9.4226,9.3198,9.1803,9.1803,9.1803,9.1803,9.1803,9.1803,9.1803,9.1803,9.1803,9.1803,9.1803,9.1675,9.1286,9.0148,8.9035,8.8468,8.9579,8.8949,8.8088,8.8178,8.8992,8.9745,8.9863,9.0117,9.0338,9.0264,8.7628,8.4989,8.3464,0.0,0.0,7.7028,7.7013,7.8202,8.1444,8.3351,8.5055,8.6757,8.6904,8.7215,8.7876,8.7252,8.7142,8.7802,8.7215,8.7528,8.9106,8.8573,8.9014,9.0501,9.0519,9.0922,9.1693,9.1693,9.1693,9.1693,9.0959,9.0555,9.0335,8.8867,8.8169,8.8096,8.8096,8.8133,8.8353,8.9931,9.0555,9.0702,9.151,9.1803,9.1803,10.6376,10.6376,10.6486,10.6801,10.6596,10.6486,10.678,10.7021,10.7021,10.6507,10.678,10.6984,10.6507,10.5899,10.5789,10.6397,10.5091,10.4394,10.4614,10.421,10.3513,10.2705,10.1898,10.1294,10.0796,10.0816,10.0209,9.9108,9.8594,9.8043,9.7419,9.6942,9.6685,9.6685,9.6685,9.6685,9.6685,9.6685,9.6685,9.6649,9.6171,9.529,9.4226,9.3749,9.2831,9.1803,9.1803,9.1803,9.1803,9.1803,9.1803,9.1803,9.1803,9.1803,9.1803,9.1803,9.1803,9.1694,9.123,9.0774,9.0522,9.1003,9.0224,8.9516,9.0264,9.0224,9.0224,9.0965,9.1253,9.1179,9.0702,8.839,8.6518,8.6407,0.0,7.9727,8.2223,8.1693,8.2096,8.4866,8.6611,8.8005,8.9106,8.9216,8.9381,8.9674,8.9417,8.9143,8.8959,8.8629,8.8996,9.0097,8.9858,9.0225,9.1326,9.1326,9.151,9.1803,9.1803,9.1803,9.1803,9.1473,9.1069,9.0592,8.9968,8.9417,8.8886,8.8426,8.85,8.8959,8.9087,8.9711,9.0629,9.0959,9.1363,9.1803,10.6376,10.6376,10.6376,10.6376,10.6376,10.6376,10.6376,10.6911,10.7021,10.6507,10.6911,10.7021,10.6507,10.5899,10.5715,10.6302,10.5311,10.4798,10.5107,10.432,10.3513,10.2705,10.1898,10.109,10.0319,10.0283,9.9769,9.8741,9.8154,9.775,9.7493,9.6942,9.6685,9.6685,9.6685,9.6685,9.6685,9.6685,9.6539,9.6282,9.5731,9.4887,9.3859,9.3308,9.2574,9.1803,9.1803,9.1803,9.1803,9.1803,9.1803,9.1803,9.1803,9.1803,9.1803,9.1803,9.1803,9.1803,9.1803,9.1803,9.1803,9.1803,9.1173,9.0774,9.162,9.1173,9.0774,9.1638,9.1803,9.162,9.1069,8.9417,8.8169,8.8206,8.4756,8.303,8.5783,8.5233,8.5326,8.7491,8.8739,8.951,8.9821,9.0078,9.0207,9.0207,9.0207,8.9987,8.9436,8.9657,9.0024,9.0592,9.0849,9.1253,9.1803,9.1803,9.1803,9.1803,9.1803,9.1803,9.1803,9.1803,9.151,9.0959,9.0702,9.028,8.9693,8.8886,8.8886,8.9363,8.8776,8.9417,9.0592,9.0592,9.1106,9.1803,10.6376,10.6376,10.6376,10.6376,10.6376,10.6376,10.6376,10.6376,10.6376,10.6376,10.6376,10.6376,10.6376,10.6376,10.6376,10.6376,10.6376,10.6009,10.5201,10.4394,10.3586,10.2815,10.1898,10.109,10.0319,10.0283,9.9512,9.7916,9.7916,9.7493,9.6685,9.6685,9.6685,9.6685,9.6685,9.6685,9.6685,9.6685,9.6245,9.5492,9.5493,9.452,9.3125,9.3088,9.2574,9.1803,9.1803,9.1803,9.1803,9.1803,9.1803,9.1803,9.1803,9.1803,9.1803,9.1803,9.1803,9.1803,9.1803,9.1803,9.1803,9.1803,9.1803,9.1803,9.1803,9.1803,9.1803,9.1803,9.1803,9.1803,9.1803,9.1143,9.0078,8.8463,8.7545,8.7014,8.7014,8.7014,8.7601,8.9216,8.9436,8.9106,8.8316,8.8923,8.94,8.94,8.94,8.94,8.9436,9.017,9.0629,9.0629,9.1363,9.1803,9.1803,9.1803,9.1803,9.1803,9.1803,9.1803,9.1803,9.1803,9.1803,9.1767,9.0959,9.0629,9.0555,8.973,8.94,8.94,8.94,8.9877,9.0592,9.0592,9.1106,9.1803,10.6376,10.6376,10.6376,10.6376,10.6376,10.6376,10.6376,10.6911,10.7021,10.6507,10.6911,10.7021,10.6507,10.5899,10.5715,10.6302,10.5311,10.4798,10.5107,10.4908,10.4593,10.441,10.3109,10.1714,10.0319,10.0283,9.9512,9.7916,9.7916,9.7493,9.6685,9.6685,9.6685,9.6685,9.6685,9.6685,9.6649,9.6098,9.5712,9.5382,9.4263,9.3859,9.3822,9.2648,9.2391,9.2648,9.2024,9.1803,9.1803,9.1803,9.1803,9.1803,9.1803,9.1803,9.1803,9.1803,9.1803,9.1803,9.1803,9.1803,9.1803,9.1803,9.1803,9.1803,9.1803,9.1803,9.1803,9.1803,9.1803,9.1803,9.1803,9.1143,9.0445,8.9968,8.9216,8.8886,8.9436,8.9528,8.9931,9.0959,9.1069,9.0776,8.9968,9.0115,8.9987,8.9436,8.9913,9.0482,9.1069,9.1326,9.1436,9.1436,9.1657,9.1803,9.1803,9.1803,9.1803,9.1803,9.1803,9.1803,9.1803,9.1803,9.1803,9.1803,9.1546,9.1436,9.1363,9.0592,8.9913,8.9326,8.8793,8.9033,8.9693,8.9124,9.0152,9.173,10.6376,10.6376,10.6376,10.6376,10.6376,10.6376,10.6376,10.678,10.6984,10.6507,10.678,10.689,10.6507,10.5899,10.5789,10.6397,10.5495,10.5091,10.5605,10.5605,10.5495,10.5107,10.421,10.2705,10.0796,10.0209,9.9181,9.7916,9.7566,9.7163,9.6685,9.6685,9.6685,9.6685,9.6685,9.6685,9.6649,9.5841,9.5492,9.5345,9.3749,9.3382,9.3675,9.2317,9.2134,9.2537,9.1987,9.1803,9.1803,9.1803,9.1803,9.1803,9.1803,9.1803,9.1803,9.1803,9.1803,9.1803,9.1803,9.1803,9.1803,9.1803,9.1803,9.1803,9.1803,9.1803,9.1803,9.1803,9.1803,9.1803,9.1803,9.14,9.1069,9.1069,9.0665,9.0519,9.1033,9.1069,9.1253,9.173,9.1803,9.1473,9.0702,9.0886,9.0886,9.0391,9.0812,9.1289,9.1767,9.1803,9.1803,9.1803,9.1803,9.1803,9.1803,9.1803,9.1803,9.1803,9.1803,9.1803,9.1803,9.1803,9.1803,9.1803,9.1803,9.1803,9.1693,9.0592,8.984,8.929,8.8169,8.8243,8.8849,8.839,8.9307,9.0849,10.6376,10.6376,10.6376,10.6376,10.6376,10.6376,10.6376,10.6376,10.6376,10.6376,10.6376,10.6376,10.6376,10.6376,10.6376,10.6376,10.6376,10.6376,10.6376,10.6376,10.6009,10.5107,10.4997,10.3917,10.1698,10.0099,9.8888,9.8026,9.7199,9.6759,9.6685,9.6685,9.6685,9.6685,9.6685,9.6685,9.6649,9.5841,9.5455,9.5235,9.3712,9.3125,9.3088,9.217,9.1877,9.1987,9.184,9.1803,9.1803,9.1803,9.1803,9.1803,9.1803,9.1803,9.1803,9.1803,9.1803,9.1803,9.1803,9.1803,9.1803,9.1803,9.1803,9.1803,9.1803,9.1803,9.1803,9.1803,9.1803,9.1803,9.1803,9.1803,9.1803,9.1803,9.1803,9.1803,9.1803,9.1803,9.1803,9.1803,9.1803,9.1473,9.0702,9.1216,9.162,9.1693,9.1693,9.173,9.1803,9.1803,9.1803,9.1803,9.1803,9.1803,9.1803,9.1803,9.1803,9.1803,9.1803,9.1803,9.1803,9.1803,9.1803,9.1803,9.1803,9.1803,9.1693,9.0134,8.9473,8.9253,8.7711,8.7545,8.8224,8.8183,8.8769,8.9615,10.6376,10.6376,10.6376,10.6376,10.6376,10.6376,10.6376,10.6376,10.6376,10.6376,10.6376,10.6376,10.6376,10.6376,10.6376,10.6376,10.6376,10.6376,10.6376,10.6376,10.6009,10.5107,10.4504,10.3586,10.2485,10.1494,10.0283,9.8851,9.8043,9.7309,9.6685,9.6685,9.6685,9.6685,9.6685,9.6685,9.6649,9.5841,9.5144,9.4483,9.3492,9.3492,9.3859,9.2354,9.2611,9.3565,9.2281,9.1803,9.1803,9.1803,9.1803,9.1803,9.1803,9.1803,9.1803,9.1803,9.1803,9.1803,9.1803,9.1803,9.1803,9.1803,9.1803,9.1803,9.1803,9.1803,9.1803,9.1803,9.1803,9.1803,9.1803,9.1803,9.1803,9.1803,9.1803,9.1803,9.1803,9.1803,9.1803,9.1803,9.1803,9.1473,9.0702,9.017,9.017,9.0812,9.0849,9.1143,9.1767,9.1803,9.1803,9.1803,9.1803,9.1803,9.1803,9.1803,9.1803,9.1803,9.1803,9.1803,9.1803,9.1803,9.1803,9.1803,9.1803,9.1803,9.173,9.0739,8.995,8.929,8.8316,8.8059,8.8183,8.8148,8.904,9.0345,10.6376,10.6376,10.6376,10.6376,10.6376,10.6376,10.6376,10.6376,10.6376,10.6376,10.6376,10.6376,10.6376,10.6376,10.6376,10.6376,10.6376,10.6376,10.6376,10.6376,10.6009,10.5107,10.4724,10.3917,10.2705,10.1898,10.0686,9.9108,9.7897,9.7126,9.6685,9.6685,9.6685,9.6685,9.6685,9.6685,9.6649,9.5841,9.5474,9.529,9.3749,9.3565,9.4116,9.2427,9.2354,9.2978,9.2097,9.1803,9.1803,9.1803,9.1803,9.1803,9.1803,9.1803,9.1803,9.1803,9.1803,9.1803,9.1803,9.1803,9.1803,9.1803,9.1803,9.1803,9.1803,9.1803,9.1803,9.1803,9.1803,9.1803,9.1803,9.1803,9.1803,9.1803,9.1803,9.1803,9.1803,9.1803,9.1803,9.1803,9.1803,9.162,9.1216,9.0812,9.0739,9.1143,9.1179,9.1363,9.1767,9.1803,9.1803,9.1803,9.1803,9.1803,9.1803,9.1803,9.1803,9.1803,9.1803,9.1803,9.1803,9.1803,9.1803,9.1803,9.1803,9.1583,9.1179,9.0755,9.0076,8.9313,8.8806,8.8626,8.865,8.8581,8.9362,9.0498,10.6376,10.6376,10.6376,10.6376,10.6376,10.6376,10.6376,10.6376,10.6376,10.6376,10.6376,10.6376,10.6376,10.6302,10.6192,10.6376,10.6302,10.6192,10.6376,10.6376,10.5899,10.4887,10.4908,10.4079,10.2522,10.1677,10.0576,9.9108,9.764,9.6832,9.6685,9.6685,9.6685,9.6685,9.6685,9.6685,9.6649,9.5988,9.6025,9.6318,9.4189,9.3712,9.4116,9.2427,9.1877,9.1987,9.184,9.1803,9.1803,9.1803,9.1803,9.1803,9.1803,9.1803,9.1803,9.1803,9.1803,9.1803,9.1803,9.1803,9.1803,9.1803,9.1803,9.1803,9.1803,9.1803,9.1803,9.1803,9.1803,9.1803,9.1803,9.1803,9.1803,9.1803,9.1803,9.1803,9.1803,9.1803,9.1803,9.1803,9.1803,9.1803,9.1803,9.1803,9.1803,9.1803,9.1803,9.1803,9.1803,9.1803,9.1803,9.1803,9.1803,9.1803,9.1803,9.1803,9.1803,9.1803,9.1803,9.1803,9.1803,9.1803,9.1803,9.1822,9.1947,9.1651,9.0968,9.078,9.0303,8.9646,8.9259,8.9122,8.9135,8.925,8.9768,9.0548,10.6376,10.6376,10.6376,10.6376,10.6376,10.6376,10.6376,10.6376,10.6376,10.6376,10.6376,10.6376,10.6376,10.5715,10.5605,10.6302,10.5715,10.5605,10.6397,10.6376,10.5678,10.41,10.41,10.3293,10.1698,10.0907,9.9989,9.9108,9.819,9.7383,9.6685,9.6685,9.6685,9.6685,9.6685,9.6685,9.6685,9.6575,9.6208,9.5565,9.4556,9.4189,9.4116,9.2427,9.2281,9.2831,9.206,9.1803,9.1803,9.1803,9.1803,9.1803,9.1803,9.1803,9.1803,9.1803,9.1803,9.1803,9.1803,9.1803,9.1803,9.1803,9.1803,9.1803,9.1803,9.1803,9.1803,9.1803,9.1803,9.1803,9.1803,9.1803,9.1803,9.1803,9.1803,9.1803,9.1803,9.1803,9.1803,9.1803,9.1803,9.1803,9.1803,9.1803,9.1803,9.1803,9.1803,9.1803,9.1803,9.1803,9.1803,9.1803,9.1803,9.1803,9.1803,9.1803,9.1803,9.1803,9.1803,9.1803,9.1803,9.1803,9.1803,9.1858,9.2552,9.2789,9.263,9.1793,9.1401,9.1137,8.9686,8.9122,8.9186,8.9763,9.0423,9.1097,10.6376,10.6376,10.6376,10.6376,10.6376,10.6376,10.6376,10.6376,10.6376,10.6376,10.6376,10.6376,10.6376,10.5605,10.5495,10.6302,10.5605,10.5311,10.5584,10.5715,10.4908,10.3293,10.3219,10.2705,10.1514,10.122,10.0393,9.9108,9.83,9.7493,9.6685,9.6685,9.6465,9.6025,9.6025,9.5768,9.5364,9.5364,9.5144,9.4777,9.3969,9.3639,9.3492,9.2281,9.2024,9.2317,9.195,9.1803,9.1803,9.1803,9.1803,9.1803,9.1803,9.1803,9.1803,9.1803,9.1803,9.1803,9.1803,9.1803,9.1803,9.1803,9.1803,9.1803,9.1803,9.1803,9.1803,9.1803,9.1803,9.1803,9.1803,9.1803,9.1803,9.1803,9.1803,9.1803,9.1803,9.1803,9.1803,9.1803,9.1803,9.1803,9.1803,9.1803,9.1803,9.1803,9.1363,9.1326,9.1767,9.1363,9.1143,9.1143,9.1583,9.1761,9.1727,9.2225,9.2699,9.3055,9.3055,9.2854,9.2485,9.2485,9.2678,9.3087,9.3455,9.3341,9.2836,9.2354,9.1883,9.1387,9.059,9.0252,9.0322,9.0606,9.0905,9.121]}]]